[[{"header":{"parameterUnit":"m.s-1","parameterCategory":1,"la1":30.6,"la2":29.2853,"lo1":-89.7004,"lo2":-87.6739,"dy":0.0162,"dx":0.0183,"nx":112,"ny":82,"refTime":"2024-02-22T06:00:00:Z","depth":0,"parameterNumber":2,"parameterNumberName":"U-component_of_WINDS"},"data":[0.0,0.0,0.0,0.0,0.0,0.0,0.0,0.0,0.0,0.0,0.0,0.0,0.0,0.0,0.0,0.0,0.0,0.0,0.0,0.0,0.0,0.0,0.0,0.0,0.0,0.0,0.0,0.0,0.0,0.0,0.0,0.0,0.0,0.0,0.0,0.0,0.0,0.0,0.0,0.0,0.0,0.0,0.0,0.0,0.0,0.0,0.0,0.0,0.0,0.0,0.0,0.0,0.0,0.0,0.0,0.0,0.0,0.0,0.0,0.0,0.0,0.0,0.0,0.0,0.0,0.0,0.0,0.0,0.0,0.0,0.0,0.0,0.0,0.0,0.0,0.0,0.0,0.0,0.0,0.0,0.0,0.0,0.0,0.0,0.0,0.0,0.0,0.0,0.0,0.0,-4.9761,-4.994,-5.0584,-5.099,-5.0997,-5.1105,-5.0451,-4.8793,0.0,0.0,0.0,0.0,0.0,0.0,0.0,0.0,0.0,0.0,0.0,0.0,0.0,0.0,0.0,0.0,0.0,0.0,0.0,0.0,0.0,0.0,0.0,0.0,0.0,0.0,0.0,0.0,0.0,0.0,0.0,0.0,0.0,0.0,0.0,0.0,0.0,0.0,0.0,0.0,0.0,0.0,0.0,0.0,0.0,0.0,0.0,0.0,0.0,0.0,0.0,0.0,0.0,0.0,0.0,0.0,0.0,0.0,0.0,0.0,0.0,0.0,0.0,0.0,0.0,0.0,0.0,0.0,0.0,0.0,0.0,0.0,0.0,0.0,0.0,0.0,0.0,0.0,0.0,0.0,0.0,0.0,0.0,0.0,0.0,0.0,0.0,0.0,0.0,0.0,0.0,0.0,0.0,0.0,0.0,0.0,0.0,0.0,0.0,0.0,0.0,0.0,0.0,0.0,-4.9289,-5.0598,-5.0832,-5.0944,-5.0997,-5.1017,-5.0363,-4.8808,0.0,0.0,0.0,0.0,0.0,0.0,0.0,0.0,0.0,0.0,0.0,0.0,0.0,0.0,0.0,0.0,0.0,0.0,0.0,0.0,0.0,0.0,0.0,0.0,0.0,0.0,0.0,0.0,0.0,0.0,0.0,0.0,0.0,0.0,0.0,0.0,0.0,0.0,0.0,0.0,0.0,0.0,0.0,0.0,0.0,0.0,0.0,0.0,0.0,0.0,0.0,0.0,0.0,0.0,0.0,0.0,0.0,0.0,0.0,0.0,0.0,0.0,0.0,0.0,0.0,0.0,0.0,0.0,0.0,0.0,0.0,0.0,0.0,0.0,0.0,0.0,0.0,0.0,0.0,0.0,0.0,0.0,0.0,0.0,0.0,0.0,0.0,0.0,0.0,0.0,0.0,0.0,0.0,0.0,0.0,0.0,0.0,0.0,0.0,0.0,0.0,0.0,0.0,-4.8671,-4.9634,-5.0778,-5.0898,-5.0914,-5.0932,-5.0976,-5.0326,-4.8743,-4.9055,0.0,0.0,0.0,0.0,0.0,0.0,0.0,0.0,0.0,0.0,0.0,0.0,0.0,0.0,0.0,0.0,0.0,0.0,0.0,0.0,0.0,0.0,0.0,0.0,0.0,0.0,0.0,0.0,0.0,0.0,0.0,0.0,0.0,0.0,0.0,0.0,0.0,0.0,0.0,0.0,0.0,0.0,0.0,0.0,0.0,0.0,0.0,0.0,0.0,0.0,0.0,0.0,0.0,0.0,0.0,0.0,0.0,0.0,0.0,0.0,0.0,0.0,0.0,0.0,0.0,0.0,0.0,0.0,0.0,0.0,0.0,0.0,0.0,0.0,0.0,0.0,0.0,0.0,0.0,0.0,0.0,0.0,0.0,0.0,0.0,0.0,0.0,0.0,0.0,0.0,0.0,0.0,0.0,0.0,0.0,0.0,0.0,0.0,0.0,0.0,0.0,0.0,-4.9347,-5.0221,-5.0821,-5.0898,-5.0898,-5.0898,-5.0765,-5.0092,-4.8662,-4.8452,0.0,0.0,0.0,0.0,0.0,0.0,0.0,0.0,0.0,0.0,0.0,0.0,0.0,0.0,0.0,0.0,0.0,0.0,0.0,0.0,0.0,0.0,0.0,0.0,0.0,0.0,0.0,0.0,0.0,0.0,0.0,0.0,0.0,0.0,0.0,0.0,0.0,0.0,0.0,0.0,0.0,0.0,0.0,0.0,0.0,0.0,0.0,0.0,0.0,0.0,0.0,0.0,0.0,0.0,0.0,0.0,0.0,0.0,0.0,0.0,0.0,0.0,0.0,0.0,0.0,0.0,0.0,0.0,0.0,0.0,0.0,0.0,0.0,0.0,0.0,0.0,0.0,0.0,0.0,0.0,0.0,0.0,0.0,0.0,0.0,0.0,0.0,0.0,0.0,0.0,0.0,0.0,0.0,0.0,0.0,0.0,0.0,0.0,0.0,0.0,0.0,0.0,-4.9841,-5.084,-5.0898,-5.0898,-5.0898,-5.0898,-5.021,-4.9415,-4.8561,-4.7808,0.0,0.0,0.0,0.0,0.0,0.0,0.0,0.0,0.0,0.0,0.0,0.0,0.0,0.0,0.0,0.0,0.0,0.0,0.0,0.0,0.0,0.0,0.0,0.0,0.0,0.0,0.0,0.0,0.0,0.0,0.0,0.0,0.0,0.0,0.0,0.0,0.0,0.0,0.0,0.0,0.0,0.0,0.0,0.0,0.0,0.0,0.0,0.0,0.0,0.0,0.0,0.0,0.0,0.0,0.0,0.0,0.0,0.0,0.0,0.0,0.0,0.0,0.0,0.0,0.0,0.0,0.0,0.0,0.0,0.0,0.0,0.0,0.0,0.0,0.0,0.0,0.0,0.0,0.0,0.0,0.0,0.0,0.0,0.0,0.0,0.0,0.0,0.0,0.0,0.0,0.0,0.0,0.0,0.0,0.0,0.0,0.0,0.0,0.0,0.0,0.0,0.0,-4.9432,-5.0337,0.0,-5.0898,-5.0898,-5.0898,-5.0608,-4.9892,-4.8567,0.0,0.0,0.0,0.0,0.0,0.0,0.0,0.0,0.0,0.0,0.0,0.0,0.0,0.0,0.0,0.0,0.0,0.0,0.0,0.0,0.0,0.0,0.0,0.0,0.0,0.0,0.0,0.0,0.0,0.0,0.0,0.0,0.0,0.0,0.0,0.0,0.0,0.0,0.0,0.0,0.0,0.0,0.0,0.0,0.0,0.0,0.0,0.0,0.0,0.0,0.0,0.0,0.0,0.0,0.0,0.0,0.0,0.0,0.0,0.0,0.0,0.0,0.0,0.0,0.0,0.0,0.0,0.0,0.0,0.0,0.0,0.0,0.0,0.0,0.0,0.0,0.0,0.0,0.0,0.0,0.0,0.0,0.0,0.0,0.0,0.0,0.0,0.0,0.0,0.0,0.0,0.0,0.0,0.0,0.0,0.0,0.0,0.0,0.0,0.0,0.0,0.0,-4.8329,-4.9378,-5.0279,0.0,-5.0898,-5.0898,-5.0898,-5.0666,-4.9935,-4.856,0.0,0.0,0.0,0.0,0.0,0.0,0.0,0.0,0.0,0.0,0.0,0.0,0.0,0.0,0.0,0.0,0.0,0.0,0.0,0.0,0.0,0.0,0.0,0.0,0.0,0.0,0.0,0.0,0.0,0.0,0.0,0.0,0.0,0.0,0.0,0.0,0.0,0.0,0.0,0.0,0.0,0.0,0.0,0.0,0.0,0.0,0.0,0.0,0.0,0.0,0.0,0.0,0.0,0.0,0.0,0.0,0.0,0.0,0.0,0.0,0.0,0.0,0.0,0.0,0.0,0.0,0.0,0.0,0.0,0.0,0.0,0.0,0.0,0.0,0.0,0.0,0.0,0.0,0.0,0.0,0.0,0.0,0.0,0.0,0.0,0.0,0.0,0.0,0.0,0.0,0.0,0.0,0.0,0.0,0.0,0.0,0.0,0.0,0.0,0.0,0.0,0.0,-4.8392,-4.9861,-5.0898,-5.0898,-5.0898,-5.0898,-5.0898,-5.0171,-4.9339,0.0,0.0,0.0,0.0,0.0,0.0,0.0,0.0,0.0,0.0,0.0,0.0,0.0,0.0,0.0,0.0,0.0,0.0,0.0,0.0,0.0,0.0,0.0,0.0,0.0,0.0,0.0,0.0,0.0,0.0,0.0,0.0,0.0,0.0,0.0,0.0,0.0,0.0,0.0,0.0,0.0,0.0,0.0,0.0,0.0,0.0,0.0,0.0,0.0,0.0,0.0,0.0,0.0,0.0,0.0,0.0,0.0,0.0,0.0,0.0,0.0,0.0,0.0,0.0,0.0,0.0,0.0,0.0,0.0,0.0,0.0,0.0,0.0,0.0,0.0,0.0,0.0,0.0,0.0,0.0,0.0,0.0,0.0,0.0,0.0,0.0,0.0,0.0,0.0,0.0,0.0,0.0,0.0,0.0,0.0,0.0,0.0,0.0,0.0,0.0,0.0,0.0,0.0,-4.8392,-4.9861,-5.0898,-5.0898,-5.0898,-5.0898,-5.0898,-5.0685,-4.9939,-4.8488,0.0,0.0,0.0,0.0,0.0,0.0,0.0,0.0,0.0,0.0,0.0,0.0,0.0,0.0,0.0,0.0,0.0,0.0,0.0,0.0,0.0,0.0,0.0,0.0,0.0,0.0,0.0,0.0,0.0,0.0,0.0,0.0,0.0,0.0,0.0,0.0,0.0,0.0,0.0,0.0,0.0,0.0,0.0,0.0,0.0,0.0,0.0,0.0,0.0,0.0,0.0,0.0,0.0,0.0,0.0,0.0,0.0,0.0,0.0,0.0,0.0,0.0,0.0,0.0,0.0,0.0,0.0,0.0,0.0,0.0,0.0,0.0,0.0,0.0,0.0,0.0,0.0,0.0,0.0,0.0,0.0,0.0,0.0,0.0,0.0,0.0,0.0,0.0,0.0,0.0,0.0,0.0,0.0,0.0,0.0,0.0,0.0,0.0,0.0,0.0,0.0,0.0,-4.7869,-4.9068,-5.0028,-5.0376,-5.0415,-5.055,-5.0859,-5.0898,-5.0318,-4.901,0.0,0.0,0.0,0.0,0.0,0.0,0.0,0.0,0.0,0.0,0.0,0.0,0.0,0.0,0.0,0.0,0.0,0.0,0.0,0.0,0.0,0.0,0.0,0.0,0.0,0.0,0.0,0.0,0.0,0.0,0.0,0.0,0.0,0.0,0.0,0.0,0.0,0.0,0.0,0.0,0.0,0.0,0.0,0.0,0.0,0.0,0.0,0.0,0.0,0.0,0.0,0.0,0.0,0.0,0.0,0.0,0.0,0.0,0.0,0.0,0.0,0.0,0.0,0.0,0.0,0.0,0.0,0.0,0.0,0.0,0.0,0.0,0.0,0.0,0.0,0.0,0.0,0.0,0.0,0.0,0.0,0.0,0.0,0.0,0.0,0.0,0.0,0.0,0.0,0.0,0.0,0.0,0.0,0.0,0.0,0.0,0.0,0.0,0.0,0.0,0.0,0.0,-4.7096,-4.785,-4.874,-4.961,-4.9629,-4.9919,-5.0724,-5.0705,-5.0318,-4.9513,0.0,0.0,0.0,0.0,0.0,0.0,0.0,0.0,0.0,0.0,0.0,0.0,0.0,0.0,0.0,0.0,0.0,0.0,0.0,0.0,0.0,0.0,0.0,0.0,0.0,0.0,0.0,0.0,0.0,0.0,0.0,0.0,0.0,0.0,0.0,0.0,0.0,0.0,0.0,0.0,0.0,0.0,0.0,0.0,0.0,0.0,0.0,0.0,0.0,0.0,0.0,0.0,0.0,0.0,0.0,0.0,0.0,0.0,0.0,0.0,-5.3665,0.0,0.0,0.0,0.0,0.0,0.0,0.0,0.0,0.0,0.0,0.0,0.0,0.0,0.0,0.0,0.0,0.0,0.0,0.0,0.0,0.0,0.0,0.0,0.0,0.0,0.0,0.0,0.0,0.0,0.0,0.0,0.0,0.0,0.0,0.0,0.0,0.0,0.0,0.0,0.0,0.0,-4.7096,-4.785,-4.874,-4.961,-4.9088,-4.903,-4.9881,-4.9339,-4.8566,-4.7715,-4.7482,0.0,0.0,0.0,0.0,0.0,0.0,0.0,0.0,0.0,0.0,0.0,0.0,0.0,0.0,0.0,0.0,0.0,0.0,0.0,0.0,0.0,0.0,0.0,0.0,0.0,0.0,0.0,0.0,0.0,0.0,0.0,0.0,0.0,0.0,0.0,0.0,0.0,0.0,0.0,0.0,0.0,0.0,0.0,0.0,0.0,0.0,0.0,0.0,0.0,0.0,0.0,0.0,0.0,0.0,0.0,0.0,0.0,0.0,0.0,0.0,-5.3568,0.0,0.0,0.0,0.0,0.0,0.0,0.0,0.0,0.0,0.0,0.0,0.0,0.0,0.0,0.0,0.0,0.0,0.0,0.0,0.0,0.0,0.0,0.0,0.0,0.0,0.0,0.0,0.0,0.0,0.0,0.0,0.0,0.0,0.0,0.0,0.0,0.0,0.0,0.0,0.0,-4.6484,-4.7231,-4.8101,-4.8972,-4.9049,-4.9204,-4.9668,-4.9281,-4.8643,-4.7773,-4.7328,0.0,0.0,0.0,0.0,0.0,0.0,0.0,0.0,0.0,0.0,0.0,0.0,0.0,0.0,0.0,0.0,0.0,0.0,0.0,0.0,0.0,0.0,0.0,0.0,0.0,0.0,0.0,0.0,0.0,0.0,0.0,0.0,0.0,0.0,0.0,0.0,0.0,0.0,0.0,0.0,0.0,0.0,0.0,0.0,0.0,0.0,0.0,0.0,0.0,0.0,0.0,0.0,0.0,-5.2207,-5.1855,-5.1855,-5.1855,-5.1855,-5.1914,-5.32,-5.4176,-5.4745,-5.3296,0.0,0.0,0.0,0.0,0.0,0.0,0.0,0.0,0.0,0.0,0.0,0.0,0.0,0.0,0.0,0.0,0.0,0.0,0.0,0.0,0.0,0.0,0.0,0.0,-4.9845,-4.9528,-4.891,0.0,0.0,0.0,0.0,0.0,0.0,0.0,0.0,0.0,0.0,0.0,-4.602,-4.6651,-4.7482,-4.8527,-4.9119,-4.9517,-4.9672,-4.9401,-4.8937,-4.8222,-4.7366,-4.6864,0.0,0.0,0.0,0.0,0.0,0.0,0.0,0.0,0.0,0.0,0.0,0.0,0.0,0.0,0.0,0.0,0.0,0.0,0.0,0.0,0.0,0.0,0.0,0.0,0.0,0.0,0.0,0.0,0.0,0.0,0.0,0.0,-5.3019,-5.3899,0.0,0.0,0.0,0.0,0.0,0.0,0.0,0.0,0.0,0.0,0.0,0.0,0.0,-5.1992,-5.2851,-5.2754,-5.3086,-5.3828,-5.3711,-5.3652,-5.3652,-5.3652,-5.3652,-5.3633,-5.3105,0.0,-5.3027,-5.2792,0.0,0.0,0.0,0.0,0.0,0.0,0.0,0.0,0.0,0.0,0.0,0.0,0.0,0.0,0.0,0.0,0.0,0.0,0.0,0.0,0.0,0.0,-5.06,-5.0735,-5.0198,-4.9676,0.0,-4.8365,-4.7247,-4.715,-4.6491,0.0,0.0,0.0,0.0,0.0,0.0,0.0,-4.6825,-4.7018,-4.7715,-4.9359,-4.8903,-4.8783,-4.9555,-4.828,-4.7384,-4.7287,-4.6455,-4.5981,-4.5981,-4.5981,0.0,0.0,0.0,0.0,0.0,0.0,0.0,0.0,0.0,0.0,0.0,0.0,0.0,0.0,0.0,0.0,0.0,0.0,0.0,0.0,0.0,0.0,0.0,0.0,0.0,0.0,0.0,0.0,0.0,-5.2886,-5.3747,-5.4627,-5.4296,-5.3847,0.0,0.0,0.0,0.0,0.0,0.0,0.0,0.0,0.0,-5.2129,-5.2129,-5.2558,-5.3418,-5.2949,-5.2891,-5.3262,-5.2773,-5.2539,-5.2539,-5.2539,-5.2518,-5.2451,-5.208,-5.1895,-5.1896,-5.2429,-5.2621,-5.2546,0.0,0.0,0.0,0.0,-5.1233,-5.1224,-5.1167,-5.1682,0.0,-5.1911,0.0,0.0,0.0,0.0,0.0,0.0,0.0,0.0,0.0,0.0,-5.0337,-5.0782,-5.0627,-5.0376,-5.0376,-4.9417,-4.8275,0.0,-4.6786,-4.6387,-4.5884,0.0,0.0,0.0,0.0,-4.6663,-4.704,-4.7909,-4.8771,-4.952,-4.9658,-4.9669,-4.9545,-4.8869,-4.805,-4.7105,-4.6685,-4.6256,-4.5761,-4.5742,-4.5749,0.0,0.0,0.0,0.0,0.0,0.0,0.0,0.0,0.0,0.0,0.0,0.0,0.0,0.0,0.0,0.0,0.0,0.0,0.0,0.0,0.0,0.0,0.0,0.0,0.0,0.0,0.0,0.0,-5.326,-5.3984,-5.4863,-5.4394,-5.3906,0.0,0.0,0.0,0.0,0.0,0.0,-5.1406,-5.1406,-5.1699,-5.2344,-5.2363,-5.2676,-5.332,-5.2695,-5.2363,-5.2322,-5.1678,-5.1363,-5.1359,-5.1359,-5.1328,-5.1279,-5.1279,-5.1242,-5.1233,-5.1957,-5.221,-5.2162,-5.2162,-5.1768,-5.1199,-5.1174,-5.1165,-5.1152,-5.108,-5.1438,-5.1929,-5.1873,-5.1899,-5.1949,-5.1949,0.0,0.0,0.0,0.0,-4.9958,-4.9745,-4.9861,-5.0171,-5.0763,-5.0743,-5.0589,-5.0589,-4.9958,-4.9049,0.0,-4.7579,-4.7231,-4.6581,0.0,0.0,0.0,0.0,-4.7476,-4.7689,-4.8789,-4.963,-4.9809,-5.0398,-5.0505,-4.986,-4.9628,-4.8876,-4.7392,-4.7111,-4.6598,-4.5746,-4.5708,-4.5723,-4.5773,0.0,0.0,0.0,0.0,0.0,0.0,0.0,0.0,0.0,0.0,0.0,0.0,0.0,0.0,0.0,0.0,0.0,0.0,0.0,0.0,0.0,0.0,0.0,0.0,0.0,0.0,0.0,0.0,0.0,-5.3965,-5.4023,0.0,0.0,0.0,0.0,-5.1465,-5.1406,-5.1406,-5.1406,-5.1406,-5.1426,-5.1465,-5.1465,-5.1484,-5.1523,-5.1484,-5.1423,-5.1379,-5.1338,-5.1277,-5.1214,-5.1214,-5.1211,-5.1207,-5.1207,-5.1176,-5.1103,-5.1209,-5.1265,-5.1261,-5.1261,-5.1242,-5.1191,-5.1136,-5.1111,-5.1093,-5.0966,-5.0933,-5.0972,-5.0964,-5.0964,-5.0972,-5.0972,-5.0933,0.0,0.0,-5.0241,-5.0666,-4.99,-5.026,-5.084,-5.0898,-5.0318,-4.9765,-4.9765,-4.9088,-4.8682,0.0,-4.8894,-4.8314,-4.8275,0.0,-4.8164,-4.8164,-4.8221,-4.8516,-4.9279,-4.9453,-4.9828,-5.0647,-5.0718,-5.0682,-5.0643,-4.9931,-4.9102,-4.8197,-4.7422,-4.6598,-4.5746,-4.5708,-4.5708,-4.5708,-4.5708,0.0,0.0,0.0,0.0,0.0,0.0,0.0,0.0,0.0,0.0,0.0,0.0,0.0,0.0,0.0,0.0,0.0,0.0,0.0,0.0,0.0,0.0,0.0,0.0,0.0,0.0,0.0,0.0,-5.3125,-5.3164,0.0,-5.2734,-5.2187,-5.1738,-5.1426,-5.1406,-5.1406,-5.1406,-5.1406,-5.1406,-5.1406,-5.1406,-5.1406,-5.1406,-5.1361,-5.1328,-5.1297,-5.1263,-5.1229,-5.1203,-5.1203,-5.1189,-5.1146,-5.1146,-5.108,-5.0969,-5.1004,-5.1005,-5.1005,-5.1005,-5.1005,-5.0998,-5.099,-5.0969,-5.0961,-5.0921,-5.0898,-5.0898,-5.0898,-5.0898,-5.0898,-5.0898,-5.0898,-5.084,-5.055,-5.0685,-5.0832,-5.0546,-5.0692,-5.0897,-5.0852,-5.0612,-5.04,-5.04,-5.0168,-5.0033,-5.0342,-4.9285,-4.8334,-4.8334,-4.8314,-4.8301,-4.8301,-4.8728,-4.9174,-4.9457,-4.9949,-5.0383,-5.0711,-5.0702,-5.0693,-5.0693,-5.0442,-4.9653,-4.822,-4.7873,-4.7073,-4.5695,-4.5637,-4.5654,-4.5706,-4.5706,-4.5695,0.0,0.0,0.0,0.0,0.0,0.0,0.0,0.0,0.0,0.0,0.0,0.0,0.0,0.0,0.0,0.0,0.0,0.0,0.0,0.0,0.0,0.0,0.0,0.0,0.0,0.0,-5.2266,-5.2266,-5.2266,-5.2266,-5.2266,-5.1738,-5.1406,-5.1406,-5.1406,-5.1406,-5.1406,-5.1385,-5.1363,-5.1363,-5.1338,-5.1333,-5.1333,-5.1288,-5.1241,-5.1239,-5.1187,-5.1138,-5.1102,-5.1102,-5.1078,-5.1037,-5.1037,-5.0976,-5.0898,-5.0898,-5.0898,-5.0898,-5.0898,-5.0898,-5.0898,-5.0898,-5.0898,-5.0898,-5.0898,-5.0898,-5.0898,-5.0898,-5.0898,-5.0898,-5.0898,-5.0898,-5.0898,-5.0901,-5.0901,-5.0893,-5.0872,-5.0863,-5.0855,-5.081,-5.0801,-5.0801,-5.0801,-5.0801,-5.0801,-5.0801,-4.9892,-4.9048,-4.8759,-4.8698,-4.8606,-4.8317,-4.8705,-4.9034,-4.9017,-4.9749,-5.0259,-5.0269,-5.0519,-5.0712,-5.0712,-5.0442,-4.976,-4.8606,-4.8009,-4.7201,-4.6086,-4.5768,-4.5622,-4.5676,-4.5676,-4.5673,-4.566,0.0,0.0,0.0,0.0,0.0,0.0,0.0,0.0,0.0,0.0,0.0,0.0,0.0,0.0,0.0,0.0,0.0,0.0,0.0,0.0,0.0,0.0,0.0,-5.1406,-5.1406,-5.1406,-5.1406,-5.1406,-5.1406,-5.1406,-5.1406,-5.1406,-5.1406,-5.1406,-5.1406,-5.1406,-5.1334,-5.1295,-5.1295,-5.1219,-5.1199,-5.1199,-5.1199,-5.1152,-5.1099,-5.1099,-5.1024,-5.0898,-5.0898,-5.0898,-5.0898,-5.0898,-5.0898,-5.0898,-5.0898,-5.0898,-5.0898,-5.0898,-5.0898,-5.0898,-5.0898,-5.0898,-5.0898,-5.0898,-5.0898,-5.0898,-5.0898,-5.0898,-5.0898,-5.0898,-5.0898,-5.0909,-5.0888,-5.0899,-5.0891,-5.081,-5.0801,-5.0793,-5.0793,-5.0793,-5.0793,-5.0793,-5.0793,-5.0793,-5.0793,-5.0793,-5.0522,-4.9674,-4.9534,-4.9256,-4.8418,-4.8219,0.0,-4.8182,-4.8913,-4.9433,-4.9394,-5.0183,-5.0693,-5.0654,-4.9913,-4.9433,-4.9394,-4.7875,-4.6942,-4.6904,-4.6086,-4.5624,-4.5586,-4.5605,-4.5605,-4.5586,0.0,0.0,0.0,0.0,0.0,0.0,0.0,0.0,0.0,0.0,0.0,0.0,0.0,0.0,0.0,0.0,0.0,0.0,0.0,0.0,0.0,0.0,-5.1406,-5.1406,-5.1406,-5.1406,-5.1406,-5.1406,-5.1406,-5.1406,-5.1406,-5.1406,-5.1406,-5.1406,-5.1385,-5.1333,-5.1302,-5.1257,-5.116,-5.1187,-5.1187,-5.1132,-5.1132,-5.1072,-5.0953,-5.0956,-5.0948,-5.0897,-5.0909,-5.0898,-5.0898,-5.0898,-5.0898,-5.0898,-5.0898,-5.0898,-5.0898,-5.0898,-5.0898,-5.0898,-5.0898,-5.0898,-5.0898,-5.0898,-5.0898,-5.0898,-5.0898,-5.0898,-5.0898,-5.0898,-5.0901,-5.0897,-5.0899,-5.0863,-5.0801,-5.0738,-5.072,-5.073,-5.0721,-5.0731,-5.0731,-5.0731,-5.0731,-5.0731,-5.0731,-5.0731,-5.0644,-5.0411,-5.0374,-5.0288,-5.0057,-5.001,0.0,-4.999,-5.0183,-5.0087,-4.9471,-5.0183,-5.0442,-4.9798,-5.0106,-5.0067,-4.9433,-4.8971,-4.8163,-4.6942,-4.6474,-4.5954,-4.5312,-4.5504,-4.5504,0.0,0.0,0.0,0.0,0.0,0.0,0.0,0.0,0.0,0.0,0.0,0.0,0.0,0.0,0.0,0.0,0.0,0.0,0.0,0.0,0.0,0.0,-5.1406,-5.1406,-5.1406,-5.1406,-5.1406,-5.1406,-5.1406,-5.1406,-5.1406,-5.1365,-5.1362,-5.1362,-5.131,-5.1252,-5.1219,-5.116,-5.1107,-5.1014,-5.105,-5.106,-5.1017,-5.1017,-5.0976,-5.0905,-5.0863,-5.0869,-5.0899,-5.0869,-5.0877,-5.0893,-5.0877,-5.085,-5.085,-5.0885,-5.0893,0.0,0.0,0.0,0.0,0.0,-5.0898,-5.0898,-5.0898,-5.0898,-5.0898,-5.0901,-5.0893,-5.0893,-5.0877,-5.0852,-5.0855,-5.0829,-5.0784,-5.0757,-5.0702,-5.0712,-5.0702,-5.0693,-5.0712,-5.0712,-5.0712,-5.0712,-5.0712,-5.0712,-5.0712,0.0,-5.0702,-5.0394,-5.0029,-4.9663,-4.9606,-4.9606,-4.9606,-4.9933,-4.9952,-4.9452,-5.0183,-5.05,-4.999,-5.0067,0.0,0.0,0.0,-4.8413,-4.7451,-4.7242,0.0,0.0,0.0,-4.6345,-4.6085,0.0,0.0,0.0,-4.6144,-4.6377,0.0,0.0,0.0,0.0,0.0,0.0,0.0,0.0,0.0,0.0,0.0,0.0,0.0,0.0,0.0,0.0,-5.1406,-5.1406,-5.1406,-5.1406,-5.1406,-5.1406,-5.1406,-5.1406,-5.1406,-5.1335,-5.1295,-5.1295,-5.1167,-5.1083,-5.1074,0.0,0.0,0.0,0.0,-5.0891,-5.0874,-5.0891,-5.0872,-5.0883,-5.0819,-5.0838,-5.0899,-5.0838,-5.0838,-5.0899,-5.0838,-5.0801,-5.0801,-5.0855,-5.0891,-5.0899,-5.0901,-5.0898,-5.0898,-5.0898,-5.089,-5.089,-5.089,0.0,0.0,-5.0888,-5.0891,-5.0883,-5.081,-5.0793,-5.0784,-5.071,-5.0692,-5.0702,-5.0702,-5.0712,-5.0712,-5.0712,-5.0712,-5.0712,-5.0712,-5.0712,-5.0712,-5.0712,-5.0712,-5.0712,-5.0712,-5.0048,-4.9279,-4.8509,-4.8394,-4.8394,-4.8394,-4.9067,-4.951,-4.9413,0.0,0.0,-5.0558,-4.9933,-4.9875,-5.0654,-4.9163,-4.8231,-4.8203,-4.8145,-4.7962,-4.7712,-4.7734,-4.7602,-4.734,-4.8047,-4.8424,-4.8426,-4.7048,-4.7256,0.0,0.0,0.0,0.0,0.0,0.0,0.0,0.0,0.0,0.0,0.0,0.0,0.0,0.0,0.0,-5.1406,-5.1406,-5.1406,-5.1406,-5.1406,-5.1406,-5.1406,-5.1406,-5.1406,-5.1406,-5.1292,-5.1225,-5.1225,-5.1148,-5.1044,-5.094,-5.0901,-5.0847,-5.0735,-5.0782,-5.0794,-5.0731,-5.0794,-5.0793,-5.0748,0.0,0.0,-5.0899,-5.0838,-5.0838,-5.0899,-5.0838,-5.0801,-5.0801,-5.081,-5.081,-5.0819,-5.0874,-5.0898,-5.0898,-5.0905,-5.0888,-5.0888,-5.0836,-5.0827,-5.0819,-5.0819,-5.081,-5.081,-5.0801,-5.0766,0.0,-5.0701,-5.0692,-5.0702,-5.0693,-5.0712,-5.0712,-5.0712,-5.0712,-5.0712,-5.0712,-5.0712,-5.0712,-5.0712,-5.0712,-5.0712,-5.0712,-5.0558,-5.0385,-5.0221,-5.0212,-5.0212,-5.0212,-5.0346,-5.0183,-4.9471,-5.0183,-5.0423,-4.9702,-5.0144,-5.0519,-5.0693,-4.9721,-4.9057,-4.8824,-4.8365,-4.7972,-4.7715,-4.7903,-4.7882,-4.7617,-4.7777,-4.796,-4.8175,-4.8735,-4.9386,0.0,0.0,0.0,0.0,0.0,0.0,0.0,0.0,0.0,0.0,0.0,-5.1406,-5.1406,0.0,-5.1406,-5.1406,-5.1406,-5.1406,-5.1406,-5.1406,-5.1406,-5.1406,-5.1364,-5.1339,-5.1297,-5.119,-5.1087,-5.1054,-5.0959,-5.0862,-5.0797,-5.0792,-5.0771,-5.0712,-5.073,-5.0739,-5.0702,-5.0766,-5.0784,-5.0738,-5.0784,-5.0838,-5.0899,-5.0838,-5.081,-5.0846,-5.081,-5.0784,-5.0766,-5.081,-5.0846,-5.0855,-5.0897,-5.0877,-5.0861,-5.0855,-5.0846,-5.0846,-5.081,-5.0801,-5.0793,-5.0766,-5.0757,-5.0757,-5.0749,-5.073,-5.0702,-5.0702,-5.0712,-5.0712,-5.0712,-5.0712,-5.0712,-5.0712,-5.0712,-5.0712,-5.0712,-5.0712,-5.0712,-5.0712,-5.0712,-5.0712,-5.0712,-5.0712,-5.0712,-5.0712,-5.0712,-5.0712,-5.0712,-5.0712,-5.0539,-5.0087,-5.0442,-5.0519,-5.0087,-5.0462,-5.0712,-5.0712,-5.0289,-4.999,-4.985,-4.9557,-4.9258,-4.8945,-4.8965,-4.8876,-4.8756,-4.8837,-4.9062,-4.9362,-5.0175,-5.0471,0.0,0.0,0.0,0.0,0.0,0.0,0.0,0.0,-5.14,-5.1405,-5.1406,-5.1406,-5.1406,-5.1406,-5.1406,-5.1406,-5.1406,-5.1406,-5.1406,-5.1386,-5.1386,-5.1386,-5.1313,-5.1247,-5.1188,-5.1059,-5.0966,-5.0893,-5.0778,-5.0702,-5.0702,-5.0702,-5.0702,-5.0712,-5.0702,-5.071,-5.0701,-5.0747,-5.0793,-5.0801,-5.0784,-5.0821,-5.0899,-5.0829,-5.0793,-5.0801,-5.0793,-5.0757,-5.0711,-5.0829,-5.0874,-5.0866,-5.0855,-5.0829,-5.0775,-5.0784,-5.0784,-5.0784,-5.0775,-5.0775,-5.0766,-5.072,-5.0702,-5.0702,-5.0702,-5.0712,-5.0712,-5.0712,-5.0712,-5.0712,-5.0712,-5.0712,-5.0712,-5.0712,-5.0712,-5.0712,-5.0712,-5.0712,-5.0712,-5.0712,-5.0712,-5.0712,-5.0712,-5.0712,-5.0712,-5.0712,-5.0712,-5.0712,-5.0712,-5.0712,-5.0712,-5.0712,-5.0712,-5.0712,-5.0712,-5.0712,-5.0712,-5.0712,-5.0712,-5.0712,-5.0712,-5.0712,-5.0565,-5.0294,-5.0025,-4.9884,-4.9884,-5.0,-5.0146,-5.0378,-5.0808,-5.0782,-5.1394,-5.1394,-5.1394,-5.1394,-5.1394,-5.14,0.0,0.0,-5.1401,-5.1406,-5.1406,-5.1406,-5.1406,-5.1406,-5.1406,-5.1406,-5.1406,-5.1406,-5.1406,-5.1359,-5.1302,-5.1302,-5.1254,-5.1185,-5.1117,-5.0996,-5.0923,-5.0896,-5.0773,-5.0693,-5.0693,-5.0692,-5.0692,-5.0693,-5.0767,-5.0766,-5.0701,-5.0701,-5.0729,-5.0801,-5.073,-5.0777,-5.0899,-5.0766,-5.0738,-5.0801,-5.0748,-5.0702,-5.0702,-5.0785,-5.0776,-5.0721,-5.072,-5.073,-5.0712,-5.0711,-5.071,-5.0701,-5.0702,-5.0712,-5.0702,-5.0702,-5.0693,-5.0693,-5.0693,-5.0712,-5.0712,-5.0712,-5.0712,-5.0712,-5.0712,-5.0712,-5.0712,-5.0712,-5.0712,-5.0712,-5.0712,-5.0712,-5.0712,-5.0712,-5.0712,-5.0712,-5.0712,-5.0712,-5.0712,-5.0712,-5.0712,-5.0712,-5.0712,-5.0712,-5.0712,-5.0712,-5.0712,-5.0712,-5.0712,-5.0712,-5.0712,-5.0712,-5.0712,-5.0712,-5.0712,-5.0712,-5.0683,-5.0634,-5.0325,-5.0159,-5.0159,-4.9933,-4.973,-4.9531,-4.9612,-5.0221,-5.1394,-5.1394,0.0,0.0,-5.1394,-5.1398,-5.1391,-5.1396,-5.14,-5.1405,-5.1406,-5.1406,-5.1406,-5.1406,-5.1406,0.0,-5.1406,-5.1406,-5.1406,-5.1337,-5.1286,-5.1255,-5.1156,-5.1064,-5.1,-5.0855,-5.0789,-5.0782,-5.073,-5.0712,-5.0712,-5.0712,-5.0712,-5.0693,-5.0731,-5.074,-5.0701,-5.0729,-5.0775,-5.0801,-5.0803,-5.0831,-5.0846,-5.0784,-5.0793,-5.0855,-5.0784,-5.0784,-5.0819,-5.0846,-5.0821,-5.0758,-5.072,-5.0692,-5.0693,-5.0693,-5.0702,-5.0693,-5.0693,-5.0712,-5.0712,-5.0712,-5.0712,-5.0712,-5.0712,-5.0712,-5.0712,-5.0712,-5.0712,-5.0712,-5.0712,-5.0712,-5.0712,-5.0712,-5.0712,-5.0712,-5.0712,-5.0712,-5.0712,-5.0712,-5.0712,-5.0712,-5.0712,-5.0712,-5.0712,-5.0712,-5.0712,-5.0712,-5.0712,-5.0712,-5.0712,-5.0712,-5.0712,-5.0712,-5.0712,-5.0712,-5.0712,-5.0712,-5.0712,-5.0712,-5.0712,-5.0504,-5.041,-5.041,-4.9962,-4.9817,-4.9974,-4.9506,-4.9315,-4.9399,-4.9209,-4.9399,-5.1336,0.0,0.0,-5.1336,-5.1394,-5.1396,-5.1407,-5.1393,-5.1398,-5.1404,-5.1406,-5.1406,-5.1406,-5.1406,-5.1406,-5.1406,-5.1406,-5.1386,-5.1385,-5.1306,-5.1255,-5.1174,-5.1041,-5.0944,-5.0882,-5.0769,-5.0702,-5.0693,-5.0712,-5.0712,-5.0712,-5.0702,-5.0702,-5.0712,-5.0721,-5.0721,-5.0701,-5.0757,-5.0784,-5.0801,-5.0821,-5.0821,-5.0801,-5.0801,-5.0838,-5.0863,-5.0846,-5.0836,-5.085,-5.088,-5.0838,-5.0776,-5.073,-5.0692,-5.0712,-5.0712,-5.0712,-5.0712,-5.0712,-5.0712,-5.0712,-5.0712,-5.0712,-5.0712,-5.0712,-5.0712,-5.0712,-5.0712,-5.0712,-5.0712,-5.0712,-5.0712,-5.0712,-5.0712,-5.0712,-5.0712,-5.0712,-5.0712,-5.0712,-5.0712,-5.0712,-5.0712,-5.0712,-5.0712,-5.0712,-5.0712,-5.0712,-5.0712,-5.0712,-5.0712,-5.0712,-5.0712,-5.0712,-5.0712,-5.0712,-5.0712,-5.0712,-5.0712,-5.0712,-5.0712,-5.0712,-5.0369,-5.0195,-5.0195,-4.967,-4.9503,-4.9679,-4.9155,-4.9027,-4.9257,-4.901,-4.8909,0.0,0.0,-5.0338,-5.1199,-5.1394,-5.1396,-5.1407,-5.1409,-5.1394,-5.1404,-5.1405,-5.1405,-5.1406,-5.1406,-5.1406,-5.1406,-5.1406,-5.1385,-5.1304,-5.1252,-5.1174,-5.1103,-5.0974,-5.0872,0.0,-5.0738,-5.0702,-5.0693,-5.0712,-5.0712,-5.0712,-5.0692,-5.0692,-5.0693,-5.0767,-5.0775,-5.0701,-5.0701,-5.0748,-5.0801,-5.074,-5.075,-5.0801,-5.0801,-5.0801,-5.0801,-5.0863,-5.0829,-5.071,-5.0846,-5.0822,-5.0702,-5.0702,-5.0692,-5.0712,-5.0712,-5.0712,-5.0712,-5.0712,-5.0712,-5.0712,-5.0712,-5.0712,-5.0712,-5.0712,-5.0712,-5.0712,-5.0712,-5.0712,-5.0712,-5.0712,-5.0712,-5.0712,-5.0712,-5.0712,-5.0712,-5.0712,-5.0712,-5.0712,-5.0712,-5.0712,-5.0712,-5.0712,-5.0712,-5.0712,-5.0712,-5.0712,-5.0712,-5.0712,-5.0712,-5.0712,-5.0712,-5.0712,-5.0712,-5.0712,-5.0712,-5.0712,-5.0712,-5.0712,-5.0712,-5.0712,-5.0369,-5.0195,-5.0195,-4.967,-4.9396,-4.9396,-4.9061,-4.8909,-4.8907,-4.889,-4.8909,0.0,0.0,-5.1023,-5.1336,-5.1394,-5.1394,-5.1398,-5.1405,-5.1393,-5.14,-5.1403,-5.1405,-5.1406,-5.1406,-5.1406,-5.1406,-5.1406,-5.1385,-5.1302,-5.1249,-5.1189,-5.1117,-5.0988,0.0,0.0,0.0,0.0,-5.0702,-5.073,-5.0767,-5.0767,-5.0766,-5.0766,-5.0767,-5.0784,-5.0793,-5.0775,-5.0775,-5.0766,-5.0729,-5.0702,-5.0702,-5.0729,-5.0729,-5.0784,-5.0863,-5.0891,-5.088,-5.0833,-5.088,-5.0857,-5.0767,-5.073,-5.0692,-5.0712,-5.0712,-5.0712,-5.0712,-5.0712,-5.0712,-5.0712,-5.0712,-5.0712,-5.0712,-5.0712,-5.0712,-5.0712,-5.0712,-5.0712,-5.0712,-5.0712,-5.0712,-5.0712,-5.0712,-5.0712,-5.0712,-5.0712,-5.0712,-5.0712,-5.0712,-5.0712,-5.0712,-5.0712,-5.0712,-5.0712,-5.0712,-5.0712,-5.0712,-5.0712,-5.0712,-5.0712,-5.0712,-5.0712,-5.0712,-5.0712,-5.0712,-5.0712,-5.0712,-5.0712,-5.0712,-5.0712,-5.0369,-5.0123,-4.993,-4.9569,-4.9305,-4.9061,-4.896,-4.8909,-4.8909,-4.8909,-4.8909,-5.1082,-5.118,-5.1004,-5.1316,-5.1394,-5.1394,-5.1394,-5.14,-5.1407,-5.1394,-5.14,-5.1404,-5.1406,-5.1406,-5.1406,-5.1406,-5.1406,-5.1364,-5.1279,-5.1232,-5.1156,-5.103,-5.0947,0.0,0.0,0.0,0.0,-5.0738,-5.0784,-5.0801,-5.0801,-5.0801,-5.0801,-5.0801,-5.0801,-5.0793,-5.0756,-5.0756,-5.0748,-5.0692,-5.0702,-5.0702,-5.0692,-5.071,-5.0784,-5.0863,-5.0888,-5.0877,-5.0858,-5.0852,-5.0821,-5.0767,-5.073,-5.0693,-5.0712,-5.0712,-5.0712,-5.0712,-5.0712,-5.0712,-5.0712,-5.0712,-5.0712,-5.0712,-5.0712,-5.0712,-5.0712,-5.0712,-5.0712,-5.0712,-5.0712,-5.0712,-5.0712,-5.0712,-5.0712,-5.0712,-5.0712,-5.0712,-5.0712,-5.0712,-5.0712,-5.0712,-5.0712,-5.0712,-5.0712,-5.0712,-5.0712,-5.0712,-5.0712,-5.0712,-5.0712,-5.0712,-5.0712,-5.0712,-5.0712,-5.0712,-5.0712,-5.0712,-5.0712,-5.0712,-5.0712,-5.0291,-4.9987,-4.9784,-4.9423,-4.911,-4.8909,-4.8909,-4.8909,-4.8909,-4.8909,-4.8909,-5.0945,-5.0809,-5.0377,-5.1199,-5.1394,-5.1394,-5.1394,-5.1394,-5.1398,-5.1408,-5.1395,-5.14,0.0,0.0,-5.1406,-5.1406,-5.1406,-5.1359,-5.1225,-5.1199,-5.1123,0.0,0.0,0.0,0.0,0.0,0.0,-5.081,0.0,-5.081,-5.081,-5.081,-5.081,-5.081,-5.081,-5.0784,-5.0701,-5.0701,-5.0692,-5.0712,-5.0692,-5.0692,-5.0693,-5.0776,-5.0801,-5.081,-5.0866,-5.0858,-5.0801,-5.0801,-5.0767,-5.0693,-5.0693,-5.0693,-5.0712,-5.0712,-5.0712,-5.0712,-5.0712,-5.0712,-5.0712,-5.0712,-5.0712,-5.0712,-5.0712,-5.0712,-5.0712,-5.0712,-5.0712,-5.0712,-5.0712,-5.0712,-5.0712,-5.0712,-5.0712,-5.0712,-5.0712,-5.0712,-5.0712,-5.0712,-5.0712,-5.0712,-5.0712,-5.0712,-5.0712,-5.0712,-5.0712,-5.0712,-5.0712,-5.0712,-5.0712,-5.0712,-5.0712,-5.0712,-5.0712,-5.0712,-5.0712,-5.0712,-5.0712,-5.0712,-5.0712,-5.0142,-4.983,-4.9803,-4.9233,-4.8925,-4.8909,-4.8909,-4.8909,-4.8909,-4.8909,-4.8909,-5.1102,-5.1238,-5.1121,-5.1336,-5.1394,-5.1394,-5.1394,-5.1394,-5.1398,-5.1408,-5.1395,-5.14,0.0,0.0,0.0,-5.1406,-5.1362,0.0,-5.1214,-5.1162,0.0,-5.0921,0.0,-5.0898,-5.0909,-5.089,0.0,0.0,-5.0874,-5.0874,-5.0874,-5.0874,-5.0874,-5.0874,-5.0874,-5.0833,-5.0784,-5.0721,-5.0702,-5.0712,-5.0702,-5.0702,-5.0702,-5.0766,-5.0838,-5.0891,-5.0901,-5.0893,-5.0863,-5.0863,-5.0812,-5.0702,-5.0702,-5.0702,-5.0712,-5.0712,-5.0712,-5.0712,-5.0712,-5.0712,-5.0712,-5.0712,-5.0712,-5.0712,-5.0712,-5.0712,-5.0712,-5.0712,-5.0712,-5.0712,-5.0712,-5.0712,-5.0712,-5.0712,-5.0712,-5.0712,-5.0712,-5.0712,-5.0712,-5.0712,-5.0712,-5.0712,-5.0712,-5.0712,-5.0712,-5.0712,-5.0712,-5.0712,-5.0712,-5.0712,-5.0712,-5.0712,-5.0712,-5.0712,-5.0712,-5.0712,-5.0712,-5.0712,-5.0712,-5.0712,-5.0712,-5.0544,-5.0256,-4.9817,-4.9651,-4.9358,-4.8909,-4.8909,-4.8909,-4.8909,-4.8909,-4.8909,-5.116,-5.1394,-5.1394,-5.1394,-5.1394,-5.1394,-5.1394,-5.1394,-5.1396,-5.1402,-5.139,0.0,0.0,0.0,0.0,0.0,0.0,0.0,-5.1214,-5.1137,-5.105,0.0,-5.0898,0.0,-5.0898,-5.0898,-5.0898,0.0,-5.0898,-5.0898,-5.0898,-5.0898,-5.0898,-5.0898,-5.0898,-5.0866,-5.0801,-5.0721,-5.0712,-5.0712,-5.0712,-5.0693,-5.0701,-5.0775,-5.0838,-5.0899,0.0,-5.0885,-5.0855,-5.0855,-5.0794,-5.0712,-5.0712,-5.0693,-5.0712,-5.0712,-5.0712,-5.0712,-5.0712,-5.0712,-5.0712,-5.0712,-5.0712,-5.0712,-5.0712,-5.0712,-5.0712,-5.0712,-5.0712,-5.0712,-5.0712,-5.0712,-5.0712,-5.0712,-5.0712,-5.0712,-5.0712,-5.0712,-5.0712,-5.0712,-5.0712,-5.0712,-5.0712,-5.0712,-5.0712,-5.0712,-5.0712,-5.0712,-5.0712,-5.0712,-5.0712,-5.0712,-5.0712,-5.0712,-5.0712,-5.0712,-5.0712,-5.0712,-5.0712,-5.0712,-5.0712,-5.0554,-5.0325,-4.9968,-4.9735,-4.9469,-4.9127,-4.8959,-4.8909,-4.8909,-4.8909,-4.8909,-5.1375,-5.1492,-5.1394,-5.1394,-5.1394,-5.1394,-5.1394,-5.1394,-5.1394,-5.1394,0.0,-5.1391,-5.1397,0.0,-5.1405,-5.1386,0.0,-5.1269,-5.1195,-5.1116,-5.103,-5.0914,-5.0898,-5.0898,-5.0898,-5.0898,-5.0898,-5.0898,-5.0898,-5.0898,-5.0898,-5.0898,-5.0898,-5.0898,-5.089,-5.085,-5.0801,-5.0721,-5.0693,-5.0702,-5.0702,-5.0702,-5.071,-5.0784,-5.0846,-5.0899,-5.0901,0.0,-5.081,-5.0801,-5.0767,-5.0702,-5.0693,-5.0712,-5.0712,-5.0712,-5.0712,-5.0712,-5.0712,-5.0712,-5.0712,-5.0712,-5.0712,-5.0712,-5.0712,-5.0712,-5.0712,-5.0712,-5.0712,-5.0712,-5.0712,-5.0712,-5.0712,-5.0712,-5.0712,-5.0712,-5.0712,-5.0712,-5.0712,-5.0712,-5.0712,-5.0712,-5.0712,-5.0712,-5.0712,-5.0712,-5.0712,-5.0712,-5.0712,-5.0712,-5.0712,-5.0712,-5.0712,-5.0712,-5.0712,-5.0712,-5.0712,-5.0712,-5.0712,-5.0712,-5.0712,-5.0421,-5.0237,-5.0147,-4.9726,-4.9457,-4.9337,-4.9094,-4.8942,-4.8909,-4.8909,-4.8909,-5.2431,-5.1941,-5.1394,-5.1394,-5.1394,-5.1394,-5.1394,-5.1394,0.0,0.0,0.0,-5.1391,-5.1397,-5.1402,0.0,-5.1331,0.0,0.0,0.0,0.0,-5.0929,0.0,0.0,0.0,0.0,0.0,0.0,0.0,0.0,-5.0898,-5.0898,-5.0898,-5.0898,-5.0898,-5.0852,-5.081,-5.0801,-5.0721,-5.0712,-5.0711,-5.0711,-5.0739,-5.0784,-5.0855,-5.0891,-5.0899,-5.0901,0.0,-5.0891,-5.081,-5.0766,-5.0702,-5.0702,-5.0712,-5.0712,-5.0712,-5.0712,-5.0712,-5.0712,-5.0712,-5.0712,-5.0712,-5.0712,-5.0712,-5.0712,-5.0712,-5.0712,-5.0712,-5.0712,-5.0712,-5.0712,-5.0712,-5.0712,-5.0712,-5.0712,-5.0712,-5.0712,-5.0712,-5.0712,-5.0712,-5.0712,-5.0712,-5.0712,-5.0712,-5.0712,-5.0712,-5.0712,-5.0712,-5.0712,-5.0712,-5.0712,-5.0712,-5.0712,-5.0712,-5.0712,-5.0712,-5.0712,-5.0712,-5.0712,-5.0712,-5.0712,-5.0634,-5.0377,-4.9884,-5.0,-4.9702,-4.8976,-4.9209,-4.9176,-4.8909,-4.8909,-4.8909,-5.2273,-5.2058,-5.196,-5.1511,-5.1394,-5.1394,-5.1394,0.0,0.0,0.0,0.0,-5.1407,-5.1396,0.0,0.0,0.0,0.0,0.0,0.0,0.0,0.0,0.0,0.0,0.0,0.0,0.0,0.0,0.0,0.0,-5.0898,-5.0898,-5.0898,-5.0898,-5.0898,-5.0861,-5.0855,-5.0855,-5.0758,-5.0692,-5.0701,-5.0701,-5.0748,-5.0801,-5.0863,-5.0888,-5.0893,-5.089,0.0,-5.0899,-5.0838,-5.0766,-5.0692,-5.0712,-5.0712,-5.0712,-5.0712,-5.0712,-5.0712,-5.0712,-5.0712,-5.0712,-5.0712,-5.0712,-5.0712,-5.0712,-5.0712,-5.0712,-5.0712,-5.0712,-5.0712,-5.0712,-5.0712,-5.0712,-5.0712,-5.0712,-5.0712,-5.0712,-5.0712,-5.0712,-5.0712,-5.0712,-5.0712,-5.0712,-5.0712,-5.0712,-5.0712,-5.0712,-5.0712,-5.0712,-5.0712,-5.0712,-5.0712,-5.0712,-5.0712,-5.0712,-5.0712,-5.0712,-5.0712,-5.0712,-5.0712,-5.0712,-5.0712,-5.0554,-5.0268,-5.0087,-4.9784,-4.9374,-4.9204,-4.9061,-4.8909,-4.8909,-4.8909,-5.2331,-5.2312,-5.2489,-5.1629,-5.1394,-5.1394,-5.1394,-5.1394,0.0,0.0,-5.1394,-5.14,-5.1396,0.0,0.0,0.0,0.0,0.0,0.0,0.0,0.0,0.0,0.0,0.0,0.0,0.0,0.0,0.0,0.0,0.0,-5.1177,-5.1362,-5.1459,-5.1459,-5.1446,-5.144,-5.144,-5.115,-5.0989,-5.0998,-5.0825,-5.0775,-5.0827,-5.088,-5.0893,-5.0898,-5.0898,0.0,0.0,-5.0827,-5.0784,-5.071,-5.0702,-5.0702,-5.0712,-5.0712,-5.0712,-5.0712,-5.0712,-5.0712,-5.0712,-5.0712,-5.0712,-5.0712,-5.0712,-5.0712,-5.0712,-5.0712,-5.0712,-5.0712,-5.0712,-5.0712,-5.0712,-5.0712,-5.0712,-5.0712,-5.0712,-5.0712,-5.0712,-5.0712,-5.0712,-5.0712,-5.0712,-5.0712,-5.0712,-5.0712,-5.0712,-5.0712,-5.0712,-5.0712,-5.0712,-5.0712,-5.0712,-5.0712,-5.0712,-5.0712,-5.0712,-5.0712,-5.0712,-5.0712,-5.0712,-5.0712,-5.0663,-5.0585,-5.019,-4.9936,-4.9803,-4.9309,-4.9059,-4.901,-4.8925,-4.8909,-5.3795,-5.3249,-5.2489,-5.1629,-5.1394,-5.1394,-5.1394,0.0,0.0,-5.1394,-5.1394,-5.14,-5.1396,-5.1398,-5.1386,0.0,0.0,0.0,0.0,0.0,0.0,0.0,0.0,0.0,0.0,0.0,0.0,0.0,0.0,0.0,-5.2066,-5.2821,-5.3265,-5.3265,-5.3205,-5.3179,-5.3179,-5.2382,-5.1968,-5.1964,-5.1239,-5.0869,-5.089,-5.089,-5.0898,-5.0898,-5.0898,0.0,0.0,-5.0888,-5.0855,-5.0784,-5.071,-5.0702,-5.0712,-5.0712,-5.0712,-5.0712,-5.0712,-5.0712,-5.0712,-5.0712,-5.0712,-5.0712,-5.0712,-5.0712,-5.0712,-5.0712,-5.0712,-5.0712,-5.0712,-5.0712,-5.0712,-5.0712,-5.0712,-5.0712,-5.0712,-5.0712,-5.0712,-5.0712,-5.0712,-5.0712,-5.0712,-5.0712,-5.0712,-5.0712,-5.0712,-5.0712,-5.0712,-5.0712,-5.0712,-5.0712,-5.0712,-5.0712,-5.0712,-5.0712,-5.0712,-5.0712,-5.0712,-5.0712,-5.0712,-5.0712,-5.0554,-5.0241,-5.0493,-5.0355,-4.9803,-4.973,-4.9579,-4.9352,-4.9044,-4.8909,-5.2722,-5.2956,-5.3151,-5.1746,-5.1394,-5.1394,-5.1394,0.0,0.0,-5.1394,-5.1394,-5.1398,-5.1391,-5.1396,-5.1383,0.0,0.0,0.0,0.0,0.0,0.0,0.0,0.0,0.0,0.0,0.0,0.0,0.0,0.0,0.0,-5.373,-5.3594,-5.3498,-5.3498,-5.3462,-5.3453,-5.3453,-5.3037,-5.2575,-5.2097,-5.1773,-5.1365,-5.0905,-5.0909,-5.0898,-5.0898,-5.0898,0.0,0.0,-5.0897,-5.0855,-5.0793,-5.072,-5.0692,-5.0712,-5.0712,-5.0712,-5.0712,-5.0712,-5.0712,-5.0712,-5.0712,-5.0712,-5.0712,-5.0712,-5.0712,-5.0712,-5.0712,-5.0712,-5.0712,-5.0712,-5.0712,-5.0712,-5.0712,-5.0712,-5.0712,-5.0712,-5.0712,-5.0712,-5.0712,-5.0712,-5.0712,-5.0712,-5.0712,-5.0712,-5.0712,-5.0712,-5.0712,-5.0712,-5.0712,-5.0712,-5.0712,-5.0712,-5.0712,-5.0712,-5.0712,-5.0712,-5.0712,-5.0712,-5.0712,-5.0712,-5.0712,-5.0653,-5.0504,-5.0432,-5.0272,-5.0031,-4.9884,-4.967,-4.9399,-4.9273,-4.9094,-5.1726,-5.2487,-5.3268,-5.1765,-5.1394,-5.1394,0.0,0.0,0.0,-5.1394,-5.1394,-5.1398,-5.1408,-5.1395,-5.14,0.0,0.0,0.0,0.0,0.0,0.0,0.0,0.0,0.0,0.0,0.0,0.0,0.0,0.0,0.0,-5.5103,-5.4561,-5.4233,-5.4233,-5.4233,-5.4233,-5.4233,-5.3902,-5.3325,-5.25,-5.2254,-5.1694,-5.0897,-5.0909,-5.0898,-5.0898,-5.0898,0.0,0.0,-5.0913,-5.0872,-5.0819,-5.0775,-5.073,-5.0693,-5.0693,-5.0702,-5.0712,-5.0712,-5.0712,-5.0712,-5.0712,-5.0712,-5.0712,-5.0712,-5.0712,-5.0712,-5.0712,-5.0712,-5.0712,-5.0712,-5.0712,-5.0712,-5.0712,-5.0712,-5.0712,-5.0712,-5.0712,-5.0712,-5.0712,-5.0712,-5.0712,-5.0712,-5.0712,-5.0712,-5.0712,-5.0712,-5.0712,-5.0712,-5.0712,-5.0712,-5.0712,-5.0712,-5.0712,-5.0712,-5.0712,-5.0712,-5.0712,-5.0712,-5.0712,-5.0712,-5.0712,-5.0712,-5.0712,-5.0472,-5.0347,-5.0347,-5.0062,-4.983,-4.9627,-4.9558,-4.9365,-5.1394,-5.2038,-5.2509,-5.1629,-5.1394,-5.1394,0.0,0.0,0.0,-5.1394,-5.1394,-5.1398,-5.1408,-5.1395,-5.14,-5.1404,0.0,0.0,0.0,0.0,0.0,0.0,0.0,0.0,0.0,0.0,0.0,0.0,0.0,0.0,-5.5896,-5.5993,-5.5973,-5.5973,-5.5973,-5.5973,-5.5973,-5.518,-5.4349,-5.3478,-5.2608,-5.1738,-5.0898,-5.0898,-5.0898,0.0,0.0,0.0,0.0,-5.0898,-5.0893,-5.0899,-5.0899,-5.0821,-5.0701,-5.0701,-5.0712,-5.0712,-5.0712,-5.0712,-5.0712,-5.0712,-5.0712,-5.0712,-5.0712,-5.0712,-5.0712,-5.0712,-5.0712,-5.0712,-5.0712,-5.0712,-5.0712,-5.0712,-5.0712,-5.0712,-5.0712,-5.0712,-5.0712,-5.0712,-5.0712,-5.0712,-5.0712,-5.0712,-5.0712,-5.0712,-5.0712,-5.0712,-5.0712,-5.0712,-5.0712,-5.0712,-5.0712,-5.0712,-5.0712,-5.0712,-5.0712,-5.0712,-5.0712,-5.0712,-5.0712,-5.0712,-5.0712,-5.0712,-5.0702,-5.0683,-5.0683,-5.0358,-5.0195,-5.0183,-4.9917,-4.9655,-5.0514,-5.159,-5.2489,-5.1629,-5.1394,-5.1394,-5.1394,0.0,0.0,-5.1394,-5.1394,-5.1394,-5.1398,-5.1391,-5.1399,-5.14,0.0,0.0,0.0,0.0,0.0,0.0,0.0,0.0,0.0,0.0,0.0,0.0,0.0,0.0,0.0,-5.6012,-5.6012,-5.6012,-5.6012,-5.6012,-5.6012,-5.5745,-5.4914,-5.3498,-5.3174,-5.2285,-5.0898,-5.0898,-5.0898,0.0,0.0,0.0,0.0,-5.0898,-5.0893,-5.0899,-5.0899,-5.0821,-5.0701,-5.0701,-5.0712,-5.0712,-5.0712,-5.0712,-5.0712,-5.0712,-5.0712,-5.0712,-5.0712,-5.0712,-5.0712,-5.0712,-5.0712,-5.0712,-5.0712,-5.0712,-5.0712,-5.0712,-5.0712,-5.0712,-5.0712,-5.0712,-5.0712,-5.0712,-5.0712,-5.0712,-5.0712,-5.0712,-5.0712,-5.0712,-5.0712,-5.0712,-5.0712,-5.0712,-5.0712,-5.0712,-5.0712,-5.0712,-5.0712,-5.0712,-5.0712,-5.0712,-5.0712,-5.0712,-5.0712,-5.0712,-5.0712,-5.0712,-5.0712,-5.0712,-5.0712,-5.0585,-5.0421,-5.0195,-4.9917,-4.9762,0.0,-5.0887,-5.2078,-5.1531,-5.1394,0.0,0.0,0.0,0.0,-5.1394,-5.1394,-5.1394,-5.1394,-5.1409,-5.1398,-5.1398,0.0,0.0,0.0,0.0,0.0,0.0,0.0,0.0,0.0,0.0,0.0,0.0,0.0,0.0,0.0,-5.6012,-5.6012,-5.6012,-5.6012,-5.6012,-5.6012,-5.5996,-5.5165,-5.3498,-5.3453,-5.2556,-5.0898,-5.0898,-5.0898,0.0,0.0,0.0,0.0,-5.0898,-5.0901,-5.0905,-5.0905,-5.0863,-5.0775,-5.0775,-5.073,-5.0693,-5.0693,-5.0702,-5.0712,-5.0712,-5.0712,-5.0712,-5.0712,-5.0712,-5.0712,-5.0712,-5.0712,-5.0712,-5.0712,-5.0712,-5.0712,-5.0712,-5.0712,-5.0712,-5.0712,-5.0712,-5.0712,-5.0712,-5.0712,-5.0712,-5.0712,-5.0712,-5.0712,-5.0712,-5.0712,-5.0712,-5.0712,-5.0712,-5.0712,-5.0712,-5.0712,-5.0712,-5.0712,-5.0712,-5.0712,-5.0712,-5.0712,-5.0712,-5.0712,-5.0712,-5.0712,-5.0712,-5.0712,-5.0712,-5.0712,-5.0712,-5.0585,-5.0369,-5.0087,-4.9943,0.0,-5.0126,-5.1394,-5.1394,-5.1394,-5.1394,0.0,0.0,0.0,0.0,0.0,0.0,-5.1394,-5.1408,-5.1398,-5.1398,0.0,0.0,0.0,0.0,0.0,0.0,0.0,0.0,0.0,0.0,0.0,0.0,0.0,0.0,0.0,-5.6012,-5.6012,-5.6012,-5.6012,-5.6012,-5.6012,-5.5935,-5.5103,-5.3498,-5.344,-5.2531,-5.0898,-5.0898,-5.0898,0.0,0.0,0.0,0.0,-5.0898,-5.0898,-5.0898,-5.0898,-5.0893,-5.0899,-5.0899,-5.0821,-5.0701,-5.0701,-5.0692,-5.0693,-5.0693,-5.0712,-5.0712,-5.0712,-5.0712,-5.0712,-5.0712,-5.0712,-5.0712,-5.0712,-5.0712,-5.0712,-5.0712,-5.0712,-5.0712,-5.0712,-5.0712,-5.0712,-5.0712,-5.0712,-5.0712,-5.0712,-5.0712,-5.0712,-5.0712,-5.0712,-5.0712,-5.0712,-5.0712,-5.0712,-5.0712,-5.0712,-5.0712,-5.0712,-5.0712,-5.0712,-5.0712,-5.0712,-5.0712,-5.0712,-5.0712,-5.0712,-5.0712,-5.0712,-5.0712,-5.0712,-5.0712,-5.0712,-5.0683,-5.0369,-5.0249,-4.9616,0.0,-5.1394,-5.1394,-5.1394,-5.1394,0.0,0.0,0.0,0.0,0.0,0.0,0.0,0.0,0.0,0.0,0.0,0.0,0.0,0.0,0.0,0.0,0.0,0.0,0.0,0.0,0.0,0.0,0.0,0.0,0.0,-5.6012,-5.6012,-5.6012,-5.6012,-5.6012,-5.6012,-5.5393,-5.4542,-5.3478,-5.2821,-5.1931,-5.0898,-5.0898,-5.0898,0.0,0.0,0.0,-5.0898,-5.0898,-5.0898,-5.0898,-5.0898,-5.0893,-5.0899,-5.0899,-5.0846,-5.0775,-5.071,-5.0692,-5.0692,-5.0702,-5.0712,-5.0712,-5.0712,-5.0712,-5.0712,-5.0712,-5.0712,-5.0712,-5.0712,-5.0712,-5.0712,-5.0712,-5.0712,-5.0712,-5.0712,-5.0712,-5.0712,-5.0712,-5.0712,-5.0712,-5.0712,-5.0712,-5.0712,-5.0712,-5.0712,-5.0712,-5.0712,-5.0712,-5.0712,-5.0712,-5.0712,-5.0712,-5.0712,-5.0712,-5.0712,-5.0712,-5.0712,-5.0712,-5.0712,-5.0712,-5.0712,-5.0712,-5.0712,-5.0712,-5.0712,-5.0712,-5.0712,-5.0712,-5.0614,-5.0575,-5.036,-5.1043,-5.1394,-5.1394,-5.1394,-5.1394,-5.1394,0.0,0.0,0.0,0.0,0.0,0.0,0.0,0.0,0.0,0.0,0.0,0.0,0.0,0.0,0.0,0.0,0.0,0.0,0.0,0.0,0.0,0.0,0.0,0.0,-5.6012,-5.6012,-5.6012,-5.6012,-5.6012,-5.6012,-5.52,-5.4368,-5.3478,-5.2616,-5.1738,-5.0898,-5.0898,-5.0898,0.0,0.0,0.0,-5.0898,-5.0898,-5.0898,-5.0898,-5.0898,-5.0909,-5.0905,-5.0905,-5.088,-5.0838,-5.0775,-5.073,-5.0702,-5.0702,-5.0712,-5.0712,-5.0712,-5.0712,-5.0712,-5.0712,-5.0712,-5.0712,-5.0712,-5.0712,-5.0712,-5.0712,-5.0712,-5.0712,-5.0712,-5.0712,-5.0712,-5.0712,-5.0712,-5.0712,-5.0712,-5.0712,-5.0712,-5.0712,-5.0712,-5.0712,-5.0712,-5.0712,-5.0712,-5.0712,-5.0712,-5.0712,-5.0712,-5.0712,-5.0712,-5.0712,-5.0712,-5.0712,-5.0712,-5.0712,-5.0712,-5.0712,-5.0712,-5.0712,-5.0712,-5.0712,-5.0712,-5.0712,-5.0712,-5.0712,-5.077,-5.1199,-5.1238,-5.1375,-5.1394,-5.1394,-5.1394,0.0,0.0,0.0,0.0,0.0,0.0,0.0,0.0,0.0,0.0,0.0,0.0,0.0,0.0,0.0,0.0,0.0,0.0,0.0,0.0,0.0,0.0,0.0,0.0,-5.5877,-5.5818,-5.5818,-5.5702,-5.5625,-5.5625,-5.4948,-5.4155,-5.3285,-5.2414,-5.1602,-5.0898,-5.0898,-5.0898,-5.0898,0.0,0.0,-5.0898,-5.0898,-5.0898,-5.0898,-5.0898,-5.0898,-5.0898,-5.0898,-5.0901,-5.088,-5.0819,-5.0758,-5.0702,-5.0693,-5.0712,-5.0712,-5.0712,-5.0712,-5.0712,-5.0712,-5.0712,-5.0712,-5.0712,-5.0712,-5.0712,-5.0712,-5.0712,-5.0712,-5.0712,-5.0712,-5.0712,-5.0712,-5.0712,-5.0712,-5.0712,-5.0712,-5.0712,-5.0712,-5.0712,-5.0712,-5.0712,-5.0712,-5.0712,-5.0712,-5.0712,-5.0712,-5.0712,-5.0712,-5.0712,-5.0712,-5.0712,-5.0712,-5.0712,-5.0712,-5.0712,-5.0712,-5.0712,-5.0712,-5.0712,-5.0712,-5.0712,-5.0712,-5.0712,-5.0712,-5.0026,-5.0299,-5.0475,-5.1219,-5.1394,-5.1394,0.0,0.0,0.0,0.0,0.0,0.0,0.0,0.0,0.0,0.0,0.0,0.0,0.0,0.0,0.0,0.0,0.0,0.0,0.0,0.0,0.0,0.0,0.0,0.0,0.0,-5.5354,-5.4987,-5.4987,-5.4271,-5.3884,-5.3884,-5.3749,-5.3265,-5.2384,-5.1525,-5.1033,-5.0898,-5.0898,-5.0898,-5.0898,0.0,-5.0898,-5.0898,-5.0898,-5.0898,-5.0898,-5.0898,-5.0898,-5.0898,-5.0898,-5.0898,-5.0882,-5.0827,-5.0757,-5.0702,-5.0702,-5.0712,-5.0712,-5.0712,-5.0712,-5.0712,-5.0712,-5.0712,-5.0712,-5.0712,-5.0712,-5.0712,-5.0712,-5.0712,-5.0712,-5.0712,-5.0712,-5.0712,-5.0712,-5.0712,-5.0712,-5.0712,-5.0712,-5.0712,-5.0712,-5.0712,-5.0712,-5.0712,-5.0712,-5.0712,-5.0712,-5.0712,-5.0712,-5.0712,-5.0712,-5.0712,-5.0712,-5.0712,-5.0712,-5.0712,-5.0712,-5.0712,-5.0712,-5.0712,-5.0712,-5.0712,-5.0712,-5.0712,-5.0712,-5.0712,-5.0712,-4.9753,-5.0104,-5.0319,-5.118,-5.0692,-5.0008,0.0,0.0,0.0,0.0,0.0,0.0,0.0,0.0,0.0,0.0,0.0,0.0,0.0,0.0,0.0,0.0,0.0,0.0,0.0,0.0,0.0,0.0,0.0,0.0,0.0,0.0,-5.4097,-5.4097,-5.371,-5.3265,-5.2801,-5.2801,-5.2597,-5.219,-5.1331,-5.0898,-5.0898,-5.0898,-5.0898,-5.0898,0.0,-5.0898,-5.0898,-5.0898,-5.0898,-5.0898,-5.0898,-5.0898,-5.0898,-5.0898,-5.0909,-5.0905,-5.0863,-5.0784,-5.0692,-5.0692,-5.0693,-5.0712,-5.0712,-5.0712,-5.0712,-5.0712,-5.0712,-5.0712,-5.0712,-5.0712,-5.0712,-5.0712,-5.0712,-5.0712,-5.0712,-5.0712,-5.0712,-5.0712,-5.0712,-5.0712,-5.0712,-5.0712,-5.0712,-5.0712,-5.0712,-5.0712,-5.0712,-5.0712,-5.0712,-5.0712,-5.0712,-5.0712,-5.0712,-5.0712,-5.0712,-5.0712,-5.0712,-5.0712,-5.0712,-5.0712,-5.0712,-5.0712,-5.0712,-5.0712,-5.0712,-5.0712,-5.0712,-5.0712,-5.0712,-5.0712,-4.9167,-4.9519,-4.9675,-5.034,0.0,0.0,0.0,0.0,0.0,0.0,0.0,0.0,0.0,0.0,0.0,0.0,0.0,0.0,0.0,0.0,0.0,0.0,0.0,0.0,0.0,0.0,0.0,0.0,0.0,0.0,0.0,0.0,-5.3188,-5.3188,-5.2995,-5.2569,-5.1892,-5.1892,-5.1892,-5.1892,-5.1215,-5.0898,-5.0898,-5.0898,-5.0898,-5.0898,-5.0898,-5.0898,-5.0898,-5.0898,-5.0898,-5.0898,-5.0898,-5.0898,-5.0898,-5.0898,-5.0901,-5.0897,-5.0908,-5.0829,-5.072,-5.0701,-5.0712,-5.0712,-5.0712,-5.0712,-5.0712,-5.0712,-5.0712,-5.0712,-5.0712,-5.0712,-5.0712,-5.0712,-5.0712,-5.0712,-5.0712,-5.0712,-5.0712,-5.0712,-5.0712,-5.0712,-5.0712,-5.0712,-5.0712,-5.0712,-5.0712,-5.0712,-5.0712,-5.0712,-5.0712,-5.0712,-5.0712,-5.0712,-5.0712,-5.0712,-5.0712,-5.0712,-5.0712,-5.0712,-5.0712,-5.0712,-5.0712,-5.0712,-5.0712,-5.0712,-5.0712,-5.0712,-5.0712,-5.0712,-5.0712,-5.0712,-4.7742,-4.7781,-4.7781,-4.7859,0.0,0.0,0.0,0.0,0.0,0.0,0.0,0.0,0.0,0.0,0.0,0.0,0.0,0.0,0.0,0.0,0.0,0.0,0.0,0.0,0.0,0.0,0.0,0.0,0.0,0.0,0.0,0.0,-5.2287,-5.2287,-5.1505,-5.1053,-5.0995,-5.0995,-5.0995,-5.0995,-5.0937,-5.0898,-5.0898,-5.0898,-5.0898,-5.0898,-5.0898,-5.0898,-5.0898,-5.0898,-5.0898,-5.0898,-5.0898,-5.0898,-5.0898,-5.0898,-5.0898,-5.089,-5.0897,-5.0855,-5.0784,-5.072,-5.0712,-5.0712,-5.0712,-5.0712,-5.0712,-5.0712,-5.0712,-5.0712,-5.0712,-5.0712,-5.0712,-5.0712,-5.0712,-5.0712,-5.0712,-5.0712,-5.0712,-5.0712,-5.0712,-5.0712,-5.0712,-5.0712,-5.0712,-5.0712,-5.0712,-5.0712,-5.0712,-5.0712,-5.0712,-5.0712,-5.0712,-5.0712,-5.0712,-5.0712,-5.0712,-5.0712,-5.0712,-5.0712,-5.0712,-5.0712,-5.0712,-5.0712,-5.0712,-5.0712,-5.0712,-5.0712,-5.0712,-5.0712,-5.0712,-5.0712,-4.745,-4.7978,-4.8486,-4.9011,0.0,0.0,0.0,0.0,0.0,0.0,0.0,0.0,0.0,0.0,0.0,0.0,0.0,0.0,0.0,0.0,0.0,0.0,0.0,0.0,0.0,0.0,0.0,0.0,0.0,0.0,0.0,0.0,-5.1389,-5.1389,-5.1072,-5.0898,-5.0898,-5.0898,-5.0898,-5.0898,-5.0898,-5.0898,-5.0898,-5.0898,-5.0898,-5.0898,-5.0898,-5.0898,-5.0898,-5.0898,-5.0898,-5.0898,-5.0898,-5.0898,-5.0898,-5.0898,-5.0898,-5.0898,-5.0901,-5.0869,-5.0846,-5.0784,-5.0739,-5.0712,-5.0702,-5.0712,-5.0712,-5.0712,-5.0712,-5.0712,-5.0712,-5.0712,-5.0712,-5.0712,-5.0712,-5.0712,-5.0712,-5.0712,-5.0712,-5.0712,-5.0712,-5.0712,-5.0712,-5.0712,-5.0712,-5.0712,-5.0712,-5.0712,-5.0712,-5.0712,-5.0712,-5.0712,-5.0712,-5.0712,-5.0712,-5.0712,-5.0712,-5.0712,-5.0712,-5.0712,-5.0712,-5.0712,-5.0712,-5.0712,-5.0712,-5.0712,-5.0712,-5.0712,-5.0712,-5.0712,-5.0712,-5.0712,-4.7022,-4.7783,-4.8564,0.0,0.0,0.0,0.0,0.0,0.0,0.0,0.0,0.0,0.0,0.0,0.0,0.0,0.0,0.0,0.0,0.0,0.0,0.0,0.0,0.0,0.0,0.0,0.0,0.0,0.0,0.0,0.0,0.0,-5.0898,-5.0898,-5.0898,-5.0898,-5.0898,-5.0898,-5.0898,-5.0898,-5.0898,-5.0898,-5.0898,-5.0898,-5.0898,-5.0898,-5.0898,-5.0898,-5.0898,-5.0898,-5.0898,-5.0898,-5.0898,-5.0898,-5.0898,-5.0898,-5.0898,-5.0898,-5.0898,-5.0893,-5.0899,-5.0846,-5.0775,-5.0692,-5.0702,-5.0702,-5.0712,-5.0712,-5.0712,-5.0712,-5.0712,-5.0712,-5.0712,-5.0712,-5.0712,-5.0712,-5.0712,-5.0712,-5.0712,-5.0712,-5.0712,-5.0712,-5.0712,-5.0712,-5.0712,-5.0712,-5.0712,-5.0712,-5.0712,-5.0712,-5.0712,-5.0712,-5.0712,-5.0712,-5.0712,-5.0712,-5.0712,-5.0712,-5.0712,-5.0712,-5.0712,-5.0712,-5.0712,-5.0712,-5.0712,-5.0712,-5.0712,-5.0712,-5.0712,-5.0712,-5.0712,-5.0712,-4.63,-4.6944,-4.7625,0.0,0.0,0.0,0.0,0.0,0.0,0.0,0.0,0.0,0.0,0.0,0.0,0.0,0.0,0.0,0.0,0.0,0.0,0.0,0.0,0.0,0.0,0.0,0.0,0.0,0.0,0.0,0.0,0.0,-5.0898,-5.0898,-5.0898,-5.0898,-5.0898,-5.0898,-5.0898,-5.0898,-5.0898,-5.0898,-5.0898,-5.0898,-5.0898,-5.0898,-5.0898,-5.0898,-5.0898,-5.0898,-5.0898,-5.0898,-5.0898,-5.0898,-5.0898,-5.0898,-5.0898,-5.0898,-5.0898,-5.0893,-5.0899,-5.0899,-5.0821,-5.0701,-5.0701,-5.0702,-5.0712,-5.0712,-5.0712,-5.0712,-5.0712,-5.0712,-5.0712,-5.0712,-5.0712,-5.0712,-5.0712,-5.0712,-5.0712,-5.0712,-5.0712,-5.0712,-5.0712,-5.0712,-5.0712,-5.0712,-5.0712,-5.0712,-5.0712,-5.0712,-5.0712,-5.0712,-5.0712,-5.0712,-5.0712,-5.0712,-5.0712,-5.0712,-5.0712,-5.0712,-5.0712,-5.0712,-5.0712,-5.0712,-5.0712,-5.0712,-5.0712,-5.0712,-5.0712,-5.0712,-5.0712,-5.0712,-4.7217,-4.825,0.0,0.0,0.0,0.0,0.0,0.0,0.0,0.0,0.0,0.0,0.0,0.0,0.0,0.0,0.0,0.0,0.0,0.0,0.0,0.0,0.0,0.0,0.0,0.0,0.0,0.0,0.0,0.0,0.0,0.0,-5.0898,-5.0898,-5.0898,-5.0898,-5.0898,-5.0898,-5.0898,-5.0898,-5.0898,-5.0898,-5.0898,-5.0898,-5.0898,-5.0898,-5.0898,-5.0898,-5.0898,-5.0898,-5.0898,-5.0898,-5.0898,-5.0898,-5.0898,-5.0898,-5.0898,-5.0898,-5.0898,-5.089,-5.0901,-5.0908,-5.0846,-5.0766,-5.071,-5.0702,-5.0712,-5.0712,-5.0712,-5.0712,-5.0712,-5.0712,-5.0712,-5.0712,-5.0712,-5.0712,-5.0712,-5.0712,-5.0712,-5.0712,-5.0712,-5.0712,-5.0712,-5.0712,-5.0712,-5.0712,-5.0712,-5.0712,-5.0712,-5.0712,-5.0712,-5.0712,-5.0712,-5.0712,-5.0712,-5.0712,-5.0712,-5.0712,-5.0712,-5.0712,-5.0712,-5.0712,-5.0712,-5.0712,-5.0712,-5.0712,-5.0712,-5.0712,-5.0712,-5.0712,-5.0712,-5.0712,-4.7606,0.0,0.0,0.0,0.0,0.0,0.0,0.0,0.0,0.0,0.0,0.0,0.0,0.0,0.0,0.0,0.0,0.0,0.0,0.0,0.0,0.0,0.0,0.0,0.0,0.0,0.0,0.0,0.0,0.0,0.0,0.0,-5.0898,-5.0898,-5.0898,-5.0898,-5.0898,-5.0898,-5.0898,-5.0898,-5.0898,-5.0898,-5.0898,-5.0898,-5.0898,-5.0898,-5.0898,-5.0898,-5.0898,-5.0898,-5.0898,-5.0898,-5.0898,-5.0898,-5.0898,-5.0898,-5.0898,-5.0898,-5.0898,-5.0898,-5.0898,-5.0893,-5.088,-5.0838,-5.0766,-5.072,-5.0693,-5.0693,-5.0712,-5.0712,-5.0712,-5.0712,-5.0712,-5.0712,-5.0712,-5.0712,-5.0712,-5.0712,-5.0712,-5.0712,-5.0712,-5.0712,-5.0712,-5.0712,-5.0712,-5.0712,-5.0712,-5.0712,-5.0712,-5.0712,-5.0712,-5.0712,-5.0712,-5.0712,-5.0712,-5.0712,-5.0712,-5.0712,-5.0712,-5.0712,-5.0712,-5.0712,-5.0712,-5.0712,-5.0712,-5.0712,-5.0712,-5.0712,-5.0712,-5.0712,-5.0712,-5.0712,0.0,0.0,0.0,0.0,0.0,0.0,0.0,0.0,0.0,0.0,0.0,0.0,0.0,0.0,0.0,0.0,0.0,0.0,0.0,0.0,0.0,0.0,0.0,0.0,0.0,0.0,0.0,0.0,0.0,0.0,0.0,0.0,-5.0906,-5.0921,-5.0906,-5.0898,-5.0898,-5.0898,-5.0898,-5.0898,-5.0898,-5.0898,-5.0898,-5.0898,-5.0898,-5.0898,-5.0898,-5.0898,-5.0898,-5.0898,-5.0898,-5.0898,-5.0898,-5.0898,-5.0898,-5.0898,-5.0898,-5.0898,-5.0898,-5.0898,-5.0898,-5.0898,-5.0893,-5.0891,-5.081,-5.0747,-5.0711,-5.0702,-5.0712,-5.0712,-5.0712,-5.0712,-5.0712,-5.0712,-5.0712,-5.0712,-5.0712,-5.0712,-5.0712,-5.0712,-5.0712,-5.0712,-5.0712,-5.0712,-5.0712,-5.0712,-5.0712,-5.0712,-5.0712,-5.0712,-5.0712,-5.0712,-5.0712,-5.0712,-5.0712,-5.0712,-5.0712,-5.0712,-5.0712,-5.0712,-5.0712,-5.0712,-5.0712,-5.0712,-5.0712,-5.0712,-5.0712,-5.0712,-5.0712,-5.0712,-5.0712,-5.0712,0.0,0.0,0.0,0.0,0.0,0.0,0.0,0.0,0.0,0.0,0.0,0.0,0.0,0.0,0.0,0.0,0.0,0.0,0.0,0.0,0.0,0.0,0.0,0.0,0.0,0.0,0.0,0.0,0.0,0.0,0.0,-5.0966,-5.0959,-5.1056,-5.0947,-5.0898,-5.0898,-5.0898,-5.0898,0.0,-5.0898,-5.0898,-5.0898,-5.0898,-5.0898,-5.0898,-5.0898,-5.0898,-5.0898,-5.0898,-5.0898,-5.0898,-5.0898,-5.0898,-5.0898,-5.0898,-5.0898,-5.0898,-5.0898,-5.0898,-5.0898,-5.0898,-5.0893,-5.0891,-5.081,-5.0747,-5.0711,-5.0702,-5.0712,-5.0712,-5.0712,-5.0712,-5.0712,-5.0712,-5.0712,-5.0712,-5.0712,-5.0712,-5.0712,-5.0712,-5.0712,-5.0712,-5.0712,-5.0712,-5.0712,-5.0712,-5.0712,-5.0712,-5.0712,-5.0712,-5.0712,-5.0712,-5.0712,-5.0712,-5.0712,-5.0712,-5.0712,-5.0712,-5.0712,-5.0712,-5.0712,-5.0712,-5.0712,-5.0712,-5.0712,-5.0712,-5.0712,-5.0712,-5.0712,-5.0712,-5.0712,-5.0712,0.0,0.0,0.0,0.0,0.0,0.0,0.0,0.0,0.0,0.0,0.0,0.0,0.0,0.0,0.0,0.0,0.0,0.0,0.0,0.0,0.0,0.0,0.0,0.0,0.0,0.0,0.0,0.0,0.0,0.0,0.0,-5.1049,-5.103,-5.1099,-5.106,-5.0992,-5.0898,-5.1011,-5.1011,-5.0898,-5.0981,-5.0954,-5.0898,-5.0898,-5.0898,-5.0898,-5.0898,-5.0898,-5.0898,-5.0898,-5.0898,-5.0898,-5.0898,-5.0898,-5.0898,-5.0898,-5.0898,-5.0898,-5.0898,-5.0898,-5.0898,-5.0898,-5.0909,-5.0885,-5.0863,-5.0793,-5.0748,-5.0721,-5.0702,-5.0712,-5.0712,-5.0712,-5.0712,-5.0712,-5.0712,-5.0712,-5.0712,-5.0712,-5.0712,-5.0712,-5.0712,-5.0712,-5.0712,-5.0712,-5.0712,-5.0712,-5.0712,-5.0712,-5.0712,-5.0712,-5.0712,-5.0712,-5.0712,-5.0712,-5.0712,-5.0712,-5.0712,-5.0712,-5.0712,-5.0712,-5.0712,-5.0712,-5.0712,-5.0712,-5.0712,-5.0712,-5.0712,-5.0712,-5.0712,-5.0712,-5.0712,-5.0712,0.0,0.0,0.0,0.0,0.0,0.0,0.0,0.0,0.0,0.0,0.0,0.0,0.0,0.0,0.0,0.0,0.0,0.0,0.0,0.0,0.0,0.0,0.0,0.0,0.0,0.0,0.0,0.0,0.0,0.0,-5.1218,-5.1157,-5.1125,-5.1122,-5.117,-5.1123,-5.0949,-5.1123,-5.1123,-5.0942,-5.1043,-5.103,-5.0898,-5.0898,-5.0898,-5.0898,-5.0898,-5.0898,-5.0898,-5.0898,-5.0898,-5.0898,-5.0898,-5.0898,-5.0898,-5.0898,-5.0898,-5.0898,-5.0898,-5.0898,-5.0898,-5.0898,-5.0898,-5.089,-5.0897,-5.0855,-5.0793,-5.071,-5.0702,-5.0712,-5.0712,-5.0712,-5.0712,-5.0712,-5.0712,-5.0712,-5.0712,-5.0712,-5.0712,-5.0712,-5.0712,-5.0712,-5.0712,-5.0712,-5.0712,-5.0712,-5.0712,-5.0712,-5.0712,-5.0712,-5.0712,-5.0712,-5.0712,-5.0712,-5.0712,-5.0712,-5.0712,-5.0712,-5.0712,-5.0712,-5.0712,-5.0712,-5.0712,-5.0712,-5.0712,-5.0712,-5.0712,-5.0712,-5.0712,-5.0712,-5.0712,-5.0712,0.0,0.0,0.0,0.0,0.0,0.0,0.0,0.0,0.0,0.0,0.0,0.0,0.0,0.0,0.0,0.0,0.0,0.0,0.0,0.0,0.0,0.0,0.0,0.0,0.0,0.0,0.0,0.0,0.0,0.0,-5.1284,-5.1229,-5.1218,-5.1277,-5.1232,-5.1191,-5.1165,-5.1191,-5.1191,-5.1165,-5.1125,-5.103,-5.0898,-5.0898,-5.0898,-5.0898,-5.0898,-5.0898,-5.0898,-5.0898,-5.0898,-5.0898,-5.0898,-5.0898,-5.0898,-5.0898,-5.0898,-5.0898,-5.0898,-5.0898,-5.0898,-5.0898,-5.0898,-5.089,-5.0897,-5.0855,-5.0793,-5.071,-5.0702,-5.0712,-5.0712,-5.0712,-5.0712,-5.0712,-5.0712,-5.0712,-5.0712,-5.0712,-5.0712,-5.0712,-5.0712,-5.0712,-5.0712,-5.0712,-5.0712,-5.0712,-5.0712,-5.0712,-5.0712,-5.0712,-5.0712,-5.0712,-5.0712,-5.0712,-5.0712,-5.0712,-5.0712,-5.0712,-5.0712,-5.0712,-5.0712,-5.0712,-5.0712,-5.0712,-5.0712,-5.0712,-5.0712,-5.0712,-5.0712,-5.0712,-5.0712,-5.0712,0.0,0.0,0.0,0.0,0.0,0.0,0.0,0.0,0.0,0.0,0.0,0.0,0.0,0.0,0.0,0.0,0.0,0.0,0.0,0.0,0.0,0.0,0.0,0.0,0.0,0.0,0.0,0.0,0.0,-5.1286,-5.1341,-5.1291,-5.1274,-5.1297,-5.1301,-5.1279,-5.1203,-5.1279,-5.1293,-5.1241,-5.1152,-5.1069,-5.101,-5.0925,-5.0898,-5.0898,-5.0898,-5.0898,-5.0898,-5.0898,-5.0898,-5.0898,-5.0898,-5.0898,-5.0898,-5.0898,-5.0898,-5.0898,-5.0898,-5.0898,-5.0898,-5.0898,-5.0898,-5.0898,-5.0901,-5.0852,-5.0793,-5.0756,-5.073,-5.0712,-5.0712,-5.0712,-5.0712,-5.0712,-5.0712,-5.0712,-5.0712,-5.0712,-5.0712,-5.0712,-5.0712,-5.0712,-5.0712,-5.0712,-5.0712,-5.0712,-5.0712,-5.0712,-5.0712,-5.0712,-5.0712,-5.0712,-5.0712,-5.0712,-5.0712,-5.0712,-5.0712,-5.0712,-5.0712,-5.0712,-5.0712,-5.0712,-5.0712,-5.0712,-5.0712,-5.0712,-5.0712,-5.0712,-5.0712,-5.0712,-5.0712,-5.0712,0.0,0.0,0.0,0.0,0.0,0.0,0.0,0.0,0.0,0.0,0.0,0.0,0.0,0.0,0.0,0.0,0.0,0.0,0.0,0.0,0.0,0.0,0.0,0.0,0.0,0.0,0.0,0.0,0.0,-5.1358,-5.1406,-5.1341,-5.133,-5.133,-5.1365,-5.1341,-5.1258,-5.1359,-5.1363,-5.1295,-5.1178,-5.1114,-5.1099,-5.0954,-5.0898,-5.0898,-5.0898,-5.0898,-5.0898,-5.0898,-5.0898,-5.0898,-5.0898,-5.0898,-5.0898,-5.0898,-5.0898,-5.0898,-5.0898,-5.0898,-5.0898,-5.0898,-5.0898,-5.0898,-5.0898,-5.0841,-5.0801,-5.0801,-5.0749,-5.0712,-5.0712,-5.0712,-5.0712,-5.0712,-5.0712,-5.0712,-5.0712,-5.0712,-5.0712,-5.0712,-5.0712,-5.0712,-5.0712,-5.0712,-5.0712,-5.0712,-5.0712,-5.0712,-5.0712,-5.0712,-5.0712,-5.0712,-5.0712,-5.0712,-5.0712,-5.0712,-5.0712,-5.0712,-5.0712,-5.0712,-5.0712,-5.0712,-5.0712,-5.0712,-5.0712,-5.0712,-5.0712,-5.0712,-5.0712,-5.0712,-5.0712,-5.0712,0.0,0.0,0.0,0.0,0.0,0.0,0.0,0.0,0.0,0.0,0.0,0.0,0.0,0.0,0.0,0.0,0.0,0.0,0.0,0.0,0.0,0.0,0.0,0.0,0.0,0.0,0.0,0.0,0.0,-5.1406,-5.1406,-5.1406,-5.1386,-5.1386,-5.1406,-5.1406,-5.1386,-5.1406,-5.1363,-5.1297,-5.1236,-5.1167,-5.1099,-5.0954,-5.0898,-5.0898,-5.0898,-5.0898,-5.0898,-5.0898,-5.0898,-5.0898,-5.0898,-5.0898,-5.0898,-5.0898,-5.0898,-5.0898,-5.0898,-5.0898,-5.0898,-5.0898,-5.0898,-5.0898,-5.0898,-5.0841,-5.0801,-5.0801,-5.0749,-5.0712,-5.0712,-5.0712,-5.0712,-5.0712,-5.0712,-5.0712,-5.0712,-5.0712,-5.0712,-5.0712,-5.0712,-5.0712,-5.0712,-5.0712,-5.0712,-5.0712,-5.0712,-5.0712,-5.0712,-5.0712,-5.0712,-5.0712,-5.0712,-5.0712,-5.0712,-5.0712,-5.0712,-5.0712,-5.0712,-5.0712,-5.0712,-5.0712,-5.0712,-5.0712,-5.0712,-5.0712,-5.0712,-5.0712,-5.0712,-5.0712,-5.0712,-5.0712,0.0,0.0,0.0,0.0,0.0,0.0,0.0,0.0,0.0,0.0,0.0,0.0,0.0,0.0,0.0,0.0,0.0,0.0,0.0,0.0,0.0,0.0,0.0,0.0,0.0,0.0,0.0,0.0,0.0,0.0,-5.1406,-5.1406,-5.1406,-5.1406,-5.1406,-5.1406,-5.1406,-5.1406,-5.1386,-5.1363,-5.1295,-5.1236,-5.1167,-5.1074,-5.0976,-5.0898,-5.0898,-5.0898,-5.0898,-5.0898,-5.0898,-5.0898,-5.0898,-5.0898,-5.0898,-5.0898,-5.0898,-5.0898,-5.0898,-5.0898,-5.0898,-5.0898,-5.0898,-5.0898,-5.0898,-5.0841,-5.0801,-5.0801,-5.0749,-5.0712,-5.0712,-5.0712,-5.0712,-5.0712,-5.0712,-5.0712,-5.0712,-5.0712,-5.0712,-5.0712,-5.0712,-5.0712,-5.0712,-5.0712,-5.0712,-5.0712,-5.0712,-5.0712,-5.0712,-5.0712,-5.0712,-5.0712,-5.0712,-5.0712,-5.0712,-5.0712,-5.0712,-5.0712,-5.0712,-5.0712,-5.0712,-5.0712,-5.0712,-5.0712,-5.0712,-5.0712,-5.0712,-5.0712,-5.0712,-5.0712,-5.0712,-5.0712,0.0,0.0,0.0,0.0,0.0,0.0,0.0,0.0,0.0,0.0,0.0,0.0,0.0,0.0,0.0,0.0,0.0,0.0,0.0,0.0,0.0,0.0,0.0,0.0,0.0,0.0,0.0,0.0,0.0,0.0,-5.1406,-5.1406,-5.1406,-5.1406,-5.1406,-5.1406,-5.1406,-5.1406,-5.1406,-5.1406,-5.1333,-5.1252,-5.1199,-5.1136,-5.103,-5.0898,-5.0898,-5.0898,-5.0898,-5.0898,-5.0898,-5.0898,-5.0898,-5.0898,-5.0898,-5.0898,-5.0898,-5.0898,-5.0898,-5.0898,-5.0898,-5.0898,-5.0898,-5.0898,-5.0898,-5.0877,-5.0838,-5.0801,-5.0758,-5.0712,-5.0693,-5.0712,-5.0712,-5.0712,-5.0712,-5.0712,-5.0712,-5.0712,-5.0712,-5.0712,-5.0712,-5.0712,-5.0712,-5.0712,-5.0712,-5.0712,-5.0712,-5.0712,-5.0712,-5.0712,-5.0712,-5.0712,-5.0712,-5.0712,-5.0712,-5.0712,-5.0712,-5.0712,-5.0712,-5.0712,-5.0712,-5.0712,-5.0712,-5.0712,-5.0712,-5.0712,-5.0712,-5.0712,-5.0712,-5.0712,-5.0712,-5.0712,0.0,0.0,0.0,0.0,0.0,0.0,0.0,0.0,0.0,0.0,0.0,0.0,0.0,0.0,0.0,0.0,0.0,0.0,0.0,0.0,0.0,0.0,0.0,0.0,0.0,0.0,0.0,0.0,0.0,-5.1406,-5.1406,-5.1406,-5.1406,-5.1406,-5.1406,-5.1406,-5.1406,-5.1406,-5.1406,-5.1406,-5.1334,-5.1272,-5.1203,-5.1122,-5.1037,-5.0906,-5.0898,-5.0898,-5.0898,-5.0898,-5.0898,-5.0898,-5.0898,-5.0898,-5.0898,-5.0898,-5.0898,-5.0898,-5.0898,-5.0898,-5.0898,-5.0898,-5.0898,-5.0898,-5.0898,-5.0893,-5.0891,-5.081,-5.0738,-5.0711,-5.0702,-5.0712,-5.0712,-5.0712,-5.0712,-5.0712,-5.0712,-5.0712,-5.0712,-5.0712,-5.0712,-5.0712,-5.0712,-5.0712,-5.0712,-5.0712,-5.0712,-5.0712,-5.0712,-5.0712,-5.0712,-5.0712,-5.0712,-5.0712,-5.0712,-5.0712,-5.0712,-5.0712,-5.0712,-5.0712,-5.0712,-5.0712,-5.0712,-5.0712,-5.0712,-5.0712,-5.0712,-5.0712,-5.0712,-5.0712,-5.0712,-5.0712,-4.63,0.0,0.0,0.0,0.0,0.0,0.0,0.0,0.0,0.0,0.0,0.0,0.0,0.0,0.0,0.0,0.0,0.0,0.0,0.0,0.0,0.0,0.0,0.0,0.0,0.0,0.0,0.0,-5.1406,-5.1406,-5.1406,-5.1406,-5.1406,-5.1406,-5.1406,-5.1406,-5.1406,-5.1406,-5.1406,-5.1406,-5.1386,-5.1335,-5.1274,-5.1207,-5.1127,-5.1043,-5.0932,-5.0898,-5.0898,-5.0898,-5.0898,-5.0898,-5.0898,-5.0898,-5.0898,-5.0898,-5.0898,-5.0898,-5.0898,-5.0898,-5.0898,-5.0898,-5.0898,-5.0898,-5.0898,-5.0893,-5.0891,-5.081,-5.0738,-5.0711,-5.0702,-5.0712,-5.0712,-5.0712,-5.0712,-5.0712,-5.0712,-5.0712,-5.0712,-5.0712,-5.0712,-5.0712,-5.0712,-5.0712,-5.0712,-5.0712,-5.0712,-5.0712,-5.0712,-5.0712,-5.0712,-5.0712,-5.0712,-5.0712,-5.0712,-5.0712,-5.0712,-5.0712,-5.0712,-5.0712,-5.0712,-5.0712,-5.0712,-5.0712,-5.0712,-5.0712,-5.0712,-5.0712,-5.0712,-5.0712,-5.0712,-5.101,0.0,0.0,0.0,0.0,0.0,0.0,-4.6422,-4.7339,-4.8317,0.0,0.0,0.0,0.0,0.0,0.0,0.0,0.0,0.0,0.0,0.0,0.0,0.0,0.0,0.0,0.0,0.0,0.0,-5.1405,-5.1406,-5.1406,-5.1406,-5.1406,-5.1406,-5.1406,-5.1406,-5.1406,-5.1406,-5.1406,-5.1406,-5.1406,-5.1406,-5.1363,-5.1295,-5.1266,-5.1187,-5.1099,-5.1017,-5.0947,-5.0898,-5.0898,-5.0898,-5.0898,-5.0898,-5.0898,-5.0898,-5.0898,-5.0898,-5.0898,-5.0898,-5.0898,-5.0898,-5.0898,-5.0898,-5.0898,-5.0898,-5.0893,-5.0891,-5.081,-5.0748,-5.0702,-5.0693,-5.0712,-5.0712,-5.0712,-5.0712,-5.0712,-5.0712,-5.0712,-5.0712,-5.0712,-5.0712,-5.0712,-5.0712,-5.0712,-5.0712,-5.0712,-5.0712,-5.0712,-5.0712,-5.0712,-5.0712,-5.0712,-5.0712,-5.0712,-5.0712,-5.0712,-5.0712,-5.0712,-5.0712,-5.0712,-5.0712,-5.0712,-5.0712,-5.0712,-5.0712,-5.0712,-5.0712,-5.0712,-5.0712,-5.0712,-5.1029,-5.1452,0.0,0.0,0.0,0.0,0.0,0.0,-4.629,-4.6897,-4.7484,0.0,0.0,0.0,0.0,0.0,0.0,0.0,0.0,0.0,0.0,0.0,0.0,0.0,0.0,0.0,0.0,-5.1398,-5.1402,-5.1406,-5.1406,-5.1406,-5.1406,-5.1406,-5.1406,-5.1406,-5.1406,-5.1406,-5.1406,-5.1406,-5.1406,-5.1406,-5.1406,-5.1364,-5.1302,-5.1299,-5.1223,-5.112,-5.1117,-5.1037,-5.0929,-5.0906,-5.0898,-5.0898,-5.0898,-5.0898,-5.0898,-5.0898,-5.0898,-5.0898,-5.0898,-5.0898,-5.0898,-5.0898,-5.0898,-5.0898,-5.0898,-5.0893,-5.0872,-5.0801,-5.0749,-5.0712,-5.0712,-5.0712,-5.0712,-5.0712,-5.0712,-5.0712,-5.0712,-5.0712,-5.0712,-5.0712,-5.0712,-5.0712,-5.0712,-5.0712,-5.0712,-5.0712,-5.0712,-5.0712,-5.0712,-5.0712,-5.0712,-5.0712,-5.0712,-5.0712,-5.0712,-5.0712,-5.0712,-5.0712,-5.0712,-5.0712,-5.0712,-5.0712,-5.0712,-5.0712,-5.0712,-5.0712,-5.0712,-5.0712,-5.075,-5.0837,-5.1568,-5.2,0.0,0.0,0.0,0.0,0.0,0.0,-4.6303,-4.644,-4.6754,0.0,0.0,0.0,0.0,0.0,0.0,0.0,0.0,0.0,0.0,0.0,0.0,0.0,0.0,0.0,0.0,-5.1396,-5.1401,-5.1405,-5.1406,-5.1406,-5.1406,-5.1406,-5.1406,-5.1406,-5.1406,-5.1406,-5.1406,-5.1406,-5.1406,-5.1406,-5.1406,-5.1386,-5.1385,-5.133,-5.1286,-5.1241,-5.1147,-5.1087,-5.1056,-5.0932,-5.0898,-5.0898,-5.0898,-5.0898,-5.0898,-5.0898,-5.0898,-5.0898,-5.0898,-5.0898,-5.0898,-5.0898,-5.0898,-5.0898,-5.0898,-5.0893,-5.0863,-5.0757,-5.0712,-5.0712,-5.0712,-5.0712,-5.0712,-5.0712,-5.0712,-5.0712,-5.0712,-5.0712,-5.0712,-5.0712,-5.0712,-5.0712,-5.0712,-5.0712,-5.0712,-5.0712,-5.0712,-5.0712,-5.0712,-5.0712,-5.0712,-5.0712,-5.0712,-5.0712,-5.0712,-5.0712,-5.0712,-5.0712,-5.0712,-5.0712,-5.0712,-5.0712,-5.0712,-5.0712,-5.0712,-5.0712,-5.0712,-5.0712,-5.1029,-5.1673,-5.1827,-5.2654,0.0,0.0,0.0,-4.63,0.0,0.0,0.0,-4.6306,-4.6427,0.0,0.0,0.0,0.0,0.0,0.0,0.0,0.0,0.0,0.0,0.0,0.0,0.0,0.0,0.0,0.0,-5.1399,-5.1404,-5.1406,-5.1406,-5.1406,-5.1406,-5.1406,-5.1406,-5.1406,-5.1406,-5.1406,-5.1406,-5.1406,-5.1406,-5.1406,-5.1406,-5.1406,-5.1406,-5.1363,-5.1333,-5.1293,-5.1195,-5.1136,-5.1093,-5.0966,-5.0898,-5.0898,-5.0898,-5.0898,-5.0898,-5.0898,-5.0898,-5.0898,-5.0898,-5.0898,-5.0898,-5.0898,-5.0898,-5.0898,-5.0898,-5.0877,-5.0829,-5.073,-5.0712,-5.0712,-5.0712,-5.0712,-5.0712,-5.0712,-5.0712,-5.0712,-5.0712,-5.0712,-5.0712,-5.0712,-5.0712,-5.0712,-5.0712,-5.0712,-5.0712,-5.0712,-5.0712,-5.0712,-5.0712,-5.0712,-5.0712,-5.0712,-5.0712,-5.0712,-5.0712,-5.0712,-5.0712,-5.0712,-5.0712,-5.0712,-5.0712,-5.0712,-5.0712,-5.0712,-5.0712,-5.0712,-5.0712,-5.1106,-5.151,-5.1923,-5.2799,-5.3664,0.0,0.0,0.0,0.0,0.0,-4.6305,0.0,0.0,0.0,0.0,0.0,0.0,0.0,0.0,0.0,0.0,0.0,0.0,0.0,0.0,0.0,0.0,0.0,0.0,0.0,-5.1305,-5.1406,-5.1406,-5.1406,-5.1406,-5.1406,-5.1406,-5.1406,-5.1406,-5.1406,-5.1406,-5.1406,-5.1406,-5.1406,-5.1406,-5.1406,-5.1406,-5.1406,-5.1406,-5.1365,-5.1325,-5.1255,-5.1178,-5.1109,-5.099,-5.0929,-5.0898,-5.0898,-5.0898,-5.0898,-5.0898,-5.0898,-5.0898,-5.0898,-5.0898,-5.0898,-5.0898,-5.0898,-5.0898,-5.0882,-5.0833,-5.0803,-5.0721,-5.0712,-5.0712,-5.0712,-5.0712,-5.0712,-5.0712,-5.0712,-5.0712,-5.0712,-5.0712,-5.0712,-5.0712,-5.0712,-5.0712,-5.0712,-5.0712,-5.0712,-5.0712,-5.0712,-5.0712,-5.0712,-5.0712,-5.0712,-5.0712,-5.0712,-5.0712,-5.0712,-5.0712,-5.0712,-5.0712,-5.0712,-5.0712,-5.0712,-5.0712,-5.0712,-5.0712,-5.0712,-5.0789,-5.0933,-5.176,-5.2154,-5.2192,-5.378,-5.4587,0.0,0.0,0.0,0.0,-4.6306,0.0,0.0,0.0,0.0,0.0,0.0,0.0,0.0,0.0,0.0,0.0,0.0,0.0,0.0,0.0,0.0,0.0,0.0,0.0,0.0,0.0,-5.1406,-5.1406,-5.1406,-5.1406,-5.1406,-5.1406,-5.1406,-5.1406,-5.1406,-5.1406,-5.1406,-5.1406,-5.1406,-5.1406,-5.1406,-5.1406,-5.1406,-5.1406,-5.1406,-5.1386,-5.1327,-5.1258,-5.1178,-5.1114,-5.101,-5.0898,-5.0898,-5.0898,-5.0898,-5.0898,-5.0898,-5.0898,-5.0898,-5.0898,-5.0898,-5.0898,-5.0898,-5.089,-5.0836,-5.081,-5.0803,-5.0721,-5.0712,-5.0712,-5.0712,-5.0712,-5.0712,-5.0712,-5.0712,-5.0712,-5.0712,-5.0712,-5.0712,-5.0712,-5.0712,-5.0712,-5.0712,-5.0712,-5.0712,-5.0712,-5.0712,-5.0712,-5.0712,-5.0712,-5.0712,-5.0712,-5.0712,-5.0712,-5.0712,-5.0712,-5.0712,-5.0712,-5.0712,-5.0712,-5.0712,-5.0712,-5.0712,-5.0712,-5.0712,-5.1048,-5.1769,-5.2626,-5.3049,-5.3087,-5.4049,-5.4876,0.0,0.0,0.0,0.0,0.0,0.0,-4.6295,0.0,-4.6297,0.0,0.0,0.0,0.0,0.0,0.0,0.0,0.0,0.0,0.0,0.0,0.0,0.0,0.0,0.0,0.0,0.0,0.0,0.0,-5.043,-5.0703,-5.0703,-5.1152,-5.1406,-5.1406,-5.1406,-5.1406,-5.1406,-5.1406,-5.1406,-5.1406,-5.1406,-5.1406,-5.1406,-5.1406,-5.1406,-5.1406,-5.1331,-5.1269,-5.1195,-5.1131,-5.1024,-5.0898,-5.0898,-5.0898,-5.0898,-5.0898,-5.0898,-5.0898,-5.0898,-5.0898,-5.0898,-5.0898,-5.0898,-5.0882,-5.0827,-5.0801,-5.0803,-5.0721,-5.0712,-5.0712,-5.0712,-5.0712,-5.0712,-5.0712,-5.0712,-5.0712,-5.0712,-5.0712,-5.0712,-5.0712,-5.0712,-5.0712,-5.0712,-5.0712,-5.0712,-5.0712,-5.0712,-5.0712,-5.0712,-5.0712,-5.0712,-5.0712,-5.0712,-5.0712,-5.0712,-5.0712,-5.0712,-5.0712,-5.0712,-5.0712,-5.0712,-5.0712,-5.0914,-5.1395,-5.1395,-5.1818,-5.2654,-5.353,-5.3953,-5.3972,-5.4799,-5.5376,-4.6712,0.0,0.0,0.0,0.0,0.0,0.0,0.0,0.0,0.0,0.0,0.0,0.0,0.0,0.0,0.0,0.0,0.0,0.0,0.0,0.0,0.0,0.0,0.0,0.0,0.0,0.0,-4.8906,-4.9492,-4.9941,-5.0195,-5.0742,-5.1172,-5.1387,-5.1406,-5.1406,-5.1406,-5.1406,-5.1406,-5.1406,-5.1406,-5.1406,-5.1406,-5.1406,-5.1406,-5.1406,-5.1358,-5.1288,-5.1229,-5.1157,-5.1062,-5.094,-5.0914,-5.0898,-5.0898,-5.0898,-5.0898,-5.0898,-5.0898,-5.0898,-5.0898,-5.0898,-5.0898,-5.0882,-5.0827,-5.0801,-5.0803,-5.0721,-5.0712,-5.0712,-5.0712,-5.0712,-5.0712,-5.0712,-5.0712,-5.0712,-5.0712,-5.0712,-5.0712,-5.0712,-5.0712,-5.0712,-5.0712,-5.0712,-5.0712,-5.0712,-5.0712,-5.0712,-5.0712,-5.0712,-5.0712,-5.0712,-5.0712,-5.0712,-5.0712,-5.0712,-5.0712,-5.0712,-5.0712,-5.0712,-5.0712,-5.0914,-5.1298,-5.1885,-5.2135,-5.2692,-5.3568,-5.4184,-5.4607,-5.4838,-5.5434,-5.5703,0.0,0.0,0.0,-4.6516,0.0,0.0,0.0,0.0,-4.6306,0.0,0.0,0.0,0.0,0.0,0.0,0.0,0.0,0.0,0.0,0.0,0.0,0.0,0.0,0.0,0.0,0.0,0.0,-4.8906,-4.8926,-4.9316,-5.0156,-5.0215,-5.0605,-5.1387,-5.1406,-5.1406,-5.1406,-5.1406,-5.1406,-5.1406,-5.1406,-5.1406,-5.1406,-5.1406,-5.1406,-5.1406,-5.1406,-5.1362,-5.1291,-5.1213,-5.1162,-5.1081,-5.094,-5.0898,-5.0898,-5.0898,-5.0898,-5.0898,-5.0898,-5.0898,-5.0898,-5.0898,-5.0898,-5.0882,-5.0827,-5.0801,-5.0803,-5.0721,-5.0712,-5.0712,-5.0712,-5.0712,-5.0712,-5.0712,-5.0712,-5.0712,-5.0712,-5.0712,-5.0712,-5.0712,-5.0712,-5.0712,-5.0712,-5.0712,-5.0712,-5.0712,-5.0712,-5.0712,-5.0712,-5.0712,-5.0712,-5.0712,-5.0712,-5.0712,-5.0712,-5.0712,-5.0712,-5.0712,-5.0712,-5.0712,-5.0712,-5.1452,-5.1865,-5.1904,-5.2741,-5.3587,-5.4453,-5.4491,-5.4895,-5.5665,-5.5684,-5.5703,0.0,0.0,-4.7538,-4.7226,0.0,0.0,0.0,0.0,0.0,0.0,0.0,0.0,0.0,0.0,0.0,0.0,0.0,0.0,0.0,0.0,0.0,0.0,0.0,0.0,0.0,0.0,0.0,-4.7187,-4.7715,-4.8418,0.0,-4.9883,-5.0566,-5.1367,-5.1406,-5.1406,-5.1406,-5.1406,-5.1406,-5.1406,-5.1406,-5.1406,-5.1406,-5.1406,-5.1406,-5.1406,-5.1406,-5.1363,-5.1295,-5.1279,-5.1203,-5.1099,-5.105,-5.0976,-5.0898,-5.0898,-5.0898,-5.0898,-5.0898,-5.0898,-5.0898,-5.0898,-5.0898,-5.0882,-5.0827,-5.0801,-5.0803,-5.0721,-5.0712,-5.0712,-5.0712,-5.0712,-5.0712,-5.0712,-5.0712,-5.0712,-5.0712,-5.0712,-5.0712,-5.0712,-5.0712,-5.0712,-5.0712,-5.0712,-5.0712,-5.0712,-5.0712,-5.0712,-5.0712,-5.0712,-5.0712,-5.0712,-5.0712,-5.0712,-5.0712,-5.0712,-5.0712,-5.0712,-5.1202,-5.1491,-5.1491,-5.2318,-5.3029,-5.3606,-5.3914,-5.4472,-5.528,-5.528,-5.5434,-5.5703,-5.5703,-5.5703,-4.9433,-4.873,0.0,-4.7676,-4.6933,0.0,-4.6308,0.0,0.0,0.0,0.0,0.0,0.0,0.0,0.0,0.0,0.0,0.0,0.0,-4.6306,0.0,0.0,0.0,0.0,0.0,0.0,-4.6307,-4.6308,-4.6816,-4.7656,0.0,0.0,-5.0254,-5.1367,-5.1406,-5.1406,-5.1406,-5.1406,-5.1406,-5.1406,-5.1406,-5.1406,-5.1406,-5.1406,-5.1406,-5.1406,-5.1406,-5.1385,-5.1334,-5.1302,-5.1242,-5.1122,-5.1117,-5.1017,-5.0898,-5.0898,-5.0898,-5.0898,-5.0898,-5.0898,-5.0898,-5.0898,-5.0898,-5.0882,-5.0827,-5.0801,-5.0803,-5.0721,-5.0712,-5.0712,-5.0712,-5.0712,-5.0712,-5.0712,-5.0712,-5.0712,-5.0712,-5.0712,-5.0712,-5.0712,-5.0712,-5.0712,-5.0712,-5.0712,-5.0712,-5.0712,-5.0712,-5.0712,-5.0712,-5.0712,-5.0712,-5.0712,-5.0712,-5.0712,-5.0712,-5.0712,-5.0827,-5.1106,-5.1606,-5.2038,-5.2346,-5.3203,-5.4068,-5.4914,-5.4934,-5.5318,-5.6145,-5.5838,-5.5703,-5.5703,-5.5703,-5.5703]},{"header":{"parameterUnit":"m.s-1","parameterCategory":1,"la1":30.6,"la2":29.2853,"lo1":-89.7004,"lo2":-87.6739,"dy":0.0162,"dx":0.0183,"nx":112,"ny":82,"refTime":"2024-02-22T06:00:00:Z","depth":0,"parameterNumber":3,"parameterNumberName":"V-component_of_WINDS"},"data":[0.0,0.0,0.0,0.0,0.0,0.0,0.0,0.0,0.0,0.0,0.0,0.0,0.0,0.0,0.0,0.0,0.0,0.0,0.0,0.0,0.0,0.0,0.0,0.0,0.0,0.0,0.0,0.0,0.0,0.0,0.0,0.0,0.0,0.0,0.0,0.0,0.0,0.0,0.0,0.0,0.0,0.0,0.0,0.0,0.0,0.0,0.0,0.0,0.0,0.0,0.0,0.0,0.0,0.0,0.0,0.0,0.0,0.0,0.0,0.0,0.0,0.0,0.0,0.0,0.0,0.0,0.0,0.0,0.0,0.0,0.0,0.0,0.0,0.0,0.0,0.0,0.0,0.0,0.0,0.0,0.0,0.0,0.0,0.0,0.0,0.0,0.0,0.0,0.0,0.0,0.4244,0.5249,0.5987,0.6374,0.6318,0.5371,0.4636,0.4322,0.0,0.0,0.0,0.0,0.0,0.0,0.0,0.0,0.0,0.0,0.0,0.0,0.0,0.0,0.0,0.0,0.0,0.0,0.0,0.0,0.0,0.0,0.0,0.0,0.0,0.0,0.0,0.0,0.0,0.0,0.0,0.0,0.0,0.0,0.0,0.0,0.0,0.0,0.0,0.0,0.0,0.0,0.0,0.0,0.0,0.0,0.0,0.0,0.0,0.0,0.0,0.0,0.0,0.0,0.0,0.0,0.0,0.0,0.0,0.0,0.0,0.0,0.0,0.0,0.0,0.0,0.0,0.0,0.0,0.0,0.0,0.0,0.0,0.0,0.0,0.0,0.0,0.0,0.0,0.0,0.0,0.0,0.0,0.0,0.0,0.0,0.0,0.0,0.0,0.0,0.0,0.0,0.0,0.0,0.0,0.0,0.0,0.0,0.0,0.0,0.0,0.0,0.0,0.0,0.4692,0.6661,0.6974,0.6877,0.6318,0.6151,0.5516,0.4377,0.0,0.0,0.0,0.0,0.0,0.0,0.0,0.0,0.0,0.0,0.0,0.0,0.0,0.0,0.0,0.0,0.0,0.0,0.0,0.0,0.0,0.0,0.0,0.0,0.0,0.0,0.0,0.0,0.0,0.0,0.0,0.0,0.0,0.0,0.0,0.0,0.0,0.0,0.0,0.0,0.0,0.0,0.0,0.0,0.0,0.0,0.0,0.0,0.0,0.0,0.0,0.0,0.0,0.0,0.0,0.0,0.0,0.0,0.0,0.0,0.0,0.0,0.0,0.0,0.0,0.0,0.0,0.0,0.0,0.0,0.0,0.0,0.0,0.0,0.0,0.0,0.0,0.0,0.0,0.0,0.0,0.0,0.0,0.0,0.0,0.0,0.0,0.0,0.0,0.0,0.0,0.0,0.0,0.0,0.0,0.0,0.0,0.0,0.0,0.0,0.0,0.0,0.0,0.5169,0.6039,0.708,0.721,0.7099,0.6818,0.6485,0.5845,0.4854,0.4238,0.0,0.0,0.0,0.0,0.0,0.0,0.0,0.0,0.0,0.0,0.0,0.0,0.0,0.0,0.0,0.0,0.0,0.0,0.0,0.0,0.0,0.0,0.0,0.0,0.0,0.0,0.0,0.0,0.0,0.0,0.0,0.0,0.0,0.0,0.0,0.0,0.0,0.0,0.0,0.0,0.0,0.0,0.0,0.0,0.0,0.0,0.0,0.0,0.0,0.0,0.0,0.0,0.0,0.0,0.0,0.0,0.0,0.0,0.0,0.0,0.0,0.0,0.0,0.0,0.0,0.0,0.0,0.0,0.0,0.0,0.0,0.0,0.0,0.0,0.0,0.0,0.0,0.0,0.0,0.0,0.0,0.0,0.0,0.0,0.0,0.0,0.0,0.0,0.0,0.0,0.0,0.0,0.0,0.0,0.0,0.0,0.0,0.0,0.0,0.0,0.0,0.0,0.688,0.7114,0.7199,0.721,0.721,0.721,0.674,0.6151,0.5437,0.4825,0.0,0.0,0.0,0.0,0.0,0.0,0.0,0.0,0.0,0.0,0.0,0.0,0.0,0.0,0.0,0.0,0.0,0.0,0.0,0.0,0.0,0.0,0.0,0.0,0.0,0.0,0.0,0.0,0.0,0.0,0.0,0.0,0.0,0.0,0.0,0.0,0.0,0.0,0.0,0.0,0.0,0.0,0.0,0.0,0.0,0.0,0.0,0.0,0.0,0.0,0.0,0.0,0.0,0.0,0.0,0.0,0.0,0.0,0.0,0.0,0.0,0.0,0.0,0.0,0.0,0.0,0.0,0.0,0.0,0.0,0.0,0.0,0.0,0.0,0.0,0.0,0.0,0.0,0.0,0.0,0.0,0.0,0.0,0.0,0.0,0.0,0.0,0.0,0.0,0.0,0.0,0.0,0.0,0.0,0.0,0.0,0.0,0.0,0.0,0.0,0.0,0.0,0.6728,0.7202,0.721,0.721,0.721,0.721,0.7056,0.667,0.5963,0.5341,0.0,0.0,0.0,0.0,0.0,0.0,0.0,0.0,0.0,0.0,0.0,0.0,0.0,0.0,0.0,0.0,0.0,0.0,0.0,0.0,0.0,0.0,0.0,0.0,0.0,0.0,0.0,0.0,0.0,0.0,0.0,0.0,0.0,0.0,0.0,0.0,0.0,0.0,0.0,0.0,0.0,0.0,0.0,0.0,0.0,0.0,0.0,0.0,0.0,0.0,0.0,0.0,0.0,0.0,0.0,0.0,0.0,0.0,0.0,0.0,0.0,0.0,0.0,0.0,0.0,0.0,0.0,0.0,0.0,0.0,0.0,0.0,0.0,0.0,0.0,0.0,0.0,0.0,0.0,0.0,0.0,0.0,0.0,0.0,0.0,0.0,0.0,0.0,0.0,0.0,0.0,0.0,0.0,0.0,0.0,0.0,0.0,0.0,0.0,0.0,0.0,0.0,0.6837,0.713,0.0,0.721,0.721,0.721,0.7169,0.679,0.6071,0.0,0.0,0.0,0.0,0.0,0.0,0.0,0.0,0.0,0.0,0.0,0.0,0.0,0.0,0.0,0.0,0.0,0.0,0.0,0.0,0.0,0.0,0.0,0.0,0.0,0.0,0.0,0.0,0.0,0.0,0.0,0.0,0.0,0.0,0.0,0.0,0.0,0.0,0.0,0.0,0.0,0.0,0.0,0.0,0.0,0.0,0.0,0.0,0.0,0.0,0.0,0.0,0.0,0.0,0.0,0.0,0.0,0.0,0.0,0.0,0.0,0.0,0.0,0.0,0.0,0.0,0.0,0.0,0.0,0.0,0.0,0.0,0.0,0.0,0.0,0.0,0.0,0.0,0.0,0.0,0.0,0.0,0.0,0.0,0.0,0.0,0.0,0.0,0.0,0.0,0.0,0.0,0.0,0.0,0.0,0.0,0.0,0.0,0.0,0.0,0.0,0.0,0.6685,0.694,0.7122,0.0,0.721,0.721,0.721,0.7177,0.6907,0.6285,0.0,0.0,0.0,0.0,0.0,0.0,0.0,0.0,0.0,0.0,0.0,0.0,0.0,0.0,0.0,0.0,0.0,0.0,0.0,0.0,0.0,0.0,0.0,0.0,0.0,0.0,0.0,0.0,0.0,0.0,0.0,0.0,0.0,0.0,0.0,0.0,0.0,0.0,0.0,0.0,0.0,0.0,0.0,0.0,0.0,0.0,0.0,0.0,0.0,0.0,0.0,0.0,0.0,0.0,0.0,0.0,0.0,0.0,0.0,0.0,0.0,0.0,0.0,0.0,0.0,0.0,0.0,0.0,0.0,0.0,0.0,0.0,0.0,0.0,0.0,0.0,0.0,0.0,0.0,0.0,0.0,0.0,0.0,0.0,0.0,0.0,0.0,0.0,0.0,0.0,0.0,0.0,0.0,0.0,0.0,0.0,0.0,0.0,0.0,0.0,0.0,0.0,0.6801,0.7008,0.721,0.721,0.721,0.721,0.721,0.7051,0.6934,0.0,0.0,0.0,0.0,0.0,0.0,0.0,0.0,0.0,0.0,0.0,0.0,0.0,0.0,0.0,0.0,0.0,0.0,0.0,0.0,0.0,0.0,0.0,0.0,0.0,0.0,0.0,0.0,0.0,0.0,0.0,0.0,0.0,0.0,0.0,0.0,0.0,0.0,0.0,0.0,0.0,0.0,0.0,0.0,0.0,0.0,0.0,0.0,0.0,0.0,0.0,0.0,0.0,0.0,0.0,0.0,0.0,0.0,0.0,0.0,0.0,0.0,0.0,0.0,0.0,0.0,0.0,0.0,0.0,0.0,0.0,0.0,0.0,0.0,0.0,0.0,0.0,0.0,0.0,0.0,0.0,0.0,0.0,0.0,0.0,0.0,0.0,0.0,0.0,0.0,0.0,0.0,0.0,0.0,0.0,0.0,0.0,0.0,0.0,0.0,0.0,0.0,0.0,0.6801,0.7008,0.721,0.721,0.721,0.721,0.721,0.718,0.7018,0.6815,0.0,0.0,0.0,0.0,0.0,0.0,0.0,0.0,0.0,0.0,0.0,0.0,0.0,0.0,0.0,0.0,0.0,0.0,0.0,0.0,0.0,0.0,0.0,0.0,0.0,0.0,0.0,0.0,0.0,0.0,0.0,0.0,0.0,0.0,0.0,0.0,0.0,0.0,0.0,0.0,0.0,0.0,0.0,0.0,0.0,0.0,0.0,0.0,0.0,0.0,0.0,0.0,0.0,0.0,0.0,0.0,0.0,0.0,0.0,0.0,0.0,0.0,0.0,0.0,0.0,0.0,0.0,0.0,0.0,0.0,0.0,0.0,0.0,0.0,0.0,0.0,0.0,0.0,0.0,0.0,0.0,0.0,0.0,0.0,0.0,0.0,0.0,0.0,0.0,0.0,0.0,0.0,0.0,0.0,0.0,0.0,0.0,0.0,0.0,0.0,0.0,0.0,0.6728,0.6896,0.7087,0.7136,0.7141,0.7161,0.7204,0.721,0.7128,0.6888,0.0,0.0,0.0,0.0,0.0,0.0,0.0,0.0,0.0,0.0,0.0,0.0,0.0,0.0,0.0,0.0,0.0,0.0,0.0,0.0,0.0,0.0,0.0,0.0,0.0,0.0,0.0,0.0,0.0,0.0,0.0,0.0,0.0,0.0,0.0,0.0,0.0,0.0,0.0,0.0,0.0,0.0,0.0,0.0,0.0,0.0,0.0,0.0,0.0,0.0,0.0,0.0,0.0,0.0,0.0,0.0,0.0,0.0,0.0,0.0,0.0,0.0,0.0,0.0,0.0,0.0,0.0,0.0,0.0,0.0,0.0,0.0,0.0,0.0,0.0,0.0,0.0,0.0,0.0,0.0,0.0,0.0,0.0,0.0,0.0,0.0,0.0,0.0,0.0,0.0,0.0,0.0,0.0,0.0,0.0,0.0,0.0,0.0,0.0,0.0,0.0,0.0,0.6619,0.6725,0.685,0.6972,0.6975,0.7016,0.7185,0.7182,0.7128,0.6959,0.0,0.0,0.0,0.0,0.0,0.0,0.0,0.0,0.0,0.0,0.0,0.0,0.0,0.0,0.0,0.0,0.0,0.0,0.0,0.0,0.0,0.0,0.0,0.0,0.0,0.0,0.0,0.0,0.0,0.0,0.0,0.0,0.0,0.0,0.0,0.0,0.0,0.0,0.0,0.0,0.0,0.0,0.0,0.0,0.0,0.0,0.0,0.0,0.0,0.0,0.0,0.0,0.0,0.0,0.0,0.0,0.0,0.0,0.0,0.0,-0.082,0.0,0.0,0.0,0.0,0.0,0.0,0.0,0.0,0.0,0.0,0.0,0.0,0.0,0.0,0.0,0.0,0.0,0.0,0.0,0.0,0.0,0.0,0.0,0.0,0.0,0.0,0.0,0.0,0.0,0.0,0.0,0.0,0.0,0.0,0.0,0.0,0.0,0.0,0.0,0.0,0.0,0.6619,0.6725,0.685,0.6972,0.6899,0.6891,0.701,0.6934,0.6825,0.6706,0.6673,0.0,0.0,0.0,0.0,0.0,0.0,0.0,0.0,0.0,0.0,0.0,0.0,0.0,0.0,0.0,0.0,0.0,0.0,0.0,0.0,0.0,0.0,0.0,0.0,0.0,0.0,0.0,0.0,0.0,0.0,0.0,0.0,0.0,0.0,0.0,0.0,0.0,0.0,0.0,0.0,0.0,0.0,0.0,0.0,0.0,0.0,0.0,0.0,0.0,0.0,0.0,0.0,0.0,0.0,0.0,0.0,0.0,0.0,0.0,0.0,-0.0818,0.0,0.0,0.0,0.0,0.0,0.0,0.0,0.0,0.0,0.0,0.0,0.0,0.0,0.0,0.0,0.0,0.0,0.0,0.0,0.0,0.0,0.0,0.0,0.0,0.0,0.0,0.0,0.0,0.0,0.0,0.0,0.0,0.0,0.0,0.0,0.0,0.0,0.0,0.0,0.0,0.6481,0.6638,0.676,0.6883,0.6893,0.6915,0.698,0.6926,0.6836,0.6714,0.6651,0.0,0.0,0.0,0.0,0.0,0.0,0.0,0.0,0.0,0.0,0.0,0.0,0.0,0.0,0.0,0.0,0.0,0.0,0.0,0.0,0.0,0.0,0.0,0.0,0.0,0.0,0.0,0.0,0.0,0.0,0.0,0.0,0.0,0.0,0.0,0.0,0.0,0.0,0.0,0.0,0.0,0.0,0.0,0.0,0.0,0.0,0.0,0.0,0.0,0.0,0.0,0.0,0.0,-0.0114,0.0,0.0,0.0,0.0,0.0,-0.0522,-0.0591,-0.0358,-0.0698,0.0,0.0,0.0,0.0,0.0,0.0,0.0,0.0,0.0,0.0,0.0,0.0,0.0,0.0,0.0,0.0,0.0,0.0,0.0,0.0,0.0,0.0,0.0,0.0,0.6396,0.6411,0.4333,0.0,0.0,0.0,0.0,0.0,0.0,0.0,0.0,0.0,0.0,0.0,0.6416,0.6556,0.6673,0.682,0.6958,0.7069,0.7091,0.7053,0.6987,0.6884,0.6657,0.6586,0.0,0.0,0.0,0.0,0.0,0.0,0.0,0.0,0.0,0.0,0.0,0.0,0.0,0.0,0.0,0.0,0.0,0.0,0.0,0.0,0.0,0.0,0.0,0.0,0.0,0.0,0.0,0.0,0.0,0.0,0.0,0.0,-0.0925,-0.0882,0.0,0.0,0.0,0.0,0.0,0.0,0.0,0.0,0.0,0.0,0.0,0.0,0.0,-0.0113,-0.0115,-0.0058,-0.0058,-0.0059,0.0,0.0,0.0,0.0,0.0,0.0,-0.0058,0.0,-0.0058,-0.0346,0.0,0.0,0.0,0.0,0.0,0.0,0.0,0.0,0.0,0.0,0.0,0.0,0.0,0.0,0.0,0.0,0.0,0.0,0.0,0.0,0.0,0.0,0.6943,0.6961,0.6999,0.6926,0.0,0.6421,0.6378,0.6365,0.643,0.0,0.0,0.0,0.0,0.0,0.0,0.0,0.6581,0.6608,0.6706,0.6937,0.7091,0.7236,0.7351,0.7162,0.7082,0.7067,0.6684,0.6411,0.6411,0.6411,0.0,0.0,0.0,0.0,0.0,0.0,0.0,0.0,0.0,0.0,0.0,0.0,0.0,0.0,0.0,0.0,0.0,0.0,0.0,0.0,0.0,0.0,0.0,0.0,0.0,0.0,0.0,0.0,0.0,-0.0692,-0.0586,-0.0417,-0.0237,-0.0176,0.0,0.0,0.0,0.0,0.0,0.0,0.0,0.0,0.0,0.0,0.0,0.0,0.0,0.0,0.0,0.0,0.0,0.0,0.0,0.0,0.0344,0.103,0.1023,0.1416,0.1982,0.1144,0.1263,0.1835,0.0,0.0,0.0,0.0,0.2405,0.2573,0.3802,0.4238,0.0,0.517,0.0,0.0,0.0,0.0,0.0,0.0,0.0,0.0,0.0,0.0,0.713,0.7193,0.7172,0.7136,0.7136,0.6945,0.6785,0.0,0.6575,0.6468,0.6398,0.0,0.0,0.0,0.0,0.661,0.6873,0.7,0.718,0.7456,0.7588,0.7645,0.7681,0.7576,0.7503,0.7355,0.7133,0.6965,0.6839,0.6836,0.6786,0.0,0.0,0.0,0.0,0.0,0.0,0.0,0.0,0.0,0.0,0.0,0.0,0.0,0.0,0.0,0.0,0.0,0.0,0.0,0.0,0.0,0.0,0.0,0.0,0.0,0.0,0.0,0.0,-0.0349,-0.0236,0.0,0.0,0.0,0.0,0.0,0.0,0.0,0.0,0.0,0.0,0.0,0.0,0.0,0.0,0.0,0.0,0.0,0.0171,0.0457,0.0451,0.0616,0.0896,0.0896,0.14,0.2239,0.2239,0.2966,0.3976,0.278,0.2793,0.359,0.359,0.362,0.3636,0.3971,0.4083,0.425,0.5425,0.5917,0.6089,0.7002,0.666,0.5919,0.5919,0.0,0.0,0.0,0.0,0.7021,0.6991,0.7008,0.7051,0.7191,0.7188,0.7166,0.7166,0.7021,0.6893,0.0,0.6687,0.6638,0.6495,0.0,0.0,0.0,0.0,0.699,0.7287,0.7455,0.7639,0.7889,0.8039,0.8112,0.8064,0.8027,0.7905,0.7665,0.7567,0.7433,0.7194,0.7188,0.7089,0.6892,0.0,0.0,0.0,0.0,0.0,0.0,0.0,0.0,0.0,0.0,0.0,0.0,0.0,0.0,0.0,0.0,0.0,0.0,0.0,0.0,0.0,0.0,0.0,0.0,0.0,0.0,0.0,0.0,0.0,0.0,0.0,0.0,0.0,0.0,0.0,0.0,0.0,0.0,0.0,0.0,0.0,0.0,0.0,0.0,0.0,0.0,0.0561,0.1682,0.1737,0.2295,0.3413,0.3413,0.3469,0.3525,0.3525,0.4196,0.5202,0.403,0.3529,0.3585,0.3585,0.3583,0.3748,0.4868,0.5316,0.5483,0.671,0.7102,0.7107,0.7163,0.7163,0.7107,0.7107,0.7102,0.0,0.0,0.7117,0.7177,0.7013,0.7119,0.7202,0.721,0.7128,0.6994,0.6994,0.6899,0.6842,0.0,0.6872,0.679,0.6785,0.0,0.7144,0.7144,0.7422,0.7684,0.786,0.7888,0.7892,0.7965,0.826,0.8481,0.8475,0.8356,0.8217,0.8065,0.7723,0.7433,0.7194,0.7188,0.7188,0.7188,0.7188,0.0,0.0,0.0,0.0,0.0,0.0,0.0,0.0,0.0,0.0,0.0,0.0,0.0,0.0,0.0,0.0,0.0,0.0,0.0,0.0,0.0,0.0,0.0,0.0,0.0,0.0,0.0,0.0,0.0,0.0,0.0,0.0,0.0,0.0,0.0,0.0,0.0,0.0,0.0,0.0,0.0,0.0,0.0,0.0,0.0784,0.14,0.1791,0.2574,0.3189,0.358,0.358,0.4029,0.4756,0.4756,0.5425,0.6541,0.6093,0.5924,0.5924,0.5924,0.5924,0.598,0.6374,0.6541,0.6596,0.7043,0.721,0.721,0.721,0.721,0.721,0.721,0.721,0.7202,0.7161,0.718,0.7257,0.7329,0.7406,0.7493,0.7657,0.7677,0.7645,0.7645,0.761,0.7589,0.7636,0.7311,0.7062,0.7062,0.7328,0.7542,0.7542,0.7718,0.7898,0.811,0.8247,0.8375,0.8543,0.8712,0.8768,0.8768,0.8724,0.8588,0.8394,0.8226,0.8036,0.7749,0.7739,0.764,0.7444,0.7444,0.7391,0.0,0.0,0.0,0.0,0.0,0.0,0.0,0.0,0.0,0.0,0.0,0.0,0.0,0.0,0.0,0.0,0.0,0.0,0.0,0.0,0.0,0.0,0.0,0.0,0.0,0.0,0.0,0.0,0.0,0.0,0.0,0.0,0.0,0.0,0.0,0.0,0.0,0.0392,0.0616,0.0616,0.1008,0.1232,0.1232,0.2015,0.2629,0.3022,0.3804,0.4418,0.4808,0.4808,0.5256,0.5984,0.5984,0.6485,0.721,0.721,0.721,0.721,0.721,0.721,0.721,0.721,0.721,0.721,0.721,0.721,0.721,0.721,0.721,0.721,0.721,0.721,0.721,0.7324,0.7324,0.7379,0.766,0.7715,0.7771,0.7934,0.7989,0.7989,0.7989,0.7989,0.7989,0.7989,0.7735,0.744,0.7396,0.7659,0.7862,0.7815,0.7987,0.8151,0.8368,0.8493,0.8636,0.8807,0.8851,0.8885,0.8885,0.8838,0.8774,0.857,0.8465,0.8323,0.8126,0.8019,0.7942,0.7746,0.7746,0.7643,0.7487,0.0,0.0,0.0,0.0,0.0,0.0,0.0,0.0,0.0,0.0,0.0,0.0,0.0,0.0,0.0,0.0,0.0,0.0,0.0,0.0,0.0,0.0,0.0,0.0,0.0,0.0,0.0,0.0,0.0,0.0,0.0,0.0,0.0,0.0,0.0,0.0056,0.1176,0.1847,0.1847,0.3021,0.3636,0.3636,0.3636,0.425,0.5427,0.5427,0.6096,0.721,0.721,0.721,0.721,0.721,0.721,0.721,0.721,0.721,0.721,0.721,0.721,0.721,0.721,0.721,0.721,0.721,0.721,0.721,0.721,0.721,0.721,0.721,0.721,0.7268,0.7549,0.7607,0.7662,0.7934,0.7989,0.8045,0.8045,0.8045,0.8045,0.8045,0.8045,0.8045,0.8045,0.8045,0.8002,0.7868,0.8123,0.8243,0.8048,0.8286,0.0,0.8496,0.8625,0.8716,0.871,0.8849,0.8881,0.8875,0.8801,0.8716,0.871,0.8442,0.833,0.8323,0.8126,0.8045,0.8038,0.8041,0.8041,0.8038,0.0,0.0,0.0,0.0,0.0,0.0,0.0,0.0,0.0,0.0,0.0,0.0,0.0,0.0,0.0,0.0,0.0,0.0,0.0,0.0,0.0,0.0,0.0,0.0,0.0,0.0,0.0,0.0,0.0,0.0,0.0,0.0,0.0,0.0,0.0392,0.1232,0.1623,0.2294,0.3353,0.3523,0.3804,0.4249,0.4698,0.5312,0.6031,0.6482,0.699,0.7493,0.7268,0.721,0.721,0.721,0.721,0.721,0.721,0.721,0.721,0.721,0.721,0.721,0.721,0.721,0.721,0.721,0.721,0.721,0.721,0.721,0.721,0.721,0.7324,0.7493,0.7607,0.7715,0.7989,0.8263,0.8374,0.8432,0.8602,0.866,0.866,0.866,0.866,0.866,0.866,0.866,0.8589,0.8323,0.8543,0.8698,0.8658,0.8706,0.0,0.8815,0.8849,0.8832,0.8723,0.8849,0.8838,0.8781,0.8835,0.8828,0.8716,0.8635,0.8492,0.833,0.8928,0.9245,0.9167,0.8382,0.8382,0.0,0.0,0.0,0.0,0.0,0.0,0.0,0.0,0.0,0.0,0.0,0.0,0.0,0.0,0.0,0.0,0.0,0.0,0.0,0.0,0.0,0.0,0.0,0.0,0.0,0.0,0.0,0.0,0.0,0.0,0.0,0.0448,0.0728,0.0728,0.1344,0.1958,0.2684,0.3353,0.4078,0.4912,0.514,0.5423,0.5813,0.6151,0.6485,0.6871,0.7318,0.7546,0.7607,0.7546,0.749,0.7379,0.749,0.7543,0.7543,0.7435,0.7379,0.0,0.0,0.0,0.0,0.0,0.721,0.721,0.721,0.721,0.721,0.7324,0.7379,0.7379,0.749,0.7657,0.7771,0.7937,0.81,0.8266,0.8598,0.8657,0.8712,0.8881,0.8885,0.8885,0.8885,0.8885,0.8885,0.8885,0.8885,0.0,0.8712,0.8773,0.8821,0.8757,0.8747,0.8747,0.8747,0.8804,0.8808,0.872,0.8849,0.8848,0.8815,0.8828,0.0,0.0,0.0,0.8537,0.8367,0.8969,0.0,0.0,0.0,0.9482,1.0587,0.0,0.0,0.0,0.9388,0.9805,0.0,0.0,0.0,0.0,0.0,0.0,0.0,0.0,0.0,0.0,0.0,0.0,0.0,0.0,0.0,0.0,0.0,0.0,0.0,0.0,0.0,0.0,0.0,0.0,0.0,0.112,0.1847,0.1847,0.3242,0.4132,0.4244,0.0,0.0,0.0,0.0,0.7662,0.7773,0.7662,0.766,0.7718,0.7878,0.7881,0.7607,0.7881,0.7881,0.7607,0.7881,0.7989,0.7989,0.7771,0.7662,0.7607,0.7324,0.721,0.721,0.721,0.7265,0.7265,0.7265,0.0,0.0,0.7549,0.7662,0.7718,0.7934,0.8045,0.81,0.8429,0.854,0.8598,0.8826,0.8885,0.8885,0.8885,0.8885,0.8885,0.8885,0.8885,0.8885,0.8885,0.8885,0.8885,0.8885,0.8825,0.8689,0.8554,0.8533,0.8533,0.8533,0.8652,0.873,0.8713,0.0,0.0,0.8858,0.8804,0.8794,0.8875,0.8669,0.8559,0.8716,0.8598,0.9052,1.0196,1.0092,1.0608,1.1803,1.2035,1.2298,1.2524,1.2003,1.2056,0.0,0.0,0.0,0.0,0.0,0.0,0.0,0.0,0.0,0.0,0.0,0.0,0.0,0.0,0.0,0.0,0.0,0.0,0.0,0.0,0.0,0.0,0.0,0.0,0.0,0.1287,0.2125,0.2125,0.3521,0.4803,0.5804,0.6137,0.6864,0.8036,0.7986,0.8159,0.866,0.8159,0.8045,0.8322,0.0,0.0,0.7607,0.7881,0.7881,0.7607,0.7881,0.7989,0.7989,0.7934,0.7934,0.7878,0.7376,0.721,0.721,0.7438,0.7549,0.7549,0.7768,0.7823,0.7878,0.7878,0.7934,0.7934,0.7989,0.8211,0.0,0.8484,0.8654,0.8826,0.8881,0.8885,0.8885,0.8885,0.8885,0.8885,0.8885,0.8885,0.8885,0.8885,0.8885,0.8885,0.8885,0.8858,0.8828,0.8855,0.8797,0.8797,0.8797,0.8821,0.8849,0.8723,0.8849,0.8834,0.8764,0.8842,0.8851,0.8881,0.8767,0.9037,0.9933,0.9019,0.8999,1.0088,0.9257,0.9362,1.0448,1.0537,1.157,1.353,1.2888,1.3175,0.0,0.0,0.0,0.0,0.0,0.0,0.0,0.0,0.0,0.0,0.0,-0.0168,0.0,0.0,0.0,0.0,0.0,0.0,0.0,0.0,0.0,0.0,0.056,0.0952,0.1063,0.2851,0.4077,0.4242,0.5637,0.6753,0.7365,0.7534,0.7928,0.8657,0.8432,0.8377,0.8712,0.8211,0.81,0.8263,0.81,0.7881,0.7607,0.7881,0.7934,0.7826,0.7934,0.81,0.8211,0.7934,0.7826,0.7771,0.7493,0.749,0.7601,0.7771,0.7826,0.7826,0.7934,0.7989,0.8045,0.8211,0.8266,0.8266,0.8436,0.8546,0.8712,0.8712,0.8771,0.8885,0.8885,0.8885,0.8885,0.8885,0.8885,0.8885,0.8885,0.8885,0.8885,0.8885,0.8885,0.8885,0.8885,0.8885,0.8885,0.8885,0.8885,0.8885,0.8885,0.8885,0.8854,0.8832,0.8838,0.8851,0.8832,0.8841,0.8885,0.8885,0.8811,0.904,0.9577,0.9017,0.9241,1.0404,1.0408,1.0724,1.1256,1.2573,1.3548,1.4213,1.4565,1.501,0.0,0.0,0.0,0.0,0.0,0.0,0.0,0.0,-0.0785,-0.0393,-0.0168,0.0,0.0,0.0,0.0,0.0,0.0,0.0,0.0,0.0224,0.0336,0.0336,0.1232,0.2069,0.2515,0.4636,0.6089,0.6362,0.7759,0.8598,0.8598,0.8712,0.8826,0.8885,0.8598,0.8429,0.8484,0.8208,0.8045,0.7989,0.81,0.7992,0.7607,0.7937,0.8045,0.7989,0.8045,0.8266,0.8543,0.7937,0.7773,0.7829,0.7771,0.7937,0.8156,0.81,0.81,0.81,0.8156,0.8156,0.8211,0.8488,0.8598,0.8598,0.8826,0.8885,0.8885,0.8885,0.8885,0.8885,0.8885,0.8885,0.8885,0.8885,0.8885,0.8885,0.8885,0.8885,0.8885,0.8885,0.8885,0.8885,0.8885,0.8885,0.8885,0.8885,0.8885,0.8885,0.8885,0.8885,0.8885,0.8885,0.8885,0.8885,0.8885,0.8885,0.8885,0.8885,0.8885,0.8885,0.8885,0.8885,0.9372,1.0347,1.1492,1.2091,1.2091,1.4396,1.5212,1.4565,1.5716,1.6255,-0.1795,-0.1795,-0.1795,-0.1795,-0.1795,-0.1627,0.0,0.0,-0.0729,-0.0168,0.0,0.0,0.0,0.0,0.0,0.0,0.0,0.0,0.0,0.0896,0.1623,0.1623,0.1902,0.2571,0.3687,0.5472,0.6591,0.6644,0.8042,0.8881,0.8881,0.8654,0.8654,0.8881,0.8325,0.8211,0.8484,0.8484,0.8318,0.7989,0.8546,0.8383,0.7607,0.8211,0.8263,0.7989,0.8322,0.8598,0.8826,0.8214,0.8269,0.8716,0.8488,0.8546,0.8771,0.8543,0.8429,0.8484,0.8712,0.8771,0.8826,0.8826,0.8881,0.8881,0.8881,0.8885,0.8885,0.8885,0.8885,0.8885,0.8885,0.8885,0.8885,0.8885,0.8885,0.8885,0.8885,0.8885,0.8885,0.8885,0.8885,0.8885,0.8885,0.8885,0.8885,0.8885,0.8885,0.8885,0.8885,0.8885,0.8885,0.8885,0.8885,0.8885,0.8885,0.8885,0.8885,0.8885,0.8885,0.8885,0.8885,0.8885,0.8937,0.9099,1.0296,1.0891,1.0891,1.2219,1.3325,1.4261,1.4402,1.5234,-0.1795,-0.1795,0.0,0.0,-0.1795,-0.1683,-0.1234,-0.1009,-0.0785,-0.0336,-0.0112,0.0,0.0,0.0,0.0,0.0,0.0,0.0,0.0,0.1064,0.2071,0.2742,0.3689,0.458,0.5248,0.6808,0.7817,0.7986,0.8546,0.8885,0.8885,0.8771,0.8771,0.8881,0.866,0.8491,0.8484,0.8318,0.8156,0.7989,0.8103,0.8051,0.7826,0.81,0.8045,0.7771,0.81,0.81,0.7878,0.7826,0.7992,0.838,0.8488,0.8654,0.8881,0.8768,0.8712,0.8768,0.8881,0.8885,0.8885,0.8885,0.8885,0.8885,0.8885,0.8885,0.8885,0.8885,0.8885,0.8885,0.8885,0.8885,0.8885,0.8885,0.8885,0.8885,0.8885,0.8885,0.8885,0.8885,0.8885,0.8885,0.8885,0.8885,0.8885,0.8885,0.8885,0.8885,0.8885,0.8885,0.8885,0.8885,0.8885,0.8885,0.8885,0.8885,0.8885,0.8885,0.8885,0.8885,0.8885,0.9588,0.997,0.997,1.1764,1.2363,1.171,1.3555,1.4374,1.4223,1.4869,1.5576,-0.1793,0.0,0.0,-0.1793,-0.1795,-0.1739,-0.1402,-0.1177,-0.0897,-0.0505,-0.0224,-0.0112,0.0,0.0,0.0,0.0,0.0,0.0112,0.0448,0.1512,0.2742,0.3971,0.5421,0.6424,0.6755,0.7814,0.8598,0.8881,0.8885,0.8885,0.8885,0.8826,0.8826,0.8885,0.8716,0.8602,0.8484,0.8266,0.81,0.7989,0.7992,0.7992,0.7989,0.7989,0.7881,0.7715,0.7826,0.7768,0.7543,0.7604,0.7881,0.8269,0.8432,0.8654,0.8885,0.8885,0.8885,0.8885,0.8885,0.8885,0.8885,0.8885,0.8885,0.8885,0.8885,0.8885,0.8885,0.8885,0.8885,0.8885,0.8885,0.8885,0.8885,0.8885,0.8885,0.8885,0.8885,0.8885,0.8885,0.8885,0.8885,0.8885,0.8885,0.8885,0.8885,0.8885,0.8885,0.8885,0.8885,0.8885,0.8885,0.8885,0.8885,0.8885,0.8885,0.8885,0.8885,0.8885,0.8885,0.8885,0.8885,1.0076,1.0726,1.0726,1.3019,1.3786,1.2906,1.4911,1.5458,1.4708,1.5512,1.5891,0.0,0.0,-0.1813,-0.1788,-0.1795,-0.1739,-0.1402,-0.129,-0.1121,-0.0505,-0.0393,-0.0336,-0.0056,0.0,0.0,0.0,0.0,0.0392,0.1567,0.2798,0.3971,0.5202,0.6654,0.766,0.0,0.8263,0.8598,0.8881,0.8885,0.8885,0.8885,0.8654,0.8654,0.8881,0.8325,0.8156,0.8484,0.8484,0.8322,0.7989,0.8605,0.8549,0.7989,0.7989,0.7989,0.7989,0.7715,0.7937,0.8429,0.7826,0.8106,0.8826,0.8598,0.8654,0.8885,0.8885,0.8885,0.8885,0.8885,0.8885,0.8885,0.8885,0.8885,0.8885,0.8885,0.8885,0.8885,0.8885,0.8885,0.8885,0.8885,0.8885,0.8885,0.8885,0.8885,0.8885,0.8885,0.8885,0.8885,0.8885,0.8885,0.8885,0.8885,0.8885,0.8885,0.8885,0.8885,0.8885,0.8885,0.8885,0.8885,0.8885,0.8885,0.8885,0.8885,0.8885,0.8885,0.8885,0.8885,0.8885,0.8885,1.0076,1.0726,1.0726,1.3019,1.4164,1.4164,1.5351,1.5891,1.5832,1.5885,1.5891,0.0,0.0,-0.1782,-0.1793,-0.1795,-0.1795,-0.1683,-0.1458,-0.1177,-0.0785,-0.0561,-0.0336,-0.0056,0.0,0.0,0.0,0.0,0.0448,0.1623,0.2854,0.4029,0.526,0.6543,0.0,0.0,0.0,0.0,0.8598,0.8432,0.8325,0.8325,0.8211,0.8211,0.8325,0.81,0.8045,0.8156,0.8156,0.8211,0.8318,0.8712,0.8712,0.8318,0.8318,0.81,0.7715,0.7662,0.7604,0.7654,0.7604,0.7884,0.8325,0.8432,0.8654,0.8885,0.8885,0.8885,0.8885,0.8885,0.8885,0.8885,0.8885,0.8885,0.8885,0.8885,0.8885,0.8885,0.8885,0.8885,0.8885,0.8885,0.8885,0.8885,0.8885,0.8885,0.8885,0.8885,0.8885,0.8885,0.8885,0.8885,0.8885,0.8885,0.8885,0.8885,0.8885,0.8885,0.8885,0.8885,0.8885,0.8885,0.8885,0.8885,0.8885,0.8885,0.8885,0.8885,0.8885,0.8885,0.8885,0.8885,1.0076,1.1055,1.1814,1.3398,1.4546,1.5351,1.5731,1.5891,1.5891,1.5891,1.5891,-0.1784,-0.1787,-0.1781,-0.1792,-0.1795,-0.1795,-0.1795,-0.1627,-0.1402,-0.1121,-0.0785,-0.0505,-0.0224,-0.0056,0.0,0.0,0.0,0.056,0.2239,0.3134,0.4195,0.5871,0.6707,0.0,0.0,0.0,0.0,0.8263,0.81,0.7989,0.7989,0.7989,0.7989,0.7989,0.7989,0.8045,0.8152,0.8152,0.8322,0.8654,0.8712,0.8712,0.8654,0.8429,0.81,0.7715,0.7549,0.749,0.7487,0.7657,0.7992,0.8325,0.8546,0.8768,0.8885,0.8885,0.8885,0.8885,0.8885,0.8885,0.8885,0.8885,0.8885,0.8885,0.8885,0.8885,0.8885,0.8885,0.8885,0.8885,0.8885,0.8885,0.8885,0.8885,0.8885,0.8885,0.8885,0.8885,0.8885,0.8885,0.8885,0.8885,0.8885,0.8885,0.8885,0.8885,0.8885,0.8885,0.8885,0.8885,0.8885,0.8885,0.8885,0.8885,0.8885,0.8885,0.8885,0.8885,0.8885,0.8885,0.8885,1.046,1.1655,1.2413,1.3997,1.519,1.5891,1.5891,1.5891,1.5891,1.5891,1.5891,-0.1779,-0.1774,-0.1814,-0.1788,-0.1795,-0.1795,-0.1795,-0.1795,-0.1683,-0.1346,-0.1065,-0.0785,0.0,0.0,0.0,0.0,0.0056,0.0896,0.3245,0.3636,0.4585,0.0,0.0,0.0,0.0,0.0,0.0,0.7934,0.0,0.7934,0.7934,0.7934,0.7934,0.7934,0.7934,0.81,0.8484,0.8484,0.8654,0.8885,0.8654,0.8654,0.8881,0.8269,0.7989,0.7934,0.7432,0.7487,0.7989,0.7989,0.8325,0.8881,0.8881,0.8881,0.8885,0.8885,0.8885,0.8885,0.8885,0.8885,0.8885,0.8885,0.8885,0.8885,0.8885,0.8885,0.8885,0.8885,0.8885,0.8885,0.8885,0.8885,0.8885,0.8885,0.8885,0.8885,0.8885,0.8885,0.8885,0.8885,0.8885,0.8885,0.8885,0.8885,0.8885,0.8885,0.8885,0.8885,0.8885,0.8885,0.8885,0.8885,0.8885,0.8885,0.8885,0.8885,0.8885,0.8885,0.8885,0.8885,0.8885,1.1059,1.2309,1.2417,1.4583,1.5779,1.5891,1.5891,1.5891,1.5891,1.5891,1.5891,-0.1785,-0.1789,-0.1785,-0.1793,-0.1795,-0.1795,-0.1795,-0.1795,-0.1683,-0.1346,-0.1065,-0.0785,0.0,0.0,0.0,0.0,0.0728,0.0,0.3413,0.4364,0.0,0.7043,0.0,0.721,0.7268,0.7265,0.0,0.0,0.7376,0.7376,0.7376,0.7376,0.7376,0.7376,0.7376,0.7654,0.81,0.8602,0.8826,0.8885,0.8826,0.8712,0.8598,0.8211,0.7881,0.7662,0.7324,0.7379,0.7715,0.7715,0.8048,0.8598,0.8598,0.8712,0.8885,0.8885,0.8885,0.8885,0.8885,0.8885,0.8885,0.8885,0.8885,0.8885,0.8885,0.8885,0.8885,0.8885,0.8885,0.8885,0.8885,0.8885,0.8885,0.8885,0.8885,0.8885,0.8885,0.8885,0.8885,0.8885,0.8885,0.8885,0.8885,0.8885,0.8885,0.8885,0.8885,0.8885,0.8885,0.8885,0.8885,0.8885,0.8885,0.8885,0.8885,0.8885,0.8885,0.8885,0.8885,0.8885,0.8885,0.9482,1.0625,1.2363,1.3014,1.4153,1.5891,1.5891,1.5891,1.5891,1.5891,1.5891,-0.1787,-0.1795,-0.1795,-0.1795,-0.1795,-0.1795,-0.1795,-0.1795,-0.1739,-0.157,-0.129,0.0,0.0,0.0,0.0,0.0,0.0,0.0,0.3413,0.4643,0.5873,0.0,0.721,0.0,0.721,0.721,0.721,0.0,0.721,0.721,0.721,0.721,0.721,0.721,0.721,0.7432,0.7989,0.8602,0.8885,0.8885,0.8885,0.8768,0.8484,0.8156,0.7881,0.7607,0.0,0.7435,0.7771,0.7771,0.8159,0.8657,0.8657,0.8768,0.8885,0.8885,0.8885,0.8885,0.8885,0.8885,0.8885,0.8885,0.8885,0.8885,0.8885,0.8885,0.8885,0.8885,0.8885,0.8885,0.8885,0.8885,0.8885,0.8885,0.8885,0.8885,0.8885,0.8885,0.8885,0.8885,0.8885,0.8885,0.8885,0.8885,0.8885,0.8885,0.8885,0.8885,0.8885,0.8885,0.8885,0.8885,0.8885,0.8885,0.8885,0.8885,0.8885,0.8885,0.8885,0.8885,0.8885,0.9427,1.0296,1.1651,1.2689,1.3835,1.5137,1.5672,1.5891,1.5891,1.5891,1.5891,-0.1794,-0.1798,-0.1795,-0.1795,-0.1795,-0.1795,-0.1795,-0.1795,-0.1795,-0.1795,0.0,-0.1234,-0.0953,0.0,-0.028,0.0168,0.0,0.2463,0.3692,0.4866,0.604,0.7099,0.721,0.721,0.721,0.721,0.721,0.721,0.721,0.721,0.721,0.721,0.721,0.721,0.7265,0.7543,0.7989,0.8602,0.8881,0.8826,0.8826,0.8712,0.8429,0.81,0.7826,0.7607,0.7324,0.0,0.7934,0.7989,0.8325,0.8826,0.8881,0.8885,0.8885,0.8885,0.8885,0.8885,0.8885,0.8885,0.8885,0.8885,0.8885,0.8885,0.8885,0.8885,0.8885,0.8885,0.8885,0.8885,0.8885,0.8885,0.8885,0.8885,0.8885,0.8885,0.8885,0.8885,0.8885,0.8885,0.8885,0.8885,0.8885,0.8885,0.8885,0.8885,0.8885,0.8885,0.8885,0.8885,0.8885,0.8885,0.8885,0.8885,0.8885,0.8885,0.8885,0.8885,0.8885,0.8885,0.8885,0.9915,1.0621,1.0945,1.2802,1.3948,1.4439,1.5244,1.5725,1.5891,1.5891,1.5891,-0.1774,-0.1814,-0.1795,-0.1795,-0.1795,-0.1795,-0.1795,-0.1795,0.0,0.0,0.0,-0.1234,-0.0953,-0.0617,0.0,0.1288,0.0,0.0,0.0,0.0,0.6988,0.0,0.0,0.0,0.0,0.0,0.0,0.0,0.0,0.721,0.721,0.721,0.721,0.721,0.7657,0.7934,0.7989,0.8602,0.8771,0.8543,0.8543,0.8377,0.81,0.7771,0.7662,0.7607,0.7324,0.0,0.7662,0.7934,0.8211,0.8598,0.8826,0.8885,0.8885,0.8885,0.8885,0.8885,0.8885,0.8885,0.8885,0.8885,0.8885,0.8885,0.8885,0.8885,0.8885,0.8885,0.8885,0.8885,0.8885,0.8885,0.8885,0.8885,0.8885,0.8885,0.8885,0.8885,0.8885,0.8885,0.8885,0.8885,0.8885,0.8885,0.8885,0.8885,0.8885,0.8885,0.8885,0.8885,0.8885,0.8885,0.8885,0.8885,0.8885,0.8885,0.8885,0.8885,0.8885,0.8885,0.8885,0.9099,1.0135,1.2091,1.1601,1.2738,1.5618,1.4869,1.4976,1.5891,1.5891,1.5891,-0.1825,-0.1818,-0.1814,-0.1799,-0.1795,-0.1795,-0.1795,0.0,0.0,0.0,0.0,-0.1402,-0.1009,0.0,0.0,0.0,0.0,0.0,0.0,0.0,0.0,0.0,0.0,0.0,0.0,0.0,0.0,0.0,0.0,0.721,0.721,0.721,0.721,0.721,0.7601,0.7771,0.7771,0.838,0.8654,0.8484,0.8484,0.8322,0.7989,0.7715,0.7549,0.7379,0.7265,0.0,0.7607,0.7881,0.8211,0.854,0.8771,0.8885,0.8885,0.8885,0.8885,0.8885,0.8885,0.8885,0.8885,0.8885,0.8885,0.8885,0.8885,0.8885,0.8885,0.8885,0.8885,0.8885,0.8885,0.8885,0.8885,0.8885,0.8885,0.8885,0.8885,0.8885,0.8885,0.8885,0.8885,0.8885,0.8885,0.8885,0.8885,0.8885,0.8885,0.8885,0.8885,0.8885,0.8885,0.8885,0.8885,0.8885,0.8885,0.8885,0.8885,0.8885,0.8885,0.8885,0.8885,0.8885,0.9427,1.057,1.1219,1.2413,1.4099,1.475,1.5351,1.5891,1.5891,1.5891,-0.1827,-0.1827,-0.1776,-0.1803,-0.1795,-0.1795,-0.1795,-0.1795,0.0,0.0,-0.1795,-0.1627,-0.1009,0.0,0.0,0.0,0.0,0.0,0.0,0.0,0.0,0.0,0.0,0.0,0.0,0.0,0.0,0.0,0.0,0.0,0.7192,0.7276,0.7289,0.7289,0.7517,0.7688,0.7688,0.8159,0.8418,0.8363,0.8334,0.8156,0.7823,0.7604,0.7379,0.721,0.721,0.0,0.0,0.7823,0.81,0.8429,0.8712,0.8826,0.8885,0.8885,0.8885,0.8885,0.8885,0.8885,0.8885,0.8885,0.8885,0.8885,0.8885,0.8885,0.8885,0.8885,0.8885,0.8885,0.8885,0.8885,0.8885,0.8885,0.8885,0.8885,0.8885,0.8885,0.8885,0.8885,0.8885,0.8885,0.8885,0.8885,0.8885,0.8885,0.8885,0.8885,0.8885,0.8885,0.8885,0.8885,0.8885,0.8885,0.8885,0.8885,0.8885,0.8885,0.8885,0.8885,0.8885,0.8885,0.9047,0.9261,1.084,1.1873,1.2417,1.4256,1.5292,1.5512,1.5779,1.5891,-0.1879,-0.1859,-0.1776,-0.1803,-0.1795,-0.1795,-0.1795,0.0,0.0,-0.1795,-0.1795,-0.1627,-0.1009,-0.0897,-0.0336,0.0,0.0,0.0,0.0,0.0,0.0,0.0,0.0,0.0,0.0,0.0,0.0,0.0,0.0,0.0,0.7317,0.7423,0.7486,0.7486,0.7774,0.7948,0.7948,0.8121,0.8115,0.7882,0.7715,0.7546,0.7265,0.7265,0.721,0.721,0.721,0.0,0.0,0.7549,0.7771,0.81,0.8429,0.8712,0.8885,0.8885,0.8885,0.8885,0.8885,0.8885,0.8885,0.8885,0.8885,0.8885,0.8885,0.8885,0.8885,0.8885,0.8885,0.8885,0.8885,0.8885,0.8885,0.8885,0.8885,0.8885,0.8885,0.8885,0.8885,0.8885,0.8885,0.8885,0.8885,0.8885,0.8885,0.8885,0.8885,0.8885,0.8885,0.8885,0.8885,0.8885,0.8885,0.8885,0.8885,0.8885,0.8885,0.8885,0.8885,0.8885,0.8885,0.8885,0.9427,1.0507,0.9644,1.0245,1.2417,1.263,1.3285,1.4385,1.5405,1.5891,-0.1841,-0.1849,-0.1856,-0.1807,-0.1795,-0.1795,-0.1795,0.0,0.0,-0.1795,-0.1795,-0.1683,-0.1234,-0.1009,-0.0617,0.0,0.0,0.0,0.0,0.0,0.0,0.0,0.0,0.0,0.0,0.0,0.0,0.0,0.0,0.0,0.7551,0.7532,0.7519,0.7519,0.7633,0.7691,0.7691,0.8104,0.8151,0.7786,0.7969,0.7791,0.7438,0.7268,0.721,0.721,0.721,0.0,0.0,0.7493,0.7771,0.8045,0.8374,0.8654,0.8885,0.8885,0.8885,0.8885,0.8885,0.8885,0.8885,0.8885,0.8885,0.8885,0.8885,0.8885,0.8885,0.8885,0.8885,0.8885,0.8885,0.8885,0.8885,0.8885,0.8885,0.8885,0.8885,0.8885,0.8885,0.8885,0.8885,0.8885,0.8885,0.8885,0.8885,0.8885,0.8885,0.8885,0.8885,0.8885,0.8885,0.8885,0.8885,0.8885,0.8885,0.8885,0.8885,0.8885,0.8885,0.8885,0.8885,0.8885,0.9103,0.9588,0.986,1.0457,1.1378,1.2091,1.3019,1.4223,1.4654,1.5244,-0.1806,-0.1833,-0.186,-0.1808,-0.1795,-0.1795,0.0,0.0,0.0,-0.1795,-0.1795,-0.1683,-0.1346,-0.1065,-0.0785,0.0,0.0,0.0,0.0,0.0,0.0,0.0,0.0,0.0,0.0,0.0,0.0,0.0,0.0,0.0,0.7744,0.7668,0.7622,0.7622,0.7622,0.7622,0.7622,0.7996,0.8029,0.7729,0.7926,0.7841,0.7493,0.7268,0.721,0.721,0.721,0.0,0.0,0.7382,0.766,0.7878,0.8156,0.8432,0.8768,0.8768,0.8826,0.8885,0.8885,0.8885,0.8885,0.8885,0.8885,0.8885,0.8885,0.8885,0.8885,0.8885,0.8885,0.8885,0.8885,0.8885,0.8885,0.8885,0.8885,0.8885,0.8885,0.8885,0.8885,0.8885,0.8885,0.8885,0.8885,0.8885,0.8885,0.8885,0.8885,0.8885,0.8885,0.8885,0.8885,0.8885,0.8885,0.8885,0.8885,0.8885,0.8885,0.8885,0.8885,0.8885,0.8885,0.8885,0.8885,0.8885,0.9754,1.0186,1.0186,1.1328,1.2309,1.3181,1.3511,1.4272,-0.1795,-0.1817,-0.1776,-0.1803,-0.1795,-0.1795,0.0,0.0,0.0,-0.1795,-0.1795,-0.1683,-0.1346,-0.1065,-0.0785,-0.0449,0.0,0.0,0.0,0.0,0.0,0.0,0.0,0.0,0.0,0.0,0.0,0.0,0.0,0.0,0.7856,0.7869,0.7867,0.7867,0.7867,0.7867,0.7867,0.7755,0.7638,0.7516,0.7394,0.7271,0.721,0.721,0.721,0.0,0.0,0.0,0.0,0.721,0.7379,0.7607,0.7607,0.7992,0.8484,0.8484,0.8657,0.8885,0.8885,0.8885,0.8885,0.8885,0.8885,0.8885,0.8885,0.8885,0.8885,0.8885,0.8885,0.8885,0.8885,0.8885,0.8885,0.8885,0.8885,0.8885,0.8885,0.8885,0.8885,0.8885,0.8885,0.8885,0.8885,0.8885,0.8885,0.8885,0.8885,0.8885,0.8885,0.8885,0.8885,0.8885,0.8885,0.8885,0.8885,0.8885,0.8885,0.8885,0.8885,0.8885,0.8885,0.8885,0.8885,0.8885,0.894,0.8937,0.8937,1.0131,1.0726,1.0781,1.1869,1.3073,-0.1819,-0.1802,-0.1776,-0.1803,-0.1795,-0.1795,-0.1795,0.0,0.0,-0.1795,-0.1795,-0.1795,-0.1683,-0.1234,-0.0841,-0.0785,0.0,0.0,0.0,0.0,0.0,0.0,0.0,0.0,0.0,0.0,0.0,0.0,0.0,0.0,0.0,0.7872,0.7872,0.7872,0.7872,0.7872,0.7872,0.8083,0.7962,0.7519,0.771,0.7581,0.721,0.721,0.721,0.0,0.0,0.0,0.0,0.721,0.7379,0.7607,0.7607,0.7992,0.8484,0.8484,0.8657,0.8885,0.8885,0.8885,0.8885,0.8885,0.8885,0.8885,0.8885,0.8885,0.8885,0.8885,0.8885,0.8885,0.8885,0.8885,0.8885,0.8885,0.8885,0.8885,0.8885,0.8885,0.8885,0.8885,0.8885,0.8885,0.8885,0.8885,0.8885,0.8885,0.8885,0.8885,0.8885,0.8885,0.8885,0.8885,0.8885,0.8885,0.8885,0.8885,0.8885,0.8885,0.8885,0.8885,0.8885,0.8885,0.8885,0.8885,0.8885,0.8885,0.8885,0.9261,0.9915,1.0726,1.1869,1.258,0.0,-0.1777,-0.1819,-0.18,-0.1795,0.0,0.0,0.0,0.0,-0.1795,-0.1795,-0.1795,-0.1795,-0.129,-0.0897,-0.0897,0.0,0.0,0.0,0.0,0.0,0.0,0.0,0.0,0.0,0.0,0.0,0.0,0.0,0.0,0.0,0.7872,0.7872,0.7872,0.7872,0.7872,0.7872,0.8119,0.7999,0.7519,0.7691,0.762,0.721,0.721,0.721,0.0,0.0,0.0,0.0,0.721,0.7324,0.7438,0.7438,0.7715,0.8156,0.8156,0.8432,0.8768,0.8768,0.8826,0.8885,0.8885,0.8885,0.8885,0.8885,0.8885,0.8885,0.8885,0.8885,0.8885,0.8885,0.8885,0.8885,0.8885,0.8885,0.8885,0.8885,0.8885,0.8885,0.8885,0.8885,0.8885,0.8885,0.8885,0.8885,0.8885,0.8885,0.8885,0.8885,0.8885,0.8885,0.8885,0.8885,0.8885,0.8885,0.8885,0.8885,0.8885,0.8885,0.8885,0.8885,0.8885,0.8885,0.8885,0.8885,0.8885,0.8885,0.8885,0.9261,1.0076,1.1219,1.176,0.0,-0.175,-0.1795,-0.1795,-0.1795,-0.1795,0.0,0.0,0.0,0.0,0.0,0.0,-0.1795,-0.1346,-0.0897,-0.0897,0.0,0.0,0.0,0.0,0.0,0.0,0.0,0.0,0.0,0.0,0.0,0.0,0.0,0.0,0.0,0.7872,0.7872,0.7872,0.7872,0.7872,0.7872,0.7861,0.7744,0.7519,0.751,0.7383,0.721,0.721,0.721,0.0,0.0,0.0,0.0,0.721,0.721,0.721,0.721,0.7379,0.7607,0.7607,0.7992,0.8484,0.8484,0.8654,0.8881,0.8881,0.8885,0.8885,0.8885,0.8885,0.8885,0.8885,0.8885,0.8885,0.8885,0.8885,0.8885,0.8885,0.8885,0.8885,0.8885,0.8885,0.8885,0.8885,0.8885,0.8885,0.8885,0.8885,0.8885,0.8885,0.8885,0.8885,0.8885,0.8885,0.8885,0.8885,0.8885,0.8885,0.8885,0.8885,0.8885,0.8885,0.8885,0.8885,0.8885,0.8885,0.8885,0.8885,0.8885,0.8885,0.8885,0.8885,0.8885,0.8937,1.0076,1.0566,-0.1787,0.0,-0.1795,-0.1795,-0.1795,-0.1795,0.0,0.0,0.0,0.0,0.0,0.0,0.0,0.0,0.0,0.0,0.0,0.0,0.0,0.0,0.0,0.0,0.0,0.0,0.0,0.0,0.0,0.0,0.0,0.0,0.0,0.7872,0.7872,0.7872,0.7872,0.7872,0.7872,0.7785,0.7665,0.7516,0.7423,0.7298,0.721,0.721,0.721,0.0,0.0,0.0,0.721,0.721,0.721,0.721,0.721,0.7379,0.7607,0.7607,0.7826,0.8156,0.8429,0.854,0.8654,0.8826,0.8885,0.8885,0.8885,0.8885,0.8885,0.8885,0.8885,0.8885,0.8885,0.8885,0.8885,0.8885,0.8885,0.8885,0.8885,0.8885,0.8885,0.8885,0.8885,0.8885,0.8885,0.8885,0.8885,0.8885,0.8885,0.8885,0.8885,0.8885,0.8885,0.8885,0.8885,0.8885,0.8885,0.8885,0.8885,0.8885,0.8885,0.8885,0.8885,0.8885,0.8885,0.8885,0.8885,0.8885,0.8885,0.8885,0.8885,0.8885,0.921,0.9316,-0.1759,-0.1782,-0.1795,-0.1795,-0.1795,-0.1795,-0.1795,0.0,0.0,0.0,0.0,0.0,0.0,0.0,0.0,0.0,0.0,0.0,0.0,0.0,0.0,0.0,0.0,0.0,0.0,0.0,0.0,0.0,0.0,0.0,0.0,0.7872,0.7872,0.7872,0.7872,0.7872,0.7872,0.7758,0.7641,0.7516,0.7336,0.7271,0.721,0.721,0.721,0.0,0.0,0.0,0.721,0.721,0.721,0.721,0.721,0.7268,0.7438,0.7438,0.7604,0.7881,0.8156,0.8432,0.8712,0.8826,0.8885,0.8885,0.8885,0.8885,0.8885,0.8885,0.8885,0.8885,0.8885,0.8885,0.8885,0.8885,0.8885,0.8885,0.8885,0.8885,0.8885,0.8885,0.8885,0.8885,0.8885,0.8885,0.8885,0.8885,0.8885,0.8885,0.8885,0.8885,0.8885,0.8885,0.8885,0.8885,0.8885,0.8885,0.8885,0.8885,0.8885,0.8885,0.8885,0.8885,0.8885,0.8885,0.8885,0.8885,0.8885,0.8885,0.8885,0.8885,0.8885,0.8885,-0.1773,-0.1788,-0.1789,-0.1794,-0.1795,-0.1795,-0.1795,0.0,0.0,0.0,0.0,0.0,0.0,0.0,0.0,0.0,0.0,0.0,0.0,0.0,0.0,0.0,0.0,0.0,0.0,0.0,0.0,0.0,0.0,0.0,0.0,0.7853,0.7845,0.7845,0.7828,0.7818,0.7818,0.7722,0.7611,0.7489,0.7366,0.7252,0.721,0.721,0.721,0.721,0.0,0.0,0.721,0.721,0.721,0.721,0.721,0.721,0.721,0.721,0.7324,0.7604,0.7878,0.838,0.8826,0.8881,0.8885,0.8885,0.8885,0.8885,0.8885,0.8885,0.8885,0.8885,0.8885,0.8885,0.8885,0.8885,0.8885,0.8885,0.8885,0.8885,0.8885,0.8885,0.8885,0.8885,0.8885,0.8885,0.8885,0.8885,0.8885,0.8885,0.8885,0.8885,0.8885,0.8885,0.8885,0.8885,0.8885,0.8885,0.8885,0.8885,0.8885,0.8885,0.8885,0.8885,0.8885,0.8885,0.8885,0.8885,0.8885,0.8885,0.8885,0.8885,0.8885,0.8885,-0.1802,-0.1811,-0.1818,-0.1789,-0.1795,-0.1795,0.0,0.0,0.0,0.0,0.0,0.0,0.0,0.0,0.0,0.0,0.0,0.0,0.0,0.0,0.0,0.0,0.0,0.0,0.0,0.0,0.0,0.0,0.0,0.0,0.0,0.778,0.7728,0.7728,0.7627,0.7573,0.7573,0.7554,0.7486,0.7304,0.7241,0.7229,0.721,0.721,0.721,0.721,0.0,0.721,0.721,0.721,0.721,0.721,0.721,0.721,0.721,0.721,0.721,0.7321,0.7823,0.8266,0.8598,0.8826,0.8885,0.8885,0.8885,0.8885,0.8885,0.8885,0.8885,0.8885,0.8885,0.8885,0.8885,0.8885,0.8885,0.8885,0.8885,0.8885,0.8885,0.8885,0.8885,0.8885,0.8885,0.8885,0.8885,0.8885,0.8885,0.8885,0.8885,0.8885,0.8885,0.8885,0.8885,0.8885,0.8885,0.8885,0.8885,0.8885,0.8885,0.8885,0.8885,0.8885,0.8885,0.8885,0.8885,0.8885,0.8885,0.8885,0.8885,0.8885,0.8885,0.8885,-0.1792,-0.1804,-0.1812,-0.1787,-0.177,-0.1746,0.0,0.0,0.0,0.0,0.0,0.0,0.0,0.0,0.0,0.0,0.0,0.0,0.0,0.0,0.0,0.0,0.0,0.0,0.0,0.0,0.0,0.0,0.0,0.0,0.0,0.0,0.7603,0.7603,0.7548,0.7486,0.7421,0.7421,0.7333,0.7277,0.7214,0.721,0.721,0.721,0.721,0.721,0.0,0.721,0.721,0.721,0.721,0.721,0.721,0.721,0.721,0.721,0.7268,0.7438,0.7715,0.81,0.854,0.8654,0.8768,0.8885,0.8885,0.8885,0.8885,0.8885,0.8885,0.8885,0.8885,0.8885,0.8885,0.8885,0.8885,0.8885,0.8885,0.8885,0.8885,0.8885,0.8885,0.8885,0.8885,0.8885,0.8885,0.8885,0.8885,0.8885,0.8885,0.8885,0.8885,0.8885,0.8885,0.8885,0.8885,0.8885,0.8885,0.8885,0.8885,0.8885,0.8885,0.8885,0.8885,0.8885,0.8885,0.8885,0.8885,0.8885,0.8885,0.8885,0.8885,0.8885,-0.1771,-0.1783,-0.1789,-0.1758,0.0,0.0,0.0,0.0,0.0,0.0,0.0,0.0,0.0,0.0,0.0,0.0,0.0,0.0,0.0,0.0,0.0,0.0,0.0,0.0,0.0,0.0,0.0,0.0,0.0,0.0,0.0,0.0,0.7475,0.7475,0.7448,0.7388,0.7293,0.7293,0.7293,0.7293,0.7198,0.721,0.721,0.721,0.721,0.721,0.721,0.721,0.721,0.721,0.721,0.721,0.721,0.721,0.721,0.721,0.7324,0.7493,0.7551,0.7937,0.8374,0.8484,0.8657,0.8885,0.8885,0.8885,0.8885,0.8885,0.8885,0.8885,0.8885,0.8885,0.8885,0.8885,0.8885,0.8885,0.8885,0.8885,0.8885,0.8885,0.8885,0.8885,0.8885,0.8885,0.8885,0.8885,0.8885,0.8885,0.8885,0.8885,0.8885,0.8885,0.8885,0.8885,0.8885,0.8885,0.8885,0.8885,0.8885,0.8885,0.8885,0.8885,0.8885,0.8885,0.8885,0.8885,0.8885,0.8885,0.8885,0.8885,0.8885,0.8885,-0.1719,-0.1721,-0.1721,-0.1724,0.0,0.0,0.0,0.0,0.0,0.0,0.0,0.0,0.0,0.0,0.0,0.0,0.0,0.0,0.0,0.0,0.0,0.0,0.0,0.0,0.0,0.0,0.0,0.0,0.0,0.0,0.0,0.0,0.729,0.729,0.7239,0.7232,0.7224,0.7224,0.7224,0.7224,0.7215,0.721,0.721,0.721,0.721,0.721,0.721,0.721,0.721,0.721,0.721,0.721,0.721,0.721,0.721,0.721,0.721,0.7265,0.7493,0.7771,0.81,0.8374,0.8657,0.8885,0.8885,0.8885,0.8885,0.8885,0.8885,0.8885,0.8885,0.8885,0.8885,0.8885,0.8885,0.8885,0.8885,0.8885,0.8885,0.8885,0.8885,0.8885,0.8885,0.8885,0.8885,0.8885,0.8885,0.8885,0.8885,0.8885,0.8885,0.8885,0.8885,0.8885,0.8885,0.8885,0.8885,0.8885,0.8885,0.8885,0.8885,0.8885,0.8885,0.8885,0.8885,0.8885,0.8885,0.8885,0.8885,0.8885,0.8885,0.8885,-0.1709,-0.1675,-0.1693,-0.1765,0.0,0.0,0.0,0.0,0.0,0.0,0.0,0.0,0.0,0.0,0.0,0.0,0.0,0.0,0.0,0.0,0.0,0.0,0.0,0.0,0.0,0.0,0.0,0.0,0.0,0.0,0.0,0.0,0.7222,0.7222,0.7235,0.721,0.721,0.721,0.721,0.721,0.721,0.721,0.721,0.721,0.721,0.721,0.721,0.721,0.721,0.721,0.721,0.721,0.721,0.721,0.721,0.721,0.721,0.721,0.7324,0.7546,0.7826,0.81,0.8377,0.8657,0.8826,0.8885,0.8885,0.8885,0.8885,0.8885,0.8885,0.8885,0.8885,0.8885,0.8885,0.8885,0.8885,0.8885,0.8885,0.8885,0.8885,0.8885,0.8885,0.8885,0.8885,0.8885,0.8885,0.8885,0.8885,0.8885,0.8885,0.8885,0.8885,0.8885,0.8885,0.8885,0.8885,0.8885,0.8885,0.8885,0.8885,0.8885,0.8885,0.8885,0.8885,0.8885,0.8885,0.8885,0.8885,0.8885,0.8885,0.8885,-0.1642,-0.1669,-0.1696,0.0,0.0,0.0,0.0,0.0,0.0,0.0,0.0,0.0,0.0,0.0,0.0,0.0,0.0,0.0,0.0,0.0,0.0,0.0,0.0,0.0,0.0,0.0,0.0,0.0,0.0,0.0,0.0,0.0,0.721,0.721,0.721,0.721,0.721,0.721,0.721,0.721,0.721,0.721,0.721,0.721,0.721,0.721,0.721,0.721,0.721,0.721,0.721,0.721,0.721,0.721,0.721,0.721,0.721,0.721,0.721,0.7379,0.7607,0.7826,0.8156,0.854,0.8712,0.8826,0.8885,0.8885,0.8885,0.8885,0.8885,0.8885,0.8885,0.8885,0.8885,0.8885,0.8885,0.8885,0.8885,0.8885,0.8885,0.8885,0.8885,0.8885,0.8885,0.8885,0.8885,0.8885,0.8885,0.8885,0.8885,0.8885,0.8885,0.8885,0.8885,0.8885,0.8885,0.8885,0.8885,0.8885,0.8885,0.8885,0.8885,0.8885,0.8885,0.8885,0.8885,0.8885,0.8885,0.8885,0.8885,0.8885,-0.1617,-0.1639,-0.1715,0.0,0.0,0.0,0.0,0.0,0.0,0.0,0.0,0.0,0.0,0.0,0.0,0.0,0.0,0.0,0.0,0.0,0.0,0.0,0.0,0.0,0.0,0.0,0.0,0.0,0.0,0.0,0.0,0.0,0.721,0.721,0.721,0.721,0.721,0.721,0.721,0.721,0.721,0.721,0.721,0.721,0.721,0.721,0.721,0.721,0.721,0.721,0.721,0.721,0.721,0.721,0.721,0.721,0.721,0.721,0.721,0.7379,0.7607,0.7607,0.7992,0.8484,0.8484,0.8712,0.8885,0.8885,0.8885,0.8885,0.8885,0.8885,0.8885,0.8885,0.8885,0.8885,0.8885,0.8885,0.8885,0.8885,0.8885,0.8885,0.8885,0.8885,0.8885,0.8885,0.8885,0.8885,0.8885,0.8885,0.8885,0.8885,0.8885,0.8885,0.8885,0.8885,0.8885,0.8885,0.8885,0.8885,0.8885,0.8885,0.8885,0.8885,0.8885,0.8885,0.8885,0.8885,0.8885,0.8885,0.8885,0.8885,-0.1649,-0.1738,0.0,0.0,0.0,0.0,0.0,0.0,0.0,0.0,0.0,0.0,0.0,0.0,0.0,0.0,0.0,0.0,0.0,0.0,0.0,0.0,0.0,0.0,0.0,0.0,0.0,0.0,0.0,0.0,0.0,0.0,0.721,0.721,0.721,0.721,0.721,0.721,0.721,0.721,0.721,0.721,0.721,0.721,0.721,0.721,0.721,0.721,0.721,0.721,0.721,0.721,0.721,0.721,0.721,0.721,0.721,0.721,0.721,0.7265,0.7324,0.7551,0.7826,0.8211,0.8429,0.8712,0.8885,0.8885,0.8885,0.8885,0.8885,0.8885,0.8885,0.8885,0.8885,0.8885,0.8885,0.8885,0.8885,0.8885,0.8885,0.8885,0.8885,0.8885,0.8885,0.8885,0.8885,0.8885,0.8885,0.8885,0.8885,0.8885,0.8885,0.8885,0.8885,0.8885,0.8885,0.8885,0.8885,0.8885,0.8885,0.8885,0.8885,0.8885,0.8885,0.8885,0.8885,0.8885,0.8885,0.8885,0.8885,0.8885,-0.1714,0.0,0.0,0.0,0.0,0.0,0.0,0.0,0.0,0.0,0.0,0.0,0.0,0.0,0.0,0.0,0.0,0.0,0.0,0.0,0.0,0.0,0.0,0.0,0.0,0.0,0.0,0.0,0.0,0.0,0.0,0.0,0.721,0.721,0.721,0.721,0.721,0.721,0.721,0.721,0.721,0.721,0.721,0.721,0.721,0.721,0.721,0.721,0.721,0.721,0.721,0.721,0.721,0.721,0.721,0.721,0.721,0.721,0.721,0.721,0.721,0.7379,0.7604,0.7881,0.8211,0.8488,0.8768,0.8881,0.8885,0.8885,0.8885,0.8885,0.8885,0.8885,0.8885,0.8885,0.8885,0.8885,0.8885,0.8885,0.8885,0.8885,0.8885,0.8885,0.8885,0.8885,0.8885,0.8885,0.8885,0.8885,0.8885,0.8885,0.8885,0.8885,0.8885,0.8885,0.8885,0.8885,0.8885,0.8885,0.8885,0.8885,0.8885,0.8885,0.8885,0.8885,0.8885,0.8885,0.8885,0.8885,0.8885,0.8885,0.0,0.0,0.0,0.0,0.0,0.0,0.0,0.0,0.0,0.0,0.0,0.0,0.0,0.0,0.0,0.0,0.0,0.0,0.0,0.0,0.0,0.0,0.0,0.0,0.0,0.0,0.0,0.0,0.0,0.0,0.0,0.0,0.7154,0.7043,0.7154,0.721,0.721,0.721,0.721,0.721,0.721,0.721,0.721,0.721,0.721,0.721,0.721,0.721,0.721,0.721,0.721,0.721,0.721,0.721,0.721,0.721,0.721,0.721,0.721,0.721,0.721,0.721,0.7379,0.7662,0.7934,0.8208,0.8543,0.8826,0.8885,0.8885,0.8885,0.8885,0.8885,0.8885,0.8885,0.8885,0.8885,0.8885,0.8885,0.8885,0.8885,0.8885,0.8885,0.8885,0.8885,0.8885,0.8885,0.8885,0.8885,0.8885,0.8885,0.8885,0.8885,0.8885,0.8885,0.8885,0.8885,0.8885,0.8885,0.8885,0.8885,0.8885,0.8885,0.8885,0.8885,0.8885,0.8885,0.8885,0.8885,0.8885,0.8885,0.8885,0.0,0.0,0.0,0.0,0.0,0.0,0.0,0.0,0.0,0.0,0.0,0.0,0.0,0.0,0.0,0.0,0.0,0.0,0.0,0.0,0.0,0.0,0.0,0.0,0.0,0.0,0.0,0.0,0.0,0.0,0.0,0.671,0.6765,0.5817,0.6707,0.721,0.721,0.721,0.721,0.0,0.721,0.721,0.721,0.721,0.721,0.721,0.721,0.721,0.721,0.721,0.721,0.721,0.721,0.721,0.721,0.721,0.721,0.721,0.721,0.721,0.721,0.721,0.7379,0.7662,0.7934,0.8208,0.8543,0.8826,0.8885,0.8885,0.8885,0.8885,0.8885,0.8885,0.8885,0.8885,0.8885,0.8885,0.8885,0.8885,0.8885,0.8885,0.8885,0.8885,0.8885,0.8885,0.8885,0.8885,0.8885,0.8885,0.8885,0.8885,0.8885,0.8885,0.8885,0.8885,0.8885,0.8885,0.8885,0.8885,0.8885,0.8885,0.8885,0.8885,0.8885,0.8885,0.8885,0.8885,0.8885,0.8885,0.8885,0.8885,0.0,0.0,0.0,0.0,0.0,0.0,0.0,0.0,0.0,0.0,0.0,0.0,0.0,0.0,0.0,0.0,0.0,0.0,0.0,0.0,0.0,0.0,0.0,0.0,0.0,0.0,0.0,0.0,0.0,0.0,0.0,0.5704,0.604,0.5427,0.5423,0.6035,0.721,0.6038,0.6038,0.721,0.6599,0.6652,0.721,0.721,0.721,0.721,0.721,0.721,0.721,0.721,0.721,0.721,0.721,0.721,0.721,0.721,0.721,0.721,0.721,0.721,0.721,0.721,0.7268,0.7435,0.7715,0.8045,0.8322,0.8602,0.8826,0.8885,0.8885,0.8885,0.8885,0.8885,0.8885,0.8885,0.8885,0.8885,0.8885,0.8885,0.8885,0.8885,0.8885,0.8885,0.8885,0.8885,0.8885,0.8885,0.8885,0.8885,0.8885,0.8885,0.8885,0.8885,0.8885,0.8885,0.8885,0.8885,0.8885,0.8885,0.8885,0.8885,0.8885,0.8885,0.8885,0.8885,0.8885,0.8885,0.8885,0.8885,0.8885,0.8885,0.0,0.0,0.0,0.0,0.0,0.0,0.0,0.0,0.0,0.0,0.0,0.0,0.0,0.0,0.0,0.0,0.0,0.0,0.0,0.0,0.0,0.0,0.0,0.0,0.0,0.0,0.0,0.0,0.0,0.0,0.3357,0.4419,0.4979,0.481,0.4027,0.4585,0.6538,0.4585,0.4585,0.6594,0.5759,0.604,0.721,0.721,0.721,0.721,0.721,0.721,0.721,0.721,0.721,0.721,0.721,0.721,0.721,0.721,0.721,0.721,0.721,0.721,0.721,0.721,0.721,0.7265,0.7493,0.7771,0.8045,0.8429,0.8712,0.8885,0.8885,0.8885,0.8885,0.8885,0.8885,0.8885,0.8885,0.8885,0.8885,0.8885,0.8885,0.8885,0.8885,0.8885,0.8885,0.8885,0.8885,0.8885,0.8885,0.8885,0.8885,0.8885,0.8885,0.8885,0.8885,0.8885,0.8885,0.8885,0.8885,0.8885,0.8885,0.8885,0.8885,0.8885,0.8885,0.8885,0.8885,0.8885,0.8885,0.8885,0.8885,0.8885,0.0,0.0,0.0,0.0,0.0,0.0,0.0,0.0,0.0,0.0,0.0,0.0,0.0,0.0,0.0,0.0,0.0,0.0,0.0,0.0,0.0,0.0,0.0,0.0,0.0,0.0,0.0,0.0,0.0,0.0,0.2127,0.3189,0.3357,0.2295,0.3134,0.3748,0.4083,0.3748,0.3748,0.4083,0.4979,0.604,0.721,0.721,0.721,0.721,0.721,0.721,0.721,0.721,0.721,0.721,0.721,0.721,0.721,0.721,0.721,0.721,0.721,0.721,0.721,0.721,0.721,0.7265,0.7493,0.7771,0.8045,0.8429,0.8712,0.8885,0.8885,0.8885,0.8885,0.8885,0.8885,0.8885,0.8885,0.8885,0.8885,0.8885,0.8885,0.8885,0.8885,0.8885,0.8885,0.8885,0.8885,0.8885,0.8885,0.8885,0.8885,0.8885,0.8885,0.8885,0.8885,0.8885,0.8885,0.8885,0.8885,0.8885,0.8885,0.8885,0.8885,0.8885,0.8885,0.8885,0.8885,0.8885,0.8885,0.8885,0.8885,0.8885,0.0,0.0,0.0,0.0,0.0,0.0,0.0,0.0,0.0,0.0,0.0,0.0,0.0,0.0,0.0,0.0,0.0,0.0,0.0,0.0,0.0,0.0,0.0,0.0,0.0,0.0,0.0,0.0,0.0,0.2071,0.084,0.1959,0.2351,0.1791,0.1679,0.2239,0.358,0.2239,0.1903,0.2629,0.4475,0.5706,0.6207,0.6874,0.721,0.721,0.721,0.721,0.721,0.721,0.721,0.721,0.721,0.721,0.721,0.721,0.721,0.721,0.721,0.721,0.721,0.721,0.721,0.721,0.7324,0.7657,0.8045,0.8152,0.8546,0.8885,0.8885,0.8885,0.8885,0.8885,0.8885,0.8885,0.8885,0.8885,0.8885,0.8885,0.8885,0.8885,0.8885,0.8885,0.8885,0.8885,0.8885,0.8885,0.8885,0.8885,0.8885,0.8885,0.8885,0.8885,0.8885,0.8885,0.8885,0.8885,0.8885,0.8885,0.8885,0.8885,0.8885,0.8885,0.8885,0.8885,0.8885,0.8885,0.8885,0.8885,0.8885,0.8885,0.0,0.0,0.0,0.0,0.0,0.0,0.0,0.0,0.0,0.0,0.0,0.0,0.0,0.0,0.0,0.0,0.0,0.0,0.0,0.0,0.0,0.0,0.0,0.0,0.0,0.0,0.0,0.0,0.0,0.0953,0.0056,0.084,0.1344,0.1344,0.0448,0.084,0.2686,0.0896,0.0616,0.1847,0.3916,0.5091,0.5427,0.6652,0.721,0.721,0.721,0.721,0.721,0.721,0.721,0.721,0.721,0.721,0.721,0.721,0.721,0.721,0.721,0.721,0.721,0.721,0.721,0.721,0.721,0.7598,0.7989,0.7989,0.8436,0.8885,0.8885,0.8885,0.8885,0.8885,0.8885,0.8885,0.8885,0.8885,0.8885,0.8885,0.8885,0.8885,0.8885,0.8885,0.8885,0.8885,0.8885,0.8885,0.8885,0.8885,0.8885,0.8885,0.8885,0.8885,0.8885,0.8885,0.8885,0.8885,0.8885,0.8885,0.8885,0.8885,0.8885,0.8885,0.8885,0.8885,0.8885,0.8885,0.8885,0.8885,0.8885,0.8885,0.0,0.0,0.0,0.0,0.0,0.0,0.0,0.0,0.0,0.0,0.0,0.0,0.0,0.0,0.0,0.0,0.0,0.0,0.0,0.0,0.0,0.0,0.0,0.0,0.0,0.0,0.0,0.0,0.0,0.0056,0.0,0.0056,0.0112,0.0112,0.0056,0.0056,0.0168,0.0056,0.0616,0.1791,0.3078,0.4308,0.5427,0.6652,0.721,0.721,0.721,0.721,0.721,0.721,0.721,0.721,0.721,0.721,0.721,0.721,0.721,0.721,0.721,0.721,0.721,0.721,0.721,0.721,0.721,0.7598,0.7989,0.7989,0.8436,0.8885,0.8885,0.8885,0.8885,0.8885,0.8885,0.8885,0.8885,0.8885,0.8885,0.8885,0.8885,0.8885,0.8885,0.8885,0.8885,0.8885,0.8885,0.8885,0.8885,0.8885,0.8885,0.8885,0.8885,0.8885,0.8885,0.8885,0.8885,0.8885,0.8885,0.8885,0.8885,0.8885,0.8885,0.8885,0.8885,0.8885,0.8885,0.8885,0.8885,0.8885,0.8885,0.8885,0.0,0.0,0.0,0.0,0.0,0.0,0.0,0.0,0.0,0.0,0.0,0.0,0.0,0.0,0.0,0.0,0.0,0.0,0.0,0.0,0.0,0.0,0.0,0.0,0.0,0.0,0.0,0.0,0.0,0.0,0.0,0.0,0.0,0.0,0.0,0.0,0.0,0.0,0.0224,0.0672,0.1847,0.3078,0.4308,0.5481,0.6485,0.721,0.721,0.721,0.721,0.721,0.721,0.721,0.721,0.721,0.721,0.721,0.721,0.721,0.721,0.721,0.721,0.721,0.721,0.721,0.721,0.7598,0.7989,0.7989,0.8436,0.8885,0.8885,0.8885,0.8885,0.8885,0.8885,0.8885,0.8885,0.8885,0.8885,0.8885,0.8885,0.8885,0.8885,0.8885,0.8885,0.8885,0.8885,0.8885,0.8885,0.8885,0.8885,0.8885,0.8885,0.8885,0.8885,0.8885,0.8885,0.8885,0.8885,0.8885,0.8885,0.8885,0.8885,0.8885,0.8885,0.8885,0.8885,0.8885,0.8885,0.8885,0.8885,0.8885,0.0,0.0,0.0,0.0,0.0,0.0,0.0,0.0,0.0,0.0,0.0,0.0,0.0,0.0,0.0,0.0,0.0,0.0,0.0,0.0,0.0,0.0,0.0,0.0,0.0,0.0,0.0,0.0,0.0,0.0,0.0,0.0,0.0,0.0,0.0,0.0,0.0,0.0,0.0,0.0,0.1232,0.2406,0.3636,0.4868,0.604,0.721,0.721,0.721,0.721,0.721,0.721,0.721,0.721,0.721,0.721,0.721,0.721,0.721,0.721,0.721,0.721,0.721,0.721,0.721,0.721,0.749,0.7881,0.7989,0.838,0.8771,0.8881,0.8885,0.8885,0.8885,0.8885,0.8885,0.8885,0.8885,0.8885,0.8885,0.8885,0.8885,0.8885,0.8885,0.8885,0.8885,0.8885,0.8885,0.8885,0.8885,0.8885,0.8885,0.8885,0.8885,0.8885,0.8885,0.8885,0.8885,0.8885,0.8885,0.8885,0.8885,0.8885,0.8885,0.8885,0.8885,0.8885,0.8885,0.8885,0.8885,0.8885,0.8885,0.0,0.0,0.0,0.0,0.0,0.0,0.0,0.0,0.0,0.0,0.0,0.0,0.0,0.0,0.0,0.0,0.0,0.0,0.0,0.0,0.0,0.0,0.0,0.0,0.0,0.0,0.0,0.0,0.0,0.0,0.0,0.0,0.0,0.0,0.0,0.0,0.0,0.0,0.0,0.0,0.1176,0.2407,0.358,0.481,0.5984,0.7154,0.721,0.721,0.721,0.721,0.721,0.721,0.721,0.721,0.721,0.721,0.721,0.721,0.721,0.721,0.721,0.721,0.721,0.721,0.721,0.7379,0.7662,0.7934,0.8263,0.8543,0.8826,0.8885,0.8885,0.8885,0.8885,0.8885,0.8885,0.8885,0.8885,0.8885,0.8885,0.8885,0.8885,0.8885,0.8885,0.8885,0.8885,0.8885,0.8885,0.8885,0.8885,0.8885,0.8885,0.8885,0.8885,0.8885,0.8885,0.8885,0.8885,0.8885,0.8885,0.8885,0.8885,0.8885,0.8885,0.8885,0.8885,0.8885,0.8885,0.8885,0.8885,0.8885,-0.1617,0.0,0.0,0.0,0.0,0.0,0.0,0.0,0.0,0.0,0.0,0.0,0.0,0.0,0.0,0.0,0.0,0.0,0.0,0.0,0.0,0.0,0.0,0.0,0.0,0.0,0.0,0.0,-0.0112,0.0,0.0,0.0,0.0,0.0,0.0,0.0,0.0,0.0,0.0,0.0,0.0336,0.112,0.2351,0.3525,0.4754,0.5929,0.6818,0.721,0.721,0.721,0.721,0.721,0.721,0.721,0.721,0.721,0.721,0.721,0.721,0.721,0.721,0.721,0.721,0.721,0.721,0.7379,0.7662,0.7934,0.8263,0.8543,0.8826,0.8885,0.8885,0.8885,0.8885,0.8885,0.8885,0.8885,0.8885,0.8885,0.8885,0.8885,0.8885,0.8885,0.8885,0.8885,0.8885,0.8885,0.8885,0.8885,0.8885,0.8885,0.8885,0.8885,0.8885,0.8885,0.8885,0.8885,0.8885,0.8885,0.8885,0.8885,0.8885,0.8885,0.8885,0.8885,0.8885,0.8885,0.8885,0.8885,0.8885,0.8994,0.0,0.0,0.0,0.0,0.0,0.0,-0.1469,-0.1498,-0.1476,0.0,0.0,0.0,0.0,0.0,0.0,0.0,0.0,0.0,0.0,0.0,0.0,0.0,0.0,0.0,0.0,0.0,0.0,-0.028,-0.0112,0.0,0.0,0.0,0.0,0.0,0.0,0.0,0.0,0.0,0.0,0.0,0.0,0.0616,0.1847,0.2519,0.3804,0.5427,0.6151,0.6707,0.721,0.721,0.721,0.721,0.721,0.721,0.721,0.721,0.721,0.721,0.721,0.721,0.721,0.721,0.721,0.721,0.721,0.7379,0.7662,0.7934,0.8322,0.8712,0.8881,0.8885,0.8885,0.8885,0.8885,0.8885,0.8885,0.8885,0.8885,0.8885,0.8885,0.8885,0.8885,0.8885,0.8885,0.8885,0.8885,0.8885,0.8885,0.8885,0.8885,0.8885,0.8885,0.8885,0.8885,0.8885,0.8885,0.8885,0.8885,0.8885,0.8885,0.8885,0.8885,0.8885,0.8885,0.8885,0.8885,0.8885,0.8885,0.8885,0.8998,0.9072,0.0,0.0,0.0,0.0,0.0,0.0,-0.1313,-0.1279,-0.1243,0.0,0.0,0.0,0.0,0.0,0.0,0.0,0.0,0.0,0.0,0.0,0.0,0.0,0.0,0.0,0.0,-0.0897,-0.0673,-0.0112,0.0,0.0,0.0,0.0,0.0,0.0,0.0,0.0,0.0,0.0,0.0,0.0,0.0,0.056,0.1623,0.1735,0.2965,0.5035,0.526,0.5984,0.6988,0.7154,0.721,0.721,0.721,0.721,0.721,0.721,0.721,0.721,0.721,0.721,0.721,0.721,0.721,0.721,0.721,0.7379,0.766,0.7989,0.8436,0.8885,0.8885,0.8885,0.8885,0.8885,0.8885,0.8885,0.8885,0.8885,0.8885,0.8885,0.8885,0.8885,0.8885,0.8885,0.8885,0.8885,0.8885,0.8885,0.8885,0.8885,0.8885,0.8885,0.8885,0.8885,0.8885,0.8885,0.8885,0.8885,0.8885,0.8885,0.8885,0.8885,0.8885,0.8885,0.8885,0.8885,0.8885,0.8885,0.8892,0.8964,0.9093,0.9228,0.0,0.0,0.0,0.0,0.0,0.0,-0.1516,-0.152,-0.148,0.0,0.0,0.0,0.0,0.0,0.0,0.0,0.0,0.0,0.0,0.0,0.0,0.0,0.0,0.0,0.0,-0.1009,-0.0729,-0.0336,-0.0112,0.0,0.0,0.0,0.0,0.0,0.0,0.0,0.0,0.0,0.0,0.0,0.0,0.0112,0.0392,0.1344,0.2071,0.2629,0.4531,0.5539,0.5817,0.6818,0.721,0.721,0.721,0.721,0.721,0.721,0.721,0.721,0.721,0.721,0.721,0.721,0.721,0.721,0.721,0.7379,0.7715,0.8266,0.8657,0.8885,0.8885,0.8885,0.8885,0.8885,0.8885,0.8885,0.8885,0.8885,0.8885,0.8885,0.8885,0.8885,0.8885,0.8885,0.8885,0.8885,0.8885,0.8885,0.8885,0.8885,0.8885,0.8885,0.8885,0.8885,0.8885,0.8885,0.8885,0.8885,0.8885,0.8885,0.8885,0.8885,0.8885,0.8885,0.8885,0.8885,0.8885,0.8885,0.8998,0.9169,0.9197,0.9344,0.0,0.0,0.0,-0.1617,0.0,0.0,0.0,-0.1415,-0.1317,0.0,0.0,0.0,0.0,0.0,0.0,0.0,0.0,0.0,0.0,0.0,0.0,0.0,0.0,0.0,0.0,-0.0841,-0.0505,-0.0224,-0.0056,0.0,0.0,0.0,0.0,0.0,0.0,0.0,0.0,0.0,0.0,0.0,0.0,0.0,0.0,0.0616,0.1232,0.1903,0.3692,0.4868,0.5483,0.671,0.721,0.721,0.721,0.721,0.721,0.721,0.721,0.721,0.721,0.721,0.721,0.721,0.721,0.721,0.721,0.749,0.7937,0.8546,0.8771,0.8885,0.8885,0.8885,0.8885,0.8885,0.8885,0.8885,0.8885,0.8885,0.8885,0.8885,0.8885,0.8885,0.8885,0.8885,0.8885,0.8885,0.8885,0.8885,0.8885,0.8885,0.8885,0.8885,0.8885,0.8885,0.8885,0.8885,0.8885,0.8885,0.8885,0.8885,0.8885,0.8885,0.8885,0.8885,0.8885,0.8885,0.8885,0.9011,0.9083,0.9214,0.931,0.9462,0.0,0.0,0.0,0.0,0.0,-0.1465,0.0,0.0,0.0,0.0,0.0,0.0,0.0,0.0,0.0,0.0,0.0,0.0,0.0,0.0,0.0,0.0,0.0,0.0,0.0,-0.056,-0.0224,0.0,0.0,0.0,0.0,0.0,0.0,0.0,0.0,0.0,0.0,0.0,0.0,0.0,0.0,0.0,0.0,0.0,0.0504,0.1512,0.2742,0.3916,0.5146,0.6374,0.6988,0.721,0.721,0.721,0.721,0.721,0.721,0.721,0.721,0.721,0.721,0.721,0.721,0.721,0.7321,0.7654,0.8103,0.8716,0.8885,0.8885,0.8885,0.8885,0.8885,0.8885,0.8885,0.8885,0.8885,0.8885,0.8885,0.8885,0.8885,0.8885,0.8885,0.8885,0.8885,0.8885,0.8885,0.8885,0.8885,0.8885,0.8885,0.8885,0.8885,0.8885,0.8885,0.8885,0.8885,0.8885,0.8885,0.8885,0.8885,0.8885,0.8885,0.8885,0.8885,0.8898,0.8981,0.9127,0.9255,0.9262,0.9483,0.9625,0.0,0.0,0.0,0.0,-0.1415,0.0,0.0,0.0,0.0,0.0,0.0,0.0,0.0,0.0,0.0,0.0,0.0,0.0,0.0,0.0,0.0,0.0,0.0,0.0,0.0,0.0,-0.0056,0.0,0.0,0.0,0.0,0.0,0.0,0.0,0.0,0.0,0.0,0.0,0.0,0.0,0.0,0.0,0.0,0.0,0.0056,0.028,0.1456,0.2686,0.3916,0.5091,0.6207,0.721,0.721,0.721,0.721,0.721,0.721,0.721,0.721,0.721,0.721,0.721,0.721,0.7265,0.7768,0.7934,0.8103,0.8716,0.8885,0.8885,0.8885,0.8885,0.8885,0.8885,0.8885,0.8885,0.8885,0.8885,0.8885,0.8885,0.8885,0.8885,0.8885,0.8885,0.8885,0.8885,0.8885,0.8885,0.8885,0.8885,0.8885,0.8885,0.8885,0.8885,0.8885,0.8885,0.8885,0.8885,0.8885,0.8885,0.8885,0.8885,0.8885,0.8885,0.8885,0.9001,0.9187,0.9279,0.9354,0.9361,0.953,0.9676,0.0,0.0,0.0,0.0,0.0,0.0,-0.1111,0.0,-0.101,0.0,0.0,0.0,0.0,0.0,0.0,0.0,0.0,0.0,0.0,0.0,0.0,0.0,0.0,0.0,0.0,0.0,0.0,0.0,0.0,0.0,0.0,0.0,0.0,0.0,0.0,0.0,0.0,0.0,0.0,0.0,0.0,0.0,0.0,0.0,0.0,0.0056,0.1288,0.2463,0.3692,0.4923,0.6096,0.721,0.721,0.721,0.721,0.721,0.721,0.721,0.721,0.721,0.721,0.721,0.721,0.7321,0.7823,0.7989,0.8103,0.8716,0.8885,0.8885,0.8885,0.8885,0.8885,0.8885,0.8885,0.8885,0.8885,0.8885,0.8885,0.8885,0.8885,0.8885,0.8885,0.8885,0.8885,0.8885,0.8885,0.8885,0.8885,0.8885,0.8885,0.8885,0.8885,0.8885,0.8885,0.8885,0.8885,0.8885,0.8885,0.8885,0.8885,0.8885,0.8977,0.9062,0.9062,0.9137,0.9344,0.9439,0.9513,0.9517,0.9663,0.9764,-0.0764,0.0,0.0,0.0,0.0,0.0,0.0,0.0,0.0,0.0,0.0,0.0,0.0,0.0,0.0,0.0,0.0,0.0,0.0,0.0,0.0,0.0,0.0,0.0,0.0,0.0,0.0,0.0,0.0,0.0,0.0,0.0,0.0,0.0,0.0,0.0,0.0,0.0,0.0,0.0,0.0,0.0,0.0,0.0,0.0,0.0056,0.0953,0.2015,0.3189,0.4419,0.5592,0.6763,0.7099,0.721,0.721,0.721,0.721,0.721,0.721,0.721,0.721,0.721,0.721,0.7321,0.7823,0.7989,0.8103,0.8716,0.8885,0.8885,0.8885,0.8885,0.8885,0.8885,0.8885,0.8885,0.8885,0.8885,0.8885,0.8885,0.8885,0.8885,0.8885,0.8885,0.8885,0.8885,0.8885,0.8885,0.8885,0.8885,0.8885,0.8885,0.8885,0.8885,0.8885,0.8885,0.8885,0.8885,0.8885,0.8885,0.8885,0.8977,0.9045,0.9207,0.9251,0.935,0.9445,0.9554,0.9629,0.9669,0.9774,0.9822,0.0,0.0,0.0,-0.0812,0.0,0.0,0.0,0.0,-0.0505,0.0,0.0,0.0,0.0,0.0,0.0,0.0,0.0,0.0,0.0,0.0,0.0,0.0,0.0,0.0,0.0,0.0,0.0,0.0,0.0,0.0,0.0,0.0,0.0,0.0,0.0,0.0,0.0,0.0,0.0,0.0,0.0,0.0,0.0,0.0,0.0,0.0,0.0056,0.0728,0.1959,0.3132,0.4364,0.5594,0.6763,0.721,0.721,0.721,0.721,0.721,0.721,0.721,0.721,0.721,0.721,0.7321,0.7823,0.7989,0.8103,0.8716,0.8885,0.8885,0.8885,0.8885,0.8885,0.8885,0.8885,0.8885,0.8885,0.8885,0.8885,0.8885,0.8885,0.8885,0.8885,0.8885,0.8885,0.8885,0.8885,0.8885,0.8885,0.8885,0.8885,0.8885,0.8885,0.8885,0.8885,0.8885,0.8885,0.8885,0.8885,0.8885,0.8885,0.9072,0.9204,0.921,0.93,0.9449,0.9602,0.9608,0.968,0.9815,0.9819,0.9822,0.0,0.0,-0.0259,-0.0258,0.0,0.0,0.0,0.0,0.0,0.0,0.0,0.0,0.0,0.0,0.0,0.0,0.0,0.0,0.0,0.0,0.0,0.0,0.0,0.0,0.0,0.0,0.0,0.0,0.0,0.0,0.0,0.0,0.0,0.0,0.0,0.0,0.0,0.0,0.0,0.0,0.0,0.0,0.0,0.0,0.0,0.0,0.0,0.0672,0.1847,0.2239,0.358,0.5427,0.5873,0.6485,0.721,0.721,0.721,0.721,0.721,0.721,0.721,0.721,0.721,0.7321,0.7823,0.7989,0.8103,0.8716,0.8885,0.8885,0.8885,0.8885,0.8885,0.8885,0.8885,0.8885,0.8885,0.8885,0.8885,0.8885,0.8885,0.8885,0.8885,0.8885,0.8885,0.8885,0.8885,0.8885,0.8885,0.8885,0.8885,0.8885,0.8885,0.8885,0.8885,0.8885,0.8885,0.8885,0.9028,0.9079,0.9079,0.9225,0.9351,0.9452,0.9507,0.9605,0.9747,0.9747,0.9774,0.9822,0.9822,0.9822,-0.0054,0.0,0.0,0.0,0.0,0.0,0.0,0.0,0.0,0.0,0.0,0.0,0.0,0.0,0.0,0.0,0.0,0.0,0.0,-0.1415,0.0,0.0,0.0,0.0,0.0,0.0,-0.0404,-0.0051,0.0,0.0,0.0,0.0,0.0,0.0,0.0,0.0,0.0,0.0,0.0,0.0,0.0,0.0,0.0,0.0,0.0,0.0,0.0,0.0448,0.1176,0.1623,0.2966,0.481,0.526,0.6151,0.721,0.721,0.721,0.721,0.721,0.721,0.721,0.721,0.721,0.7321,0.7823,0.7989,0.8103,0.8716,0.8885,0.8885,0.8885,0.8885,0.8885,0.8885,0.8885,0.8885,0.8885,0.8885,0.8885,0.8885,0.8885,0.8885,0.8885,0.8885,0.8885,0.8885,0.8885,0.8885,0.8885,0.8885,0.8885,0.8885,0.8885,0.8885,0.8885,0.8885,0.8905,0.9011,0.91,0.9234,0.9289,0.9381,0.9534,0.9683,0.9686,0.9754,0.99,0.9846,0.9822,0.9822,0.9822,0.9822]}]]